<?xml version='1.0' encoding='UTF-8'?>
<gpx version="1.1" creator="https://www.komoot.de" xmlns="http://www.topografix.com/GPX/1/1" xmlns:xsi="http://www.w3.org/2001/XMLSchema-instance" xsi:schemaLocation="http://www.topografix.com/GPX/1/1 http://www.topografix.com/GPX/1/1/gpx.xsd">
  <metadata>
    <name>83_900SteinenKandern</name>
    <author>
      <link href="https://www.komoot.de">
        <text>komoot</text>
        <type>text/html</type>
      </link>
    </author>
  </metadata>
  <trk>
    <name>83_900SteinenKandern</name>
    <trkseg>
      <trkpt lat="47.541440" lon="7.870768">
        <ele>339.090611</ele>
        <time>2021-11-22T08:06:33.230Z</time>
      </trkpt>
      <trkpt lat="47.541576" lon="7.870664">
        <ele>339.090611</ele>
        <time>2021-11-22T08:06:35.241Z</time>
      </trkpt>
      <trkpt lat="47.541550" lon="7.870601">
        <ele>339.090611</ele>
        <time>2021-11-22T08:06:36.051Z</time>
      </trkpt>
      <trkpt lat="47.541521" lon="7.870517">
        <ele>339.090611</ele>
        <time>2021-11-22T08:06:37.108Z</time>
      </trkpt>
      <trkpt lat="47.541606" lon="7.870424">
        <ele>339.090611</ele>
        <time>2021-11-22T08:06:38.837Z</time>
      </trkpt>
      <trkpt lat="47.541910" lon="7.870106">
        <ele>339.090611</ele>
        <time>2021-11-22T08:06:44.677Z</time>
      </trkpt>
      <trkpt lat="47.542014" lon="7.870126">
        <ele>339.090611</ele>
        <time>2021-11-22T08:06:46.193Z</time>
      </trkpt>
      <trkpt lat="47.542118" lon="7.870135">
        <ele>339.036338</ele>
        <time>2021-11-22T08:06:47.946Z</time>
      </trkpt>
      <trkpt lat="47.542181" lon="7.870131">
        <ele>338.973126</ele>
        <time>2021-11-22T08:06:48.834Z</time>
      </trkpt>
      <trkpt lat="47.542317" lon="7.870012">
        <ele>338.814789</ele>
        <time>2021-11-22T08:06:51.025Z</time>
      </trkpt>
      <trkpt lat="47.542348" lon="7.869983">
        <ele>338.778035</ele>
        <time>2021-11-22T08:06:51.472Z</time>
      </trkpt>
      <trkpt lat="47.542329" lon="7.869820">
        <ele>338.666102</ele>
        <time>2021-11-22T08:06:53.267Z</time>
      </trkpt>
      <trkpt lat="47.542372" lon="7.869746">
        <ele>338.600030</ele>
        <time>2021-11-22T08:06:54.092Z</time>
      </trkpt>
      <trkpt lat="47.542657" lon="7.869354">
        <ele>338.210176</ele>
        <time>2021-11-22T08:06:58.951Z</time>
      </trkpt>
      <trkpt lat="47.542696" lon="7.869257">
        <ele>338.133777</ele>
        <time>2021-11-22T08:06:59.886Z</time>
      </trkpt>
      <trkpt lat="47.542722" lon="7.869201">
        <ele>338.087784</ele>
        <time>2021-11-22T08:07:00.477Z</time>
      </trkpt>
      <trkpt lat="47.543049" lon="7.868759">
        <ele>337.644040</ele>
        <time>2021-11-22T08:07:05.389Z</time>
      </trkpt>
      <trkpt lat="47.543105" lon="7.868711">
        <ele>337.579184</ele>
        <time>2021-11-22T08:07:06.128Z</time>
      </trkpt>
      <trkpt lat="47.543201" lon="7.868657">
        <ele>337.476246</ele>
        <time>2021-11-22T08:07:07.207Z</time>
      </trkpt>
      <trkpt lat="47.543657" lon="7.868359">
        <ele>336.901641</ele>
        <time>2021-11-22T08:07:13.002Z</time>
      </trkpt>
      <trkpt lat="47.543801" lon="7.868269">
        <ele>336.707185</ele>
        <time>2021-11-22T08:07:15.482Z</time>
      </trkpt>
      <trkpt lat="47.544214" lon="7.867988">
        <ele>336.141729</ele>
        <time>2021-11-22T08:07:23.098Z</time>
      </trkpt>
      <trkpt lat="47.544246" lon="7.867967">
        <ele>336.098184</ele>
        <time>2021-11-22T08:07:23.695Z</time>
      </trkpt>
      <trkpt lat="47.544410" lon="7.867825">
        <ele>335.861840</ele>
        <time>2021-11-22T08:07:26.948Z</time>
      </trkpt>
      <trkpt lat="47.544469" lon="7.867776">
        <ele>335.777684</ele>
        <time>2021-11-22T08:07:27.970Z</time>
      </trkpt>
      <trkpt lat="47.544568" lon="7.867693">
        <ele>335.636152</ele>
        <time>2021-11-22T08:07:29.897Z</time>
      </trkpt>
      <trkpt lat="47.545003" lon="7.867278">
        <ele>335.081321</ele>
        <time>2021-11-22T08:07:38.745Z</time>
      </trkpt>
      <trkpt lat="47.545160" lon="7.866985">
        <ele>335.254574</ele>
        <time>2021-11-22T08:07:43.396Z</time>
      </trkpt>
      <trkpt lat="47.545240" lon="7.866887">
        <ele>335.325797</ele>
        <time>2021-11-22T08:07:45.669Z</time>
      </trkpt>
      <trkpt lat="47.546096" lon="7.866147">
        <ele>336.005782</ele>
        <time>2021-11-22T08:08:10.739Z</time>
      </trkpt>
      <trkpt lat="47.546327" lon="7.865959">
        <ele>336.186613</ele>
        <time>2021-11-22T08:08:17.160Z</time>
      </trkpt>
      <trkpt lat="47.546510" lon="7.865766">
        <ele>336.286946</ele>
        <time>2021-11-22T08:08:23.546Z</time>
      </trkpt>
      <trkpt lat="47.546819" lon="7.865489">
        <ele>336.300729</ele>
        <time>2021-11-22T08:08:31.699Z</time>
      </trkpt>
      <trkpt lat="47.546889" lon="7.865225">
        <ele>336.308035</ele>
        <time>2021-11-22T08:08:35.486Z</time>
      </trkpt>
      <trkpt lat="47.546894" lon="7.864837">
        <ele>336.318031</ele>
        <time>2021-11-22T08:08:40.663Z</time>
      </trkpt>
      <trkpt lat="47.546885" lon="7.864500">
        <ele>336.326719</ele>
        <time>2021-11-22T08:08:46.302Z</time>
      </trkpt>
      <trkpt lat="47.546974" lon="7.864423">
        <ele>336.330652</ele>
        <time>2021-11-22T08:08:47.890Z</time>
      </trkpt>
      <trkpt lat="47.547320" lon="7.863864">
        <ele>336.350189</ele>
        <time>2021-11-22T08:08:57.815Z</time>
      </trkpt>
      <trkpt lat="47.547568" lon="7.863151">
        <ele>335.572965</ele>
        <time>2021-11-22T08:09:06.828Z</time>
      </trkpt>
      <trkpt lat="47.547930" lon="7.861711">
        <ele>333.899128</ele>
        <time>2021-11-22T08:09:23.202Z</time>
      </trkpt>
      <trkpt lat="47.548049" lon="7.860929">
        <ele>333.141092</ele>
        <time>2021-11-22T08:09:31.901Z</time>
      </trkpt>
      <trkpt lat="47.548334" lon="7.859801">
        <ele>332.185638</ele>
        <time>2021-11-22T08:09:45.383Z</time>
      </trkpt>
      <trkpt lat="47.548611" lon="7.858381">
        <ele>331.296493</ele>
        <time>2021-11-22T08:10:03.339Z</time>
      </trkpt>
      <trkpt lat="47.548686" lon="7.857973">
        <ele>331.255617</ele>
        <time>2021-11-22T08:10:08.728Z</time>
      </trkpt>
      <trkpt lat="47.548701" lon="7.857893">
        <ele>331.247591</ele>
        <time>2021-11-22T08:10:09.849Z</time>
      </trkpt>
      <trkpt lat="47.548743" lon="7.857692">
        <ele>331.227251</ele>
        <time>2021-11-22T08:10:12.623Z</time>
      </trkpt>
      <trkpt lat="47.548887" lon="7.857308">
        <ele>331.184787</ele>
        <time>2021-11-22T08:10:18.657Z</time>
      </trkpt>
      <trkpt lat="47.549362" lon="7.855774">
        <ele>330.883056</ele>
        <time>2021-11-22T08:10:42.701Z</time>
      </trkpt>
      <trkpt lat="47.549566" lon="7.855225">
        <ele>330.674100</ele>
        <time>2021-11-22T08:10:51.319Z</time>
      </trkpt>
      <trkpt lat="47.549883" lon="7.854434">
        <ele>330.367376</ele>
        <time>2021-11-22T08:11:02.773Z</time>
      </trkpt>
      <trkpt lat="47.550221" lon="7.853833">
        <ele>329.757598</ele>
        <time>2021-11-22T08:11:09.166Z</time>
      </trkpt>
      <trkpt lat="47.551516" lon="7.851950">
        <ele>324.975822</ele>
        <time>2021-11-22T08:11:27.963Z</time>
      </trkpt>
      <trkpt lat="47.551660" lon="7.851725">
        <ele>324.297339</ele>
        <time>2021-11-22T08:11:29.995Z</time>
      </trkpt>
      <trkpt lat="47.551830" lon="7.851603">
        <ele>323.684946</ele>
        <time>2021-11-22T08:11:31.915Z</time>
      </trkpt>
      <trkpt lat="47.551882" lon="7.851736">
        <ele>323.348622</ele>
        <time>2021-11-22T08:11:32.915Z</time>
      </trkpt>
      <trkpt lat="47.551925" lon="7.851845">
        <ele>323.072363</ele>
        <time>2021-11-22T08:11:33.761Z</time>
      </trkpt>
      <trkpt lat="47.552042" lon="7.852007">
        <ele>322.553196</ele>
        <time>2021-11-22T08:11:35.407Z</time>
      </trkpt>
      <trkpt lat="47.552097" lon="7.852063">
        <ele>322.336840</ele>
        <time>2021-11-22T08:11:36.039Z</time>
      </trkpt>
      <trkpt lat="47.552272" lon="7.852167">
        <ele>321.725548</ele>
        <time>2021-11-22T08:11:37.943Z</time>
      </trkpt>
      <trkpt lat="47.552449" lon="7.852231">
        <ele>321.134868</ele>
        <time>2021-11-22T08:11:39.745Z</time>
      </trkpt>
      <trkpt lat="47.552678" lon="7.851709">
        <ele>319.772598</ele>
        <time>2021-11-22T08:11:44.020Z</time>
      </trkpt>
      <trkpt lat="47.552876" lon="7.851300">
        <ele>319.061962</ele>
        <time>2021-11-22T08:11:47.567Z</time>
      </trkpt>
      <trkpt lat="47.553283" lon="7.850634">
        <ele>317.813710</ele>
        <time>2021-11-22T08:11:54.231Z</time>
      </trkpt>
      <trkpt lat="47.553344" lon="7.850525">
        <ele>317.616984</ele>
        <time>2021-11-22T08:11:55.308Z</time>
      </trkpt>
      <trkpt lat="47.553380" lon="7.850453">
        <ele>317.492492</ele>
        <time>2021-11-22T08:11:55.996Z</time>
      </trkpt>
      <trkpt lat="47.553537" lon="7.849904">
        <ele>316.664106</ele>
        <time>2021-11-22T08:12:00.481Z</time>
      </trkpt>
      <trkpt lat="47.553605" lon="7.849629">
        <ele>316.257208</ele>
        <time>2021-11-22T08:12:02.771Z</time>
      </trkpt>
      <trkpt lat="47.553725" lon="7.849291">
        <ele>315.827501</ele>
        <time>2021-11-22T08:12:05.694Z</time>
      </trkpt>
      <trkpt lat="47.554055" lon="7.848586">
        <ele>315.020541</ele>
        <time>2021-11-22T08:12:12.591Z</time>
      </trkpt>
      <trkpt lat="47.554209" lon="7.848300">
        <ele>314.676421</ele>
        <time>2021-11-22T08:12:15.554Z</time>
      </trkpt>
      <trkpt lat="47.554269" lon="7.848188">
        <ele>314.541927</ele>
        <time>2021-11-22T08:12:16.634Z</time>
      </trkpt>
      <trkpt lat="47.554351" lon="7.848049">
        <ele>314.368288</ele>
        <time>2021-11-22T08:12:18.093Z</time>
      </trkpt>
      <trkpt lat="47.554465" lon="7.847858">
        <ele>314.128471</ele>
        <time>2021-11-22T08:12:20.175Z</time>
      </trkpt>
      <trkpt lat="47.554618" lon="7.847626">
        <ele>313.823386</ele>
        <time>2021-11-22T08:12:22.674Z</time>
      </trkpt>
      <trkpt lat="47.554759" lon="7.847388">
        <ele>313.526165</ele>
        <time>2021-11-22T08:12:25.091Z</time>
      </trkpt>
      <trkpt lat="47.554892" lon="7.847148">
        <ele>313.261443</ele>
        <time>2021-11-22T08:12:27.522Z</time>
      </trkpt>
      <trkpt lat="47.554995" lon="7.846915">
        <ele>313.024007</ele>
        <time>2021-11-22T08:12:29.657Z</time>
      </trkpt>
      <trkpt lat="47.555068" lon="7.846672">
        <ele>312.797268</ele>
        <time>2021-11-22T08:12:31.723Z</time>
      </trkpt>
      <trkpt lat="47.555199" lon="7.846687">
        <ele>312.631308</ele>
        <time>2021-11-22T08:12:33.191Z</time>
      </trkpt>
      <trkpt lat="47.555727" lon="7.846715">
        <ele>311.963962</ele>
        <time>2021-11-22T08:12:39.658Z</time>
      </trkpt>
      <trkpt lat="47.555855" lon="7.846815">
        <ele>311.781189</ele>
        <time>2021-11-22T08:12:41.318Z</time>
      </trkpt>
      <trkpt lat="47.555892" lon="7.846856">
        <ele>311.722831</ele>
        <time>2021-11-22T08:12:41.871Z</time>
      </trkpt>
      <trkpt lat="47.555966" lon="7.846932">
        <ele>311.609105</ele>
        <time>2021-11-22T08:12:43.022Z</time>
      </trkpt>
      <trkpt lat="47.555990" lon="7.846965">
        <ele>311.567749</ele>
        <time>2021-11-22T08:12:43.458Z</time>
      </trkpt>
      <trkpt lat="47.556060" lon="7.846859">
        <ele>311.441329</ele>
        <time>2021-11-22T08:12:44.661Z</time>
      </trkpt>
      <trkpt lat="47.556172" lon="7.846678">
        <ele>311.244554</ele>
        <time>2021-11-22T08:12:46.575Z</time>
      </trkpt>
      <trkpt lat="47.556636" lon="7.845928">
        <ele>310.759729</ele>
        <time>2021-11-22T08:12:55.052Z</time>
      </trkpt>
      <trkpt lat="47.557134" lon="7.845095">
        <ele>310.229454</ele>
        <time>2021-11-22T08:13:04.864Z</time>
      </trkpt>
      <trkpt lat="47.557282" lon="7.844832">
        <ele>310.066283</ele>
        <time>2021-11-22T08:13:08.041Z</time>
      </trkpt>
      <trkpt lat="47.557560" lon="7.844433">
        <ele>309.969336</ele>
        <time>2021-11-22T08:13:13.253Z</time>
      </trkpt>
      <trkpt lat="47.557715" lon="7.843940">
        <ele>309.941580</ele>
        <time>2021-11-22T08:13:18.264Z</time>
      </trkpt>
      <trkpt lat="47.557759" lon="7.843839">
        <ele>309.935445</ele>
        <time>2021-11-22T08:13:19.443Z</time>
      </trkpt>
      <trkpt lat="47.557846" lon="7.843756">
        <ele>309.927621</ele>
        <time>2021-11-22T08:13:20.786Z</time>
      </trkpt>
      <trkpt lat="47.557967" lon="7.843683">
        <ele>309.917741</ele>
        <time>2021-11-22T08:13:22.830Z</time>
      </trkpt>
      <trkpt lat="47.558136" lon="7.843582">
        <ele>309.903961</ele>
        <time>2021-11-22T08:13:25.532Z</time>
      </trkpt>
      <trkpt lat="47.558405" lon="7.843371">
        <ele>309.880945</ele>
        <time>2021-11-22T08:13:30.394Z</time>
      </trkpt>
      <trkpt lat="47.558471" lon="7.843365">
        <ele>309.875945</ele>
        <time>2021-11-22T08:13:31.247Z</time>
      </trkpt>
      <trkpt lat="47.558471" lon="7.843365">
        <ele>309.875945</ele>
        <time>2021-11-22T08:13:31.248Z</time>
      </trkpt>
      <trkpt lat="47.558555" lon="7.843392">
        <ele>309.869445</ele>
        <time>2021-11-22T08:13:32.543Z</time>
      </trkpt>
      <trkpt lat="47.558884" lon="7.843836">
        <ele>309.869056</ele>
        <time>2021-11-22T08:13:39.818Z</time>
      </trkpt>
      <trkpt lat="47.559060" lon="7.844197">
        <ele>309.886806</ele>
        <time>2021-11-22T08:13:44.647Z</time>
      </trkpt>
      <trkpt lat="47.559109" lon="7.844229">
        <ele>309.889968</ele>
        <time>2021-11-22T08:13:45.692Z</time>
      </trkpt>
      <trkpt lat="47.559158" lon="7.844233">
        <ele>309.892867</ele>
        <time>2021-11-22T08:13:46.638Z</time>
      </trkpt>
      <trkpt lat="47.559274" lon="7.844118">
        <ele>309.901109</ele>
        <time>2021-11-22T08:13:48.616Z</time>
      </trkpt>
      <trkpt lat="47.559583" lon="7.843813">
        <ele>309.923037</ele>
        <time>2021-11-22T08:13:54.619Z</time>
      </trkpt>
      <trkpt lat="47.559847" lon="7.843604">
        <ele>309.940714</ele>
        <time>2021-11-22T08:13:59.032Z</time>
      </trkpt>
      <trkpt lat="47.560139" lon="7.843433">
        <ele>309.959258</ele>
        <time>2021-11-22T08:14:03.260Z</time>
      </trkpt>
      <trkpt lat="47.560209" lon="7.843393">
        <ele>309.909209</ele>
        <time>2021-11-22T08:14:04.214Z</time>
      </trkpt>
      <trkpt lat="47.560338" lon="7.843341">
        <ele>309.773261</ele>
        <time>2021-11-22T08:14:05.878Z</time>
      </trkpt>
      <trkpt lat="47.560430" lon="7.843341">
        <ele>309.679706</ele>
        <time>2021-11-22T08:14:07.417Z</time>
      </trkpt>
      <trkpt lat="47.560515" lon="7.843379">
        <ele>309.589421</ele>
        <time>2021-11-22T08:14:08.452Z</time>
      </trkpt>
      <trkpt lat="47.560812" lon="7.843560">
        <ele>309.262857</ele>
        <time>2021-11-22T08:14:12.508Z</time>
      </trkpt>
      <trkpt lat="47.560934" lon="7.843550">
        <ele>309.138605</ele>
        <time>2021-11-22T08:14:14.028Z</time>
      </trkpt>
      <trkpt lat="47.561038" lon="7.843502">
        <ele>309.027836</ele>
        <time>2021-11-22T08:14:15.317Z</time>
      </trkpt>
      <trkpt lat="47.561434" lon="7.843181">
        <ele>308.568833</ele>
        <time>2021-11-22T08:14:20.758Z</time>
      </trkpt>
      <trkpt lat="47.561498" lon="7.843130">
        <ele>308.494938</ele>
        <time>2021-11-22T08:14:21.522Z</time>
      </trkpt>
      <trkpt lat="47.562179" lon="7.842500">
        <ele>307.590396</ele>
        <time>2021-11-22T08:14:30.780Z</time>
      </trkpt>
      <trkpt lat="47.562300" lon="7.842326">
        <ele>307.385578</ele>
        <time>2021-11-22T08:14:32.732Z</time>
      </trkpt>
      <trkpt lat="47.562385" lon="7.842183">
        <ele>307.229364</ele>
        <time>2021-11-22T08:14:34.143Z</time>
      </trkpt>
      <trkpt lat="47.562440" lon="7.842083">
        <ele>307.123611</ele>
        <time>2021-11-22T08:14:35.259Z</time>
      </trkpt>
      <trkpt lat="47.562574" lon="7.841873">
        <ele>306.886691</ele>
        <time>2021-11-22T08:14:37.657Z</time>
      </trkpt>
      <trkpt lat="47.562904" lon="7.841632">
        <ele>306.439774</ele>
        <time>2021-11-22T08:14:42.146Z</time>
      </trkpt>
      <trkpt lat="47.562965" lon="7.841597">
        <ele>306.360312</ele>
        <time>2021-11-22T08:14:42.934Z</time>
      </trkpt>
      <trkpt lat="47.563016" lon="7.841568">
        <ele>306.293953</ele>
        <time>2021-11-22T08:14:43.635Z</time>
      </trkpt>
      <trkpt lat="47.563300" lon="7.841391">
        <ele>305.923005</ele>
        <time>2021-11-22T08:14:47.372Z</time>
      </trkpt>
      <trkpt lat="47.563483" lon="7.841269">
        <ele>305.709248</ele>
        <time>2021-11-22T08:14:49.931Z</time>
      </trkpt>
      <trkpt lat="47.563659" lon="7.841150">
        <ele>305.503174</ele>
        <time>2021-11-22T08:14:52.258Z</time>
      </trkpt>
      <trkpt lat="47.563805" lon="7.841046">
        <ele>305.330615</ele>
        <time>2021-11-22T08:14:54.320Z</time>
      </trkpt>
      <trkpt lat="47.563941" lon="7.840948">
        <ele>305.169523</ele>
        <time>2021-11-22T08:14:56.172Z</time>
      </trkpt>
      <trkpt lat="47.563986" lon="7.840916">
        <ele>305.116354</ele>
        <time>2021-11-22T08:14:56.793Z</time>
      </trkpt>
      <trkpt lat="47.564094" lon="7.840838">
        <ele>304.988373</ele>
        <time>2021-11-22T08:14:58.262Z</time>
      </trkpt>
      <trkpt lat="47.564463" lon="7.840580">
        <ele>304.553747</ele>
        <time>2021-11-22T08:15:03.249Z</time>
      </trkpt>
      <trkpt lat="47.564534" lon="7.840532">
        <ele>304.470617</ele>
        <time>2021-11-22T08:15:04.156Z</time>
      </trkpt>
      <trkpt lat="47.564558" lon="7.840516">
        <ele>304.442583</ele>
        <time>2021-11-22T08:15:04.479Z</time>
      </trkpt>
      <trkpt lat="47.564936" lon="7.840261">
        <ele>303.999882</ele>
        <time>2021-11-22T08:15:09.380Z</time>
      </trkpt>
      <trkpt lat="47.565057" lon="7.840213">
        <ele>303.865206</ele>
        <time>2021-11-22T08:15:10.793Z</time>
      </trkpt>
      <trkpt lat="47.565168" lon="7.840179">
        <ele>303.743340</ele>
        <time>2021-11-22T08:15:12.135Z</time>
      </trkpt>
      <trkpt lat="47.565233" lon="7.840176">
        <ele>303.673420</ele>
        <time>2021-11-22T08:15:12.872Z</time>
      </trkpt>
      <trkpt lat="47.565343" lon="7.840185">
        <ele>303.554971</ele>
        <time>2021-11-22T08:15:14.132Z</time>
      </trkpt>
      <trkpt lat="47.565906" lon="7.840272">
        <ele>302.946369</ele>
        <time>2021-11-22T08:15:20.992Z</time>
      </trkpt>
      <trkpt lat="47.566081" lon="7.840309">
        <ele>302.756309</ele>
        <time>2021-11-22T08:15:23.134Z</time>
      </trkpt>
      <trkpt lat="47.566142" lon="7.840322">
        <ele>302.690049</ele>
        <time>2021-11-22T08:15:23.817Z</time>
      </trkpt>
      <trkpt lat="47.566221" lon="7.840340">
        <ele>302.604113</ele>
        <time>2021-11-22T08:15:25.015Z</time>
      </trkpt>
      <trkpt lat="47.566350" lon="7.840350">
        <ele>302.465226</ele>
        <time>2021-11-22T08:15:26.704Z</time>
      </trkpt>
      <trkpt lat="47.566450" lon="7.840326">
        <ele>302.356309</ele>
        <time>2021-11-22T08:15:27.927Z</time>
      </trkpt>
      <trkpt lat="47.566515" lon="7.840312">
        <ele>302.285689</ele>
        <time>2021-11-22T08:15:28.673Z</time>
      </trkpt>
      <trkpt lat="47.566592" lon="7.840279">
        <ele>302.199509</ele>
        <time>2021-11-22T08:15:29.863Z</time>
      </trkpt>
      <trkpt lat="47.566826" lon="7.840179">
        <ele>302.008972</ele>
        <time>2021-11-22T08:15:32.796Z</time>
      </trkpt>
      <trkpt lat="47.567111" lon="7.839998">
        <ele>301.824966</ele>
        <time>2021-11-22T08:15:36.820Z</time>
      </trkpt>
      <trkpt lat="47.567406" lon="7.839778">
        <ele>301.628985</ele>
        <time>2021-11-22T08:15:41.072Z</time>
      </trkpt>
      <trkpt lat="47.567481" lon="7.839664">
        <ele>301.565230</ele>
        <time>2021-11-22T08:15:42.312Z</time>
      </trkpt>
      <trkpt lat="47.567510" lon="7.839548">
        <ele>301.515696</ele>
        <time>2021-11-22T08:15:43.592Z</time>
      </trkpt>
      <trkpt lat="47.567530" lon="7.839459">
        <ele>301.478135</ele>
        <time>2021-11-22T08:15:44.445Z</time>
      </trkpt>
      <trkpt lat="47.567564" lon="7.839283">
        <ele>301.404831</ele>
        <time>2021-11-22T08:15:46.097Z</time>
      </trkpt>
      <trkpt lat="47.567626" lon="7.839064">
        <ele>301.309735</ele>
        <time>2021-11-22T08:15:48.247Z</time>
      </trkpt>
      <trkpt lat="47.567634" lon="7.839037">
        <ele>301.297927</ele>
        <time>2021-11-22T08:15:48.488Z</time>
      </trkpt>
      <trkpt lat="47.567716" lon="7.838869">
        <ele>301.214902</ele>
        <time>2021-11-22T08:15:50.519Z</time>
      </trkpt>
      <trkpt lat="47.567823" lon="7.838648">
        <ele>301.105986</ele>
        <time>2021-11-22T08:15:53.065Z</time>
      </trkpt>
      <trkpt lat="47.567846" lon="7.838609">
        <ele>301.085246</ele>
        <time>2021-11-22T08:15:53.521Z</time>
      </trkpt>
      <trkpt lat="47.567936" lon="7.838380">
        <ele>300.969423</ele>
        <time>2021-11-22T08:15:56.095Z</time>
      </trkpt>
      <trkpt lat="47.567961" lon="7.838248">
        <ele>300.903928</ele>
        <time>2021-11-22T08:15:57.272Z</time>
      </trkpt>
      <trkpt lat="47.567944" lon="7.838073">
        <ele>300.819466</ele>
        <time>2021-11-22T08:15:58.844Z</time>
      </trkpt>
      <trkpt lat="47.567822" lon="7.837479">
        <ele>300.522848</ele>
        <time>2021-11-22T08:16:04.080Z</time>
      </trkpt>
      <trkpt lat="47.567670" lon="7.836721">
        <ele>300.145085</ele>
        <time>2021-11-22T08:16:10.699Z</time>
      </trkpt>
      <trkpt lat="47.567647" lon="7.836576">
        <ele>300.073928</ele>
        <time>2021-11-22T08:16:11.962Z</time>
      </trkpt>
      <trkpt lat="47.567583" lon="7.836155">
        <ele>299.867767</ele>
        <time>2021-11-22T08:16:15.658Z</time>
      </trkpt>
      <trkpt lat="47.567562" lon="7.835760">
        <ele>299.695062</ele>
        <time>2021-11-22T08:16:19.111Z</time>
      </trkpt>
      <trkpt lat="47.567566" lon="7.835567">
        <ele>299.622564</ele>
        <time>2021-11-22T08:16:20.774Z</time>
      </trkpt>
      <trkpt lat="47.567674" lon="7.835182">
        <ele>299.466016</ele>
        <time>2021-11-22T08:16:24.423Z</time>
      </trkpt>
      <trkpt lat="47.567558" lon="7.835042">
        <ele>299.382771</ele>
        <time>2021-11-22T08:16:26.410Z</time>
      </trkpt>
      <trkpt lat="47.567179" lon="7.834275">
        <ele>299.025823</ele>
        <time>2021-11-22T08:16:34.754Z</time>
      </trkpt>
      <trkpt lat="47.566744" lon="7.833235">
        <ele>298.728719</ele>
        <time>2021-11-22T08:16:45.953Z</time>
      </trkpt>
      <trkpt lat="47.566366" lon="7.832333">
        <ele>298.673089</ele>
        <time>2021-11-22T08:16:56.221Z</time>
      </trkpt>
      <trkpt lat="47.566013" lon="7.831442">
        <ele>298.618954</ele>
        <time>2021-11-22T08:17:06.894Z</time>
      </trkpt>
      <trkpt lat="47.565741" lon="7.830588">
        <ele>298.768662</ele>
        <time>2021-11-22T08:17:16.675Z</time>
      </trkpt>
      <trkpt lat="47.565639" lon="7.830099">
        <ele>298.858208</ele>
        <time>2021-11-22T08:17:22.233Z</time>
      </trkpt>
      <trkpt lat="47.565511" lon="7.829497">
        <ele>298.968634</ele>
        <time>2021-11-22T08:17:29.134Z</time>
      </trkpt>
      <trkpt lat="47.565384" lon="7.828869">
        <ele>299.089264</ele>
        <time>2021-11-22T08:17:36.150Z</time>
      </trkpt>
      <trkpt lat="47.565225" lon="7.828079">
        <ele>299.771182</ele>
        <time>2021-11-22T08:17:44.862Z</time>
      </trkpt>
      <trkpt lat="47.565215" lon="7.828033">
        <ele>299.811158</ele>
        <time>2021-11-22T08:17:45.365Z</time>
      </trkpt>
      <trkpt lat="47.565115" lon="7.827488">
        <ele>300.278339</ele>
        <time>2021-11-22T08:17:51.971Z</time>
      </trkpt>
      <trkpt lat="47.565054" lon="7.827194">
        <ele>300.532767</ele>
        <time>2021-11-22T08:17:55.787Z</time>
      </trkpt>
      <trkpt lat="47.564863" lon="7.826667">
        <ele>301.027594</ele>
        <time>2021-11-22T08:18:04.844Z</time>
      </trkpt>
      <trkpt lat="47.564836" lon="7.826621">
        <ele>301.078026</ele>
        <time>2021-11-22T08:18:05.859Z</time>
      </trkpt>
      <trkpt lat="47.564805" lon="7.826569">
        <ele>301.135422</ele>
        <time>2021-11-22T08:18:07.063Z</time>
      </trkpt>
      <trkpt lat="47.564687" lon="7.826418">
        <ele>301.402145</ele>
        <time>2021-11-22T08:18:11.140Z</time>
      </trkpt>
      <trkpt lat="47.564687" lon="7.826418">
        <ele>301.402145</ele>
        <time>2021-11-22T08:18:11.228Z</time>
      </trkpt>
      <trkpt lat="47.564687" lon="7.826418">
        <ele>301.402145</ele>
        <time>2021-11-22T08:18:11.235Z</time>
      </trkpt>
      <trkpt lat="47.564761" lon="7.826264">
        <ele>301.855241</ele>
        <time>2021-11-22T08:18:15.660Z</time>
      </trkpt>
      <trkpt lat="47.564775" lon="7.826180">
        <ele>302.062604</ele>
        <time>2021-11-22T08:18:17.492Z</time>
      </trkpt>
      <trkpt lat="47.564761" lon="7.826044">
        <ele>302.392310</ele>
        <time>2021-11-22T08:18:20.511Z</time>
      </trkpt>
      <trkpt lat="47.564726" lon="7.825870">
        <ele>302.827450</ele>
        <time>2021-11-22T08:18:24.992Z</time>
      </trkpt>
      <trkpt lat="47.564632" lon="7.824882">
        <ele>305.218698</ele>
        <time>2021-11-22T08:18:49.215Z</time>
      </trkpt>
      <trkpt lat="47.564621" lon="7.824630">
        <ele>305.823901</ele>
        <time>2021-11-22T08:18:55.751Z</time>
      </trkpt>
      <trkpt lat="47.564603" lon="7.824196">
        <ele>306.865983</ele>
        <time>2021-11-22T08:19:06.443Z</time>
      </trkpt>
      <trkpt lat="47.564596" lon="7.823971">
        <ele>307.405788</ele>
        <time>2021-11-22T08:19:11.666Z</time>
      </trkpt>
      <trkpt lat="47.564551" lon="7.823574">
        <ele>307.966777</ele>
        <time>2021-11-22T08:19:21.900Z</time>
      </trkpt>
      <trkpt lat="47.564531" lon="7.823338">
        <ele>308.205868</ele>
        <time>2021-11-22T08:19:27.270Z</time>
      </trkpt>
      <trkpt lat="47.564338" lon="7.820810">
        <ele>310.033191</ele>
        <time>2021-11-22T08:20:08.059Z</time>
      </trkpt>
      <trkpt lat="47.564264" lon="7.820324">
        <ele>309.639427</ele>
        <time>2021-11-22T08:20:13.590Z</time>
      </trkpt>
      <trkpt lat="47.564207" lon="7.820139">
        <ele>309.478692</ele>
        <time>2021-11-22T08:20:15.793Z</time>
      </trkpt>
      <trkpt lat="47.564083" lon="7.819689">
        <ele>309.094524</ele>
        <time>2021-11-22T08:20:21.074Z</time>
      </trkpt>
      <trkpt lat="47.563846" lon="7.818890">
        <ele>308.404716</ele>
        <time>2021-11-22T08:20:30.518Z</time>
      </trkpt>
      <trkpt lat="47.563292" lon="7.817642">
        <ele>307.172703</ele>
        <time>2021-11-22T08:20:46.675Z</time>
      </trkpt>
      <trkpt lat="47.562585" lon="7.816208">
        <ele>306.122070</ele>
        <time>2021-11-22T08:21:07.869Z</time>
      </trkpt>
      <trkpt lat="47.562165" lon="7.815429">
        <ele>306.335050</ele>
        <time>2021-11-22T08:21:22.160Z</time>
      </trkpt>
      <trkpt lat="47.561915" lon="7.815075">
        <ele>306.444502</ele>
        <time>2021-11-22T08:21:30.148Z</time>
      </trkpt>
      <trkpt lat="47.561796" lon="7.814938">
        <ele>306.492201</ele>
        <time>2021-11-22T08:21:33.763Z</time>
      </trkpt>
      <trkpt lat="47.561285" lon="7.814314">
        <ele>306.730297</ele>
        <time>2021-11-22T08:21:49.834Z</time>
      </trkpt>
      <trkpt lat="47.561222" lon="7.814241">
        <ele>306.763047</ele>
        <time>2021-11-22T08:21:51.961Z</time>
      </trkpt>
      <trkpt lat="47.560566" lon="7.813439">
        <ele>307.111306</ele>
        <time>2021-11-22T08:22:12.544Z</time>
      </trkpt>
      <trkpt lat="47.560089" lon="7.812856">
        <ele>307.198503</ele>
        <time>2021-11-22T08:22:23.969Z</time>
      </trkpt>
      <trkpt lat="47.559685" lon="7.812338">
        <ele>305.852130</ele>
        <time>2021-11-22T08:22:32.883Z</time>
      </trkpt>
      <trkpt lat="47.559556" lon="7.812039">
        <ele>305.248582</ele>
        <time>2021-11-22T08:22:36.681Z</time>
      </trkpt>
      <trkpt lat="47.559352" lon="7.811707">
        <ele>304.484956</ele>
        <time>2021-11-22T08:22:41.328Z</time>
      </trkpt>
      <trkpt lat="47.559226" lon="7.811439">
        <ele>303.929460</ele>
        <time>2021-11-22T08:23:03.828Z</time>
      </trkpt>
      <trkpt lat="47.559209" lon="7.811347">
        <ele>303.767236</ele>
        <time>2021-11-22T08:23:10.144Z</time>
      </trkpt>
      <trkpt lat="47.559195" lon="7.811248">
        <ele>303.595209</ele>
        <time>2021-11-22T08:23:16.464Z</time>
      </trkpt>
      <trkpt lat="47.559245" lon="7.811179">
        <ele>303.423020</ele>
        <time>2021-11-22T08:23:17.166Z</time>
      </trkpt>
      <trkpt lat="47.559268" lon="7.811124">
        <ele>303.312978</ele>
        <time>2021-11-22T08:23:17.601Z</time>
      </trkpt>
      <trkpt lat="47.559276" lon="7.811047">
        <ele>303.180482</ele>
        <time>2021-11-22T08:23:18.127Z</time>
      </trkpt>
      <trkpt lat="47.559247" lon="7.810496">
        <ele>301.803607</ele>
        <time>2021-11-22T08:23:21.696Z</time>
      </trkpt>
      <trkpt lat="47.559164" lon="7.809586">
        <ele>299.040148</ele>
        <time>2021-11-22T08:23:27.435Z</time>
      </trkpt>
      <trkpt lat="47.559156" lon="7.809491">
        <ele>298.752037</ele>
        <time>2021-11-22T08:23:28.067Z</time>
      </trkpt>
      <trkpt lat="47.559157" lon="7.809330">
        <ele>298.267502</ele>
        <time>2021-11-22T08:23:29.131Z</time>
      </trkpt>
      <trkpt lat="47.559196" lon="7.809136">
        <ele>297.658322</ele>
        <time>2021-11-22T08:23:30.388Z</time>
      </trkpt>
      <trkpt lat="47.559398" lon="7.808498">
        <ele>295.537504</ele>
        <time>2021-11-22T08:23:35.157Z</time>
      </trkpt>
      <trkpt lat="47.559543" lon="7.807995">
        <ele>293.980527</ele>
        <time>2021-11-22T08:23:38.806Z</time>
      </trkpt>
      <trkpt lat="47.559784" lon="7.806908">
        <ele>290.879665</ele>
        <time>2021-11-22T08:23:46.312Z</time>
      </trkpt>
      <trkpt lat="47.559871" lon="7.806594">
        <ele>289.959742</ele>
        <time>2021-11-22T08:23:48.675Z</time>
      </trkpt>
      <trkpt lat="47.559953" lon="7.806216">
        <ele>288.883677</ele>
        <time>2021-11-22T08:23:51.229Z</time>
      </trkpt>
      <trkpt lat="47.559988" lon="7.806036">
        <ele>288.376005</ele>
        <time>2021-11-22T08:23:52.464Z</time>
      </trkpt>
      <trkpt lat="47.560019" lon="7.805927">
        <ele>288.055436</ele>
        <time>2021-11-22T08:23:53.190Z</time>
      </trkpt>
      <trkpt lat="47.560083" lon="7.805827">
        <ele>287.681922</ele>
        <time>2021-11-22T08:23:54.087Z</time>
      </trkpt>
      <trkpt lat="47.560351" lon="7.805494">
        <ele>286.149063</ele>
        <time>2021-11-22T08:23:57.502Z</time>
      </trkpt>
      <trkpt lat="47.560401" lon="7.805409">
        <ele>285.813000</ele>
        <time>2021-11-22T08:23:58.299Z</time>
      </trkpt>
      <trkpt lat="47.560439" lon="7.805345">
        <ele>285.558938</ele>
        <time>2021-11-22T08:23:58.881Z</time>
      </trkpt>
      <trkpt lat="47.560542" lon="7.805124">
        <ele>284.758470</ele>
        <time>2021-11-22T08:24:00.553Z</time>
      </trkpt>
      <trkpt lat="47.560682" lon="7.804798">
        <ele>283.606833</ele>
        <time>2021-11-22T08:24:03.119Z</time>
      </trkpt>
      <trkpt lat="47.560742" lon="7.804662">
        <ele>283.122577</ele>
        <time>2021-11-22T08:24:04.105Z</time>
      </trkpt>
      <trkpt lat="47.560877" lon="7.804360">
        <ele>282.042961</ele>
        <time>2021-11-22T08:24:06.494Z</time>
      </trkpt>
      <trkpt lat="47.560963" lon="7.804183">
        <ele>281.392939</ele>
        <time>2021-11-22T08:24:07.852Z</time>
      </trkpt>
      <trkpt lat="47.561088" lon="7.803899">
        <ele>280.382413</ele>
        <time>2021-11-22T08:24:10.096Z</time>
      </trkpt>
      <trkpt lat="47.561332" lon="7.803393">
        <ele>279.079360</ele>
        <time>2021-11-22T08:24:14.099Z</time>
      </trkpt>
      <trkpt lat="47.561376" lon="7.803302">
        <ele>278.914028</ele>
        <time>2021-11-22T08:24:14.830Z</time>
      </trkpt>
      <trkpt lat="47.561404" lon="7.803234">
        <ele>278.796383</ele>
        <time>2021-11-22T08:24:15.369Z</time>
      </trkpt>
      <trkpt lat="47.561371" lon="7.803208">
        <ele>278.714588</ele>
        <time>2021-11-22T08:24:15.798Z</time>
      </trkpt>
      <trkpt lat="47.561177" lon="7.803075">
        <ele>278.246773</ele>
        <time>2021-11-22T08:24:17.980Z</time>
      </trkpt>
      <trkpt lat="47.560680" lon="7.802756">
        <ele>277.061414</ele>
        <time>2021-11-22T08:24:24.003Z</time>
      </trkpt>
      <trkpt lat="47.560399" lon="7.802597">
        <ele>276.403121</ele>
        <time>2021-11-22T08:24:27.683Z</time>
      </trkpt>
      <trkpt lat="47.559650" lon="7.802247">
        <ele>275.449191</ele>
        <time>2021-11-22T08:24:37.978Z</time>
      </trkpt>
      <trkpt lat="47.559570" lon="7.802197">
        <ele>275.404614</ele>
        <time>2021-11-22T08:24:39.088Z</time>
      </trkpt>
      <trkpt lat="47.559348" lon="7.802101">
        <ele>275.285883</ele>
        <time>2021-11-22T08:24:42.094Z</time>
      </trkpt>
      <trkpt lat="47.559183" lon="7.802020">
        <ele>275.196643</ele>
        <time>2021-11-22T08:24:44.413Z</time>
      </trkpt>
      <trkpt lat="47.559117" lon="7.801986">
        <ele>275.160768</ele>
        <time>2021-11-22T08:24:45.368Z</time>
      </trkpt>
      <trkpt lat="47.558842" lon="7.801839">
        <ele>275.010675</ele>
        <time>2021-11-22T08:24:49.232Z</time>
      </trkpt>
      <trkpt lat="47.558522" lon="7.801649">
        <ele>274.833686</ele>
        <time>2021-11-22T08:24:53.915Z</time>
      </trkpt>
      <trkpt lat="47.558430" lon="7.801574">
        <ele>274.779776</ele>
        <time>2021-11-22T08:24:55.426Z</time>
      </trkpt>
      <trkpt lat="47.558362" lon="7.801501">
        <ele>274.762335</ele>
        <time>2021-11-22T08:24:56.453Z</time>
      </trkpt>
      <trkpt lat="47.557814" lon="7.800795">
        <ele>274.796680</ele>
        <time>2021-11-22T08:25:06.672Z</time>
      </trkpt>
      <trkpt lat="47.557657" lon="7.800590">
        <ele>274.806577</ele>
        <time>2021-11-22T08:25:09.894Z</time>
      </trkpt>
      <trkpt lat="47.557599" lon="7.800515">
        <ele>274.810218</ele>
        <time>2021-11-22T08:25:10.962Z</time>
      </trkpt>
      <trkpt lat="47.556439" lon="7.798992">
        <ele>275.136235</ele>
        <time>2021-11-22T08:25:36.670Z</time>
      </trkpt>
      <trkpt lat="47.556381" lon="7.798915">
        <ele>275.164234</ele>
        <time>2021-11-22T08:25:38.082Z</time>
      </trkpt>
      <trkpt lat="47.556336" lon="7.798855">
        <ele>275.185999</ele>
        <time>2021-11-22T08:25:39.178Z</time>
      </trkpt>
      <trkpt lat="47.556240" lon="7.798728">
        <ele>275.232269</ele>
        <time>2021-11-22T08:25:41.490Z</time>
      </trkpt>
      <trkpt lat="47.556112" lon="7.798538">
        <ele>275.297409</ele>
        <time>2021-11-22T08:25:44.810Z</time>
      </trkpt>
      <trkpt lat="47.555842" lon="7.798140">
        <ele>275.434338</ele>
        <time>2021-11-22T08:25:50.970Z</time>
      </trkpt>
      <trkpt lat="47.555489" lon="7.797497">
        <ele>275.256019</ele>
        <time>2021-11-22T08:25:58.564Z</time>
      </trkpt>
      <trkpt lat="47.555293" lon="7.797049">
        <ele>275.043112</ele>
        <time>2021-11-22T08:26:03.120Z</time>
      </trkpt>
      <trkpt lat="47.555263" lon="7.796971">
        <ele>275.007311</ele>
        <time>2021-11-22T08:26:03.950Z</time>
      </trkpt>
      <trkpt lat="47.555486" lon="7.796849">
        <ele>274.866849</ele>
        <time>2021-11-22T08:26:08.166Z</time>
      </trkpt>
      <trkpt lat="47.555544" lon="7.796747">
        <ele>274.813661</ele>
        <time>2021-11-22T08:26:09.783Z</time>
      </trkpt>
      <trkpt lat="47.555529" lon="7.796462">
        <ele>274.699665</ele>
        <time>2021-11-22T08:26:12.229Z</time>
      </trkpt>
      <trkpt lat="47.555492" lon="7.796158">
        <ele>274.576482</ele>
        <time>2021-11-22T08:26:14.937Z</time>
      </trkpt>
      <trkpt lat="47.555467" lon="7.795984">
        <ele>274.505540</ele>
        <time>2021-11-22T08:26:16.380Z</time>
      </trkpt>
      <trkpt lat="47.555454" lon="7.795902">
        <ele>274.471951</ele>
        <time>2021-11-22T08:26:17.419Z</time>
      </trkpt>
      <trkpt lat="47.555444" lon="7.795749">
        <ele>274.404176</ele>
        <time>2021-11-22T08:26:19.280Z</time>
      </trkpt>
      <trkpt lat="47.555456" lon="7.795684">
        <ele>274.367882</ele>
        <time>2021-11-22T08:26:20.105Z</time>
      </trkpt>
      <trkpt lat="47.555451" lon="7.795635">
        <ele>274.341192</ele>
        <time>2021-11-22T08:26:20.750Z</time>
      </trkpt>
      <trkpt lat="47.555438" lon="7.795535">
        <ele>274.286344</ele>
        <time>2021-11-22T08:26:21.901Z</time>
      </trkpt>
      <trkpt lat="47.555436" lon="7.795522">
        <ele>274.279163</ele>
        <time>2021-11-22T08:26:22.068Z</time>
      </trkpt>
      <trkpt lat="47.555432" lon="7.795493">
        <ele>274.263221</ele>
        <time>2021-11-22T08:26:22.396Z</time>
      </trkpt>
      <trkpt lat="47.555308" lon="7.794498">
        <ele>273.718277</ele>
        <time>2021-11-22T08:26:34.327Z</time>
      </trkpt>
      <trkpt lat="47.555288" lon="7.794496">
        <ele>273.702280</ele>
        <time>2021-11-22T08:26:34.710Z</time>
      </trkpt>
      <trkpt lat="47.555288" lon="7.794318">
        <ele>273.606413</ele>
        <time>2021-11-22T08:26:38.909Z</time>
      </trkpt>
      <trkpt lat="47.555282" lon="7.794033">
        <ele>273.452843</ele>
        <time>2021-11-22T08:26:45.476Z</time>
      </trkpt>
      <trkpt lat="47.555281" lon="7.793955">
        <ele>273.410826</ele>
        <time>2021-11-22T08:26:47.318Z</time>
      </trkpt>
      <trkpt lat="47.555274" lon="7.793423">
        <ele>273.124248</ele>
        <time>2021-11-22T08:26:59.956Z</time>
      </trkpt>
      <trkpt lat="47.555277" lon="7.793131">
        <ele>272.924843</ele>
        <time>2021-11-22T08:27:07.004Z</time>
      </trkpt>
      <trkpt lat="47.555237" lon="7.792734">
        <ele>272.368589</ele>
        <time>2021-11-22T08:27:16.255Z</time>
      </trkpt>
      <trkpt lat="47.555127" lon="7.792307">
        <ele>271.735214</ele>
        <time>2021-11-22T08:27:26.234Z</time>
      </trkpt>
      <trkpt lat="47.555085" lon="7.792163">
        <ele>271.517822</ele>
        <time>2021-11-22T08:27:29.787Z</time>
      </trkpt>
      <trkpt lat="47.555027" lon="7.791948">
        <ele>271.196956</ele>
        <time>2021-11-22T08:27:34.588Z</time>
      </trkpt>
      <trkpt lat="47.554911" lon="7.791459">
        <ele>270.478660</ele>
        <time>2021-11-22T08:27:45.381Z</time>
      </trkpt>
      <trkpt lat="47.554756" lon="7.790897">
        <ele>269.637319</ele>
        <time>2021-11-22T08:27:57.680Z</time>
      </trkpt>
      <trkpt lat="47.554788" lon="7.790844">
        <ele>269.538769</ele>
        <time>2021-11-22T08:27:59.049Z</time>
      </trkpt>
      <trkpt lat="47.554858" lon="7.790696">
        <ele>269.292120</ele>
        <time>2021-11-22T08:28:02.844Z</time>
      </trkpt>
      <trkpt lat="47.554865" lon="7.790678">
        <ele>269.272362</ele>
        <time>2021-11-22T08:28:03.202Z</time>
      </trkpt>
      <trkpt lat="47.554999" lon="7.790090">
        <ele>268.682097</ele>
        <time>2021-11-22T08:28:15.464Z</time>
      </trkpt>
      <trkpt lat="47.555031" lon="7.789894">
        <ele>268.490307</ele>
        <time>2021-11-22T08:28:19.368Z</time>
      </trkpt>
      <trkpt lat="47.555052" lon="7.789771">
        <ele>268.369637</ele>
        <time>2021-11-22T08:28:21.913Z</time>
      </trkpt>
      <trkpt lat="47.555062" lon="7.789726">
        <ele>268.324578</ele>
        <time>2021-11-22T08:28:22.908Z</time>
      </trkpt>
      <trkpt lat="47.555085" lon="7.789685">
        <ele>268.273871</ele>
        <time>2021-11-22T08:28:24.013Z</time>
      </trkpt>
      <trkpt lat="47.555936" lon="7.788828">
        <ele>266.823823</ele>
        <time>2021-11-22T08:28:58.729Z</time>
      </trkpt>
      <trkpt lat="47.556069" lon="7.788614">
        <ele>267.282305</ele>
        <time>2021-11-22T08:29:03.090Z</time>
      </trkpt>
      <trkpt lat="47.556111" lon="7.788537">
        <ele>267.504915</ele>
        <time>2021-11-22T08:29:04.627Z</time>
      </trkpt>
      <trkpt lat="47.556137" lon="7.788488">
        <ele>267.645065</ele>
        <time>2021-11-22T08:29:05.795Z</time>
      </trkpt>
      <trkpt lat="47.556249" lon="7.788270">
        <ele>268.261102</ele>
        <time>2021-11-22T08:29:10.784Z</time>
      </trkpt>
      <trkpt lat="47.556357" lon="7.788058">
        <ele>268.858336</ele>
        <time>2021-11-22T08:29:15.761Z</time>
      </trkpt>
      <trkpt lat="47.556539" lon="7.787710">
        <ele>269.848247</ele>
        <time>2021-11-22T08:29:24.413Z</time>
      </trkpt>
      <trkpt lat="47.556658" lon="7.787468">
        <ele>270.521492</ele>
        <time>2021-11-22T08:29:30.909Z</time>
      </trkpt>
      <trkpt lat="47.556783" lon="7.787207">
        <ele>271.241091</ele>
        <time>2021-11-22T08:29:37.748Z</time>
      </trkpt>
      <trkpt lat="47.556917" lon="7.786943">
        <ele>271.983828</ele>
        <time>2021-11-22T08:29:45.256Z</time>
      </trkpt>
      <trkpt lat="47.557019" lon="7.786803">
        <ele>272.447048</ele>
        <time>2021-11-22T08:29:50.009Z</time>
      </trkpt>
      <trkpt lat="47.557118" lon="7.786638">
        <ele>272.926905</ele>
        <time>2021-11-22T08:29:55.312Z</time>
      </trkpt>
      <trkpt lat="47.557180" lon="7.786638">
        <ele>273.115009</ele>
        <time>2021-11-22T08:29:57.358Z</time>
      </trkpt>
      <trkpt lat="47.557490" lon="7.786586">
        <ele>274.061536</ele>
        <time>2021-11-22T08:30:08.309Z</time>
      </trkpt>
      <trkpt lat="47.557562" lon="7.786575">
        <ele>274.281137</ele>
        <time>2021-11-22T08:30:10.572Z</time>
      </trkpt>
      <trkpt lat="47.557711" lon="7.786536">
        <ele>274.740192</ele>
        <time>2021-11-22T08:30:15.364Z</time>
      </trkpt>
      <trkpt lat="47.557823" lon="7.786486">
        <ele>275.095078</ele>
        <time>2021-11-22T08:30:19.014Z</time>
      </trkpt>
      <trkpt lat="47.557901" lon="7.786427">
        <ele>275.360774</ele>
        <time>2021-11-22T08:30:21.405Z</time>
      </trkpt>
      <trkpt lat="47.557921" lon="7.786413">
        <ele>275.427882</ele>
        <time>2021-11-22T08:30:22.025Z</time>
      </trkpt>
      <trkpt lat="47.558006" lon="7.786349">
        <ele>275.717148</ele>
        <time>2021-11-22T08:30:24.595Z</time>
      </trkpt>
      <trkpt lat="47.558071" lon="7.786282">
        <ele>275.957373</ele>
        <time>2021-11-22T08:30:26.684Z</time>
      </trkpt>
      <trkpt lat="47.558166" lon="7.786166">
        <ele>276.330843</ele>
        <time>2021-11-22T08:30:29.749Z</time>
      </trkpt>
      <trkpt lat="47.558367" lon="7.785913">
        <ele>277.130971</ele>
        <time>2021-11-22T08:30:35.726Z</time>
      </trkpt>
      <trkpt lat="47.558577" lon="7.785598">
        <ele>278.037542</ele>
        <time>2021-11-22T08:30:41.476Z</time>
      </trkpt>
      <trkpt lat="47.558660" lon="7.785434">
        <ele>278.263558</ele>
        <time>2021-11-22T08:30:43.981Z</time>
      </trkpt>
      <trkpt lat="47.558747" lon="7.785215">
        <ele>278.367546</ele>
        <time>2021-11-22T08:30:46.982Z</time>
      </trkpt>
      <trkpt lat="47.558782" lon="7.785128">
        <ele>278.408992</ele>
        <time>2021-11-22T08:30:48.189Z</time>
      </trkpt>
      <trkpt lat="47.558822" lon="7.785030">
        <ele>278.455858</ele>
        <time>2021-11-22T08:30:49.530Z</time>
      </trkpt>
      <trkpt lat="47.558920" lon="7.784817">
        <ele>278.561346</ele>
        <time>2021-11-22T08:30:52.507Z</time>
      </trkpt>
      <trkpt lat="47.558986" lon="7.784674">
        <ele>278.632237</ele>
        <time>2021-11-22T08:30:54.481Z</time>
      </trkpt>
      <trkpt lat="47.559008" lon="7.784639">
        <ele>278.651809</ele>
        <time>2021-11-22T08:30:55.021Z</time>
      </trkpt>
      <trkpt lat="47.559117" lon="7.784473">
        <ele>278.746584</ele>
        <time>2021-11-22T08:30:57.650Z</time>
      </trkpt>
      <trkpt lat="47.559229" lon="7.784376">
        <ele>278.825245</ele>
        <time>2021-11-22T08:30:59.852Z</time>
      </trkpt>
      <trkpt lat="47.559319" lon="7.784326">
        <ele>278.883526</ele>
        <time>2021-11-22T08:31:01.469Z</time>
      </trkpt>
      <trkpt lat="47.559415" lon="7.784281">
        <ele>278.944580</ele>
        <time>2021-11-22T08:31:03.185Z</time>
      </trkpt>
      <trkpt lat="47.559876" lon="7.784127">
        <ele>279.231128</ele>
        <time>2021-11-22T08:31:11.105Z</time>
      </trkpt>
      <trkpt lat="47.560427" lon="7.783951">
        <ele>279.459814</ele>
        <time>2021-11-22T08:31:20.073Z</time>
      </trkpt>
      <trkpt lat="47.560877" lon="7.783815">
        <ele>279.620383</ele>
        <time>2021-11-22T08:31:27.180Z</time>
      </trkpt>
      <trkpt lat="47.561041" lon="7.783716">
        <ele>279.682296</ele>
        <time>2021-11-22T08:31:29.860Z</time>
      </trkpt>
      <trkpt lat="47.561312" lon="7.783440">
        <ele>279.797261</ele>
        <time>2021-11-22T08:31:35.162Z</time>
      </trkpt>
      <trkpt lat="47.561406" lon="7.783302">
        <ele>279.843522</ele>
        <time>2021-11-22T08:31:37.357Z</time>
      </trkpt>
      <trkpt lat="47.561610" lon="7.782977">
        <ele>279.965850</ele>
        <time>2021-11-22T08:31:42.401Z</time>
      </trkpt>
      <trkpt lat="47.561822" lon="7.782640">
        <ele>280.215400</ele>
        <time>2021-11-22T08:31:47.907Z</time>
      </trkpt>
      <trkpt lat="47.561943" lon="7.782422">
        <ele>280.368289</ele>
        <time>2021-11-22T08:31:51.374Z</time>
      </trkpt>
      <trkpt lat="47.562099" lon="7.782166">
        <ele>280.555121</ele>
        <time>2021-11-22T08:31:55.576Z</time>
      </trkpt>
      <trkpt lat="47.562657" lon="7.781311">
        <ele>281.199378</ele>
        <time>2021-11-22T08:32:09.903Z</time>
      </trkpt>
      <trkpt lat="47.562775" lon="7.781130">
        <ele>281.335694</ele>
        <time>2021-11-22T08:32:13.049Z</time>
      </trkpt>
      <trkpt lat="47.563211" lon="7.780461">
        <ele>282.160784</ele>
        <time>2021-11-22T08:32:25.670Z</time>
      </trkpt>
      <trkpt lat="47.563299" lon="7.780330">
        <ele>282.330677</ele>
        <time>2021-11-22T08:32:28.195Z</time>
      </trkpt>
      <trkpt lat="47.563386" lon="7.780199">
        <ele>282.499611</ele>
        <time>2021-11-22T08:32:30.837Z</time>
      </trkpt>
      <trkpt lat="47.563492" lon="7.780014">
        <ele>282.722673</ele>
        <time>2021-11-22T08:32:34.351Z</time>
      </trkpt>
      <trkpt lat="47.563533" lon="7.779944">
        <ele>282.807866</ele>
        <time>2021-11-22T08:32:35.626Z</time>
      </trkpt>
      <trkpt lat="47.563652" lon="7.779747">
        <ele>283.050878</ele>
        <time>2021-11-22T08:32:39.496Z</time>
      </trkpt>
      <trkpt lat="47.563793" lon="7.779659">
        <ele>283.259267</ele>
        <time>2021-11-22T08:32:43.591Z</time>
      </trkpt>
      <trkpt lat="47.563852" lon="7.779621">
        <ele>283.346890</ele>
        <time>2021-11-22T08:32:45.250Z</time>
      </trkpt>
      <trkpt lat="47.564045" lon="7.779513">
        <ele>283.627886</ele>
        <time>2021-11-22T08:32:50.823Z</time>
      </trkpt>
      <trkpt lat="47.564224" lon="7.779415">
        <ele>283.863428</ele>
        <time>2021-11-22T08:32:55.613Z</time>
      </trkpt>
      <trkpt lat="47.564392" lon="7.779326">
        <ele>284.006948</ele>
        <time>2021-11-22T08:33:00.053Z</time>
      </trkpt>
      <trkpt lat="47.564511" lon="7.779262">
        <ele>284.108784</ele>
        <time>2021-11-22T08:33:03.017Z</time>
      </trkpt>
      <trkpt lat="47.564843" lon="7.779087">
        <ele>284.392247</ele>
        <time>2021-11-22T08:33:11.230Z</time>
      </trkpt>
      <trkpt lat="47.565063" lon="7.778945">
        <ele>284.585279</ele>
        <time>2021-11-22T08:33:16.873Z</time>
      </trkpt>
      <trkpt lat="47.565130" lon="7.778874">
        <ele>284.651537</ele>
        <time>2021-11-22T08:33:18.899Z</time>
      </trkpt>
      <trkpt lat="47.565373" lon="7.778616">
        <ele>284.892001</ele>
        <time>2021-11-22T08:33:25.968Z</time>
      </trkpt>
      <trkpt lat="47.565449" lon="7.778535">
        <ele>284.967305</ele>
        <time>2021-11-22T08:33:28.185Z</time>
      </trkpt>
      <trkpt lat="47.565525" lon="7.778440">
        <ele>285.047285</ele>
        <time>2021-11-22T08:33:30.378Z</time>
      </trkpt>
      <trkpt lat="47.565867" lon="7.778022">
        <ele>285.245553</ele>
        <time>2021-11-22T08:33:39.962Z</time>
      </trkpt>
      <trkpt lat="47.566303" lon="7.777491">
        <ele>285.141149</ele>
        <time>2021-11-22T08:33:51.573Z</time>
      </trkpt>
      <trkpt lat="47.566322" lon="7.777461">
        <ele>285.136012</ele>
        <time>2021-11-22T08:33:52.083Z</time>
      </trkpt>
      <trkpt lat="47.566608" lon="7.777148">
        <ele>285.070238</ele>
        <time>2021-11-22T08:33:58.846Z</time>
      </trkpt>
      <trkpt lat="47.566856" lon="7.776877">
        <ele>285.013234</ele>
        <time>2021-11-22T08:34:04.486Z</time>
      </trkpt>
      <trkpt lat="47.566976" lon="7.776804">
        <ele>284.989235</ele>
        <time>2021-11-22T08:34:06.870Z</time>
      </trkpt>
      <trkpt lat="47.567059" lon="7.776784">
        <ele>284.973678</ele>
        <time>2021-11-22T08:34:08.383Z</time>
      </trkpt>
      <trkpt lat="47.567068" lon="7.776814">
        <ele>284.969580</ele>
        <time>2021-11-22T08:34:08.808Z</time>
      </trkpt>
      <trkpt lat="47.567139" lon="7.776888">
        <ele>284.953522</ele>
        <time>2021-11-22T08:34:10.401Z</time>
      </trkpt>
      <trkpt lat="47.567219" lon="7.776864">
        <ele>284.939320</ele>
        <time>2021-11-22T08:34:11.901Z</time>
      </trkpt>
      <trkpt lat="47.567251" lon="7.776815">
        <ele>284.932732</ele>
        <time>2021-11-22T08:34:12.745Z</time>
      </trkpt>
      <trkpt lat="47.567375" lon="7.776915">
        <ele>284.912519</ele>
        <time>2021-11-22T08:34:15.333Z</time>
      </trkpt>
      <trkpt lat="47.567527" lon="7.777009">
        <ele>284.888937</ele>
        <time>2021-11-22T08:34:18.410Z</time>
      </trkpt>
      <trkpt lat="47.567619" lon="7.777058">
        <ele>284.874939</ele>
        <time>2021-11-22T08:34:20.216Z</time>
      </trkpt>
      <trkpt lat="47.568007" lon="7.777265">
        <ele>284.815895</ele>
        <time>2021-11-22T08:34:28.154Z</time>
      </trkpt>
      <trkpt lat="47.568609" lon="7.777805">
        <ele>284.715142</ele>
        <time>2021-11-22T08:34:42.581Z</time>
      </trkpt>
      <trkpt lat="47.568698" lon="7.777923">
        <ele>284.698044</ele>
        <time>2021-11-22T08:34:45.115Z</time>
      </trkpt>
      <trkpt lat="47.568776" lon="7.778000">
        <ele>284.685497</ele>
        <time>2021-11-22T08:34:47.050Z</time>
      </trkpt>
      <trkpt lat="47.568912" lon="7.778080">
        <ele>284.741007</ele>
        <time>2021-11-22T08:34:50.104Z</time>
      </trkpt>
      <trkpt lat="47.569010" lon="7.778085">
        <ele>284.778207</ele>
        <time>2021-11-22T08:34:52.201Z</time>
      </trkpt>
      <trkpt lat="47.569097" lon="7.778076">
        <ele>284.811293</ele>
        <time>2021-11-22T08:34:53.986Z</time>
      </trkpt>
      <trkpt lat="47.569206" lon="7.778065">
        <ele>284.852740</ele>
        <time>2021-11-22T08:34:56.293Z</time>
      </trkpt>
      <trkpt lat="47.569336" lon="7.778029">
        <ele>284.902912</ele>
        <time>2021-11-22T08:34:59.154Z</time>
      </trkpt>
      <trkpt lat="47.569597" lon="7.777946">
        <ele>285.004182</ele>
        <time>2021-11-22T08:35:04.868Z</time>
      </trkpt>
      <trkpt lat="47.569718" lon="7.777905">
        <ele>285.051271</ele>
        <time>2021-11-22T08:35:07.625Z</time>
      </trkpt>
      <trkpt lat="47.570279" lon="7.777814">
        <ele>285.265370</ele>
        <time>2021-11-22T08:35:20.299Z</time>
      </trkpt>
      <trkpt lat="47.570668" lon="7.777751">
        <ele>285.418647</ele>
        <time>2021-11-22T08:35:29.124Z</time>
      </trkpt>
      <trkpt lat="47.571191" lon="7.777708">
        <ele>285.637928</ele>
        <time>2021-11-22T08:35:40.511Z</time>
      </trkpt>
      <trkpt lat="47.571486" lon="7.777685">
        <ele>285.761595</ele>
        <time>2021-11-22T08:35:46.828Z</time>
      </trkpt>
      <trkpt lat="47.571758" lon="7.777656">
        <ele>285.875758</ele>
        <time>2021-11-22T08:35:52.580Z</time>
      </trkpt>
      <trkpt lat="47.572400" lon="7.777595">
        <ele>286.182072</ele>
        <time>2021-11-22T08:36:06.407Z</time>
      </trkpt>
      <trkpt lat="47.572580" lon="7.777577">
        <ele>286.369914</ele>
        <time>2021-11-22T08:36:10.573Z</time>
      </trkpt>
      <trkpt lat="47.572764" lon="7.777559">
        <ele>286.561912</ele>
        <time>2021-11-22T08:36:15.023Z</time>
      </trkpt>
      <trkpt lat="47.573335" lon="7.777667">
        <ele>287.161259</ele>
        <time>2021-11-22T08:36:29.358Z</time>
      </trkpt>
      <trkpt lat="47.573995" lon="7.777779">
        <ele>287.852940</ele>
        <time>2021-11-22T08:36:45.384Z</time>
      </trkpt>
      <trkpt lat="47.574028" lon="7.777785">
        <ele>287.887557</ele>
        <time>2021-11-22T08:36:46.705Z</time>
      </trkpt>
      <trkpt lat="47.574584" lon="7.777808">
        <ele>288.798138</ele>
        <time>2021-11-22T08:37:00.892Z</time>
      </trkpt>
      <trkpt lat="47.574435" lon="7.776611">
        <ele>290.251314</ele>
        <time>2021-11-22T08:37:22.715Z</time>
      </trkpt>
      <trkpt lat="47.574482" lon="7.776565">
        <ele>290.350982</ele>
        <time>2021-11-22T08:37:24.843Z</time>
      </trkpt>
      <trkpt lat="47.574818" lon="7.774795">
        <ele>294.806272</ele>
        <time>2021-11-22T08:38:00.939Z</time>
      </trkpt>
      <trkpt lat="47.575085" lon="7.775492">
        <ele>297.341488</ele>
        <time>2021-11-22T08:38:20.681Z</time>
      </trkpt>
      <trkpt lat="47.575384" lon="7.776579">
        <ele>302.760231</ele>
        <time>2021-11-22T08:38:55.233Z</time>
      </trkpt>
      <trkpt lat="47.575677" lon="7.776966">
        <ele>306.771335</ele>
        <time>2021-11-22T08:39:16.050Z</time>
      </trkpt>
      <trkpt lat="47.575870" lon="7.777242">
        <ele>309.512311</ele>
        <time>2021-11-22T08:39:32.190Z</time>
      </trkpt>
      <trkpt lat="47.576055" lon="7.777591">
        <ele>312.572731</ele>
        <time>2021-11-22T08:39:50.308Z</time>
      </trkpt>
      <trkpt lat="47.576240" lon="7.777816">
        <ele>315.018590</ele>
        <time>2021-11-22T08:40:05.824Z</time>
      </trkpt>
      <trkpt lat="47.576421" lon="7.777969">
        <ele>317.148227</ele>
        <time>2021-11-22T08:40:17.703Z</time>
      </trkpt>
      <trkpt lat="47.576734" lon="7.778022">
        <ele>320.581948</ele>
        <time>2021-11-22T08:40:37.295Z</time>
      </trkpt>
      <trkpt lat="47.576906" lon="7.777966">
        <ele>322.543818</ele>
        <time>2021-11-22T08:40:49.295Z</time>
      </trkpt>
      <trkpt lat="47.577242" lon="7.777768">
        <ele>326.572013</ele>
        <time>2021-11-22T08:41:11.378Z</time>
      </trkpt>
      <trkpt lat="47.577490" lon="7.777516">
        <ele>329.921691</ele>
        <time>2021-11-22T08:41:28.737Z</time>
      </trkpt>
      <trkpt lat="47.577552" lon="7.777454">
        <ele>330.754884</ele>
        <time>2021-11-22T08:41:33.740Z</time>
      </trkpt>
      <trkpt lat="47.577731" lon="7.777170">
        <ele>333.675892</ele>
        <time>2021-11-22T08:41:48.306Z</time>
      </trkpt>
      <trkpt lat="47.577863" lon="7.776850">
        <ele>336.494792</ele>
        <time>2021-11-22T08:42:01.891Z</time>
      </trkpt>
      <trkpt lat="47.577968" lon="7.776427">
        <ele>339.774095</ele>
        <time>2021-11-22T08:42:20.797Z</time>
      </trkpt>
      <trkpt lat="47.578025" lon="7.775902">
        <ele>343.537141</ele>
        <time>2021-11-22T08:42:40.080Z</time>
      </trkpt>
      <trkpt lat="47.578071" lon="7.775576">
        <ele>345.894051</ele>
        <time>2021-11-22T08:42:52.603Z</time>
      </trkpt>
      <trkpt lat="47.578174" lon="7.775292">
        <ele>348.175855</ele>
        <time>2021-11-22T08:43:04.516Z</time>
      </trkpt>
      <trkpt lat="47.578507" lon="7.774879">
        <ele>352.730502</ele>
        <time>2021-11-22T08:43:29.489Z</time>
      </trkpt>
      <trkpt lat="47.578756" lon="7.774665">
        <ele>355.749839</ele>
        <time>2021-11-22T08:43:46.820Z</time>
      </trkpt>
      <trkpt lat="47.579806" lon="7.773857">
        <ele>368.142619</ele>
        <time>2021-11-22T08:44:54.272Z</time>
      </trkpt>
      <trkpt lat="47.580296" lon="7.773511">
        <ele>373.827270</ele>
        <time>2021-11-22T08:45:25.329Z</time>
      </trkpt>
      <trkpt lat="47.580807" lon="7.772819">
        <ele>381.031320</ele>
        <time>2021-11-22T08:46:03.126Z</time>
      </trkpt>
      <trkpt lat="47.580945" lon="7.772416">
        <ele>384.197520</ele>
        <time>2021-11-22T08:46:19.509Z</time>
      </trkpt>
      <trkpt lat="47.581317" lon="7.771666">
        <ele>390.719200</ele>
        <time>2021-11-22T08:46:55.193Z</time>
      </trkpt>
      <trkpt lat="47.581731" lon="7.770314">
        <ele>400.565165</ele>
        <time>2021-11-22T08:47:54.351Z</time>
      </trkpt>
      <trkpt lat="47.581897" lon="7.769954">
        <ele>403.366820</ele>
        <time>2021-11-22T08:48:09.298Z</time>
      </trkpt>
      <trkpt lat="47.581964" lon="7.769843">
        <ele>404.323794</ele>
        <time>2021-11-22T08:48:16.719Z</time>
      </trkpt>
      <trkpt lat="47.582176" lon="7.769652">
        <ele>406.686635</ele>
        <time>2021-11-22T08:48:29.382Z</time>
      </trkpt>
      <trkpt lat="47.582217" lon="7.769641">
        <ele>407.083487</ele>
        <time>2021-11-22T08:48:32.356Z</time>
      </trkpt>
      <trkpt lat="47.582269" lon="7.769630">
        <ele>407.583782</ele>
        <time>2021-11-22T08:48:36.640Z</time>
      </trkpt>
      <trkpt lat="47.583519" lon="7.769412">
        <ele>416.231274</ele>
        <time>2021-11-22T08:49:38.705Z</time>
      </trkpt>
      <trkpt lat="47.583812" lon="7.769288">
        <ele>417.925075</ele>
        <time>2021-11-22T08:49:51.150Z</time>
      </trkpt>
      <trkpt lat="47.585063" lon="7.768604">
        <ele>422.815181</ele>
        <time>2021-11-22T08:50:35.419Z</time>
      </trkpt>
      <trkpt lat="47.585613" lon="7.768145">
        <ele>423.988868</ele>
        <time>2021-11-22T08:50:52.704Z</time>
      </trkpt>
      <trkpt lat="47.586458" lon="7.767254">
        <ele>423.870833</ele>
        <time>2021-11-22T08:51:14.264Z</time>
      </trkpt>
      <trkpt lat="47.586575" lon="7.767173">
        <ele>423.631529</ele>
        <time>2021-11-22T08:51:16.958Z</time>
      </trkpt>
      <trkpt lat="47.586859" lon="7.766977">
        <ele>423.050979</ele>
        <time>2021-11-22T08:51:22.139Z</time>
      </trkpt>
      <trkpt lat="47.587726" lon="7.766058">
        <ele>420.090036</ele>
        <time>2021-11-22T08:51:37.436Z</time>
      </trkpt>
      <trkpt lat="47.588102" lon="7.765534">
        <ele>417.182148</ele>
        <time>2021-11-22T08:51:44.303Z</time>
      </trkpt>
      <trkpt lat="47.588240" lon="7.765423">
        <ele>416.297428</ele>
        <time>2021-11-22T08:51:46.389Z</time>
      </trkpt>
      <trkpt lat="47.588379" lon="7.765329">
        <ele>415.436507</ele>
        <time>2021-11-22T08:51:48.412Z</time>
      </trkpt>
      <trkpt lat="47.588523" lon="7.765242">
        <ele>414.560256</ele>
        <time>2021-11-22T08:51:50.426Z</time>
      </trkpt>
      <trkpt lat="47.589202" lon="7.765102">
        <ele>410.459861</ele>
        <time>2021-11-22T08:51:59.285Z</time>
      </trkpt>
      <trkpt lat="47.589614" lon="7.764808">
        <ele>407.041215</ele>
        <time>2021-11-22T08:52:05.092Z</time>
      </trkpt>
      <trkpt lat="47.591305" lon="7.762579">
        <ele>390.546229</ele>
        <time>2021-11-22T08:52:33.698Z</time>
      </trkpt>
      <trkpt lat="47.591687" lon="7.761670">
        <ele>385.435959</ele>
        <time>2021-11-22T08:52:42.981Z</time>
      </trkpt>
      <trkpt lat="47.591758" lon="7.761482">
        <ele>384.972765</ele>
        <time>2021-11-22T08:52:44.872Z</time>
      </trkpt>
      <trkpt lat="47.591982" lon="7.760877">
        <ele>383.888831</ele>
        <time>2021-11-22T08:52:51.291Z</time>
      </trkpt>
      <trkpt lat="47.592118" lon="7.760501">
        <ele>383.218749</ele>
        <time>2021-11-22T08:52:55.536Z</time>
      </trkpt>
      <trkpt lat="47.592317" lon="7.760056">
        <ele>382.380189</ele>
        <time>2021-11-22T08:53:01.309Z</time>
      </trkpt>
      <trkpt lat="47.592736" lon="7.760559">
        <ele>381.124758</ele>
        <time>2021-11-22T08:53:08.864Z</time>
      </trkpt>
      <trkpt lat="47.593211" lon="7.761047">
        <ele>383.611242</ele>
        <time>2021-11-22T08:53:22.822Z</time>
      </trkpt>
      <trkpt lat="47.593513" lon="7.761296">
        <ele>385.211351</ele>
        <time>2021-11-22T08:53:34.025Z</time>
      </trkpt>
      <trkpt lat="47.593803" lon="7.761400">
        <ele>386.592960</ele>
        <time>2021-11-22T08:53:44.985Z</time>
      </trkpt>
      <trkpt lat="47.594411" lon="7.761312">
        <ele>389.452537</ele>
        <time>2021-11-22T08:54:10.798Z</time>
      </trkpt>
      <trkpt lat="47.595086" lon="7.761325">
        <ele>395.630262</ele>
        <time>2021-11-22T08:54:44.038Z</time>
      </trkpt>
      <trkpt lat="47.595364" lon="7.761174">
        <ele>398.339654</ele>
        <time>2021-11-22T08:55:00.542Z</time>
      </trkpt>
      <trkpt lat="47.595483" lon="7.761108">
        <ele>399.502350</ele>
        <time>2021-11-22T08:55:07.925Z</time>
      </trkpt>
      <trkpt lat="47.595685" lon="7.760825">
        <ele>402.045477</ele>
        <time>2021-11-22T08:55:21.699Z</time>
      </trkpt>
      <trkpt lat="47.595755" lon="7.760659">
        <ele>403.253717</ele>
        <time>2021-11-22T08:55:30.398Z</time>
      </trkpt>
      <trkpt lat="47.595854" lon="7.760335">
        <ele>405.448903</ele>
        <time>2021-11-22T08:55:42.067Z</time>
      </trkpt>
      <trkpt lat="47.596041" lon="7.759870">
        <ele>408.684520</ele>
        <time>2021-11-22T08:56:02.027Z</time>
      </trkpt>
      <trkpt lat="47.596134" lon="7.759703">
        <ele>409.973115</ele>
        <time>2021-11-22T08:56:11.053Z</time>
      </trkpt>
      <trkpt lat="47.596241" lon="7.759593">
        <ele>411.121821</ele>
        <time>2021-11-22T08:56:17.242Z</time>
      </trkpt>
      <trkpt lat="47.596644" lon="7.759494">
        <ele>414.725857</ele>
        <time>2021-11-22T08:56:37.794Z</time>
      </trkpt>
      <trkpt lat="47.596893" lon="7.759520">
        <ele>416.928167</ele>
        <time>2021-11-22T08:56:51.254Z</time>
      </trkpt>
      <trkpt lat="47.597328" lon="7.759556">
        <ele>420.772046</ele>
        <time>2021-11-22T08:57:11.438Z</time>
      </trkpt>
      <trkpt lat="47.598314" lon="7.759510">
        <ele>427.977818</ele>
        <time>2021-11-22T08:57:53.315Z</time>
      </trkpt>
      <trkpt lat="47.598492" lon="7.759485">
        <ele>429.250674</ele>
        <time>2021-11-22T08:58:01.695Z</time>
      </trkpt>
      <trkpt lat="47.598636" lon="7.759436">
        <ele>430.302453</ele>
        <time>2021-11-22T08:58:07.964Z</time>
      </trkpt>
      <trkpt lat="47.599038" lon="7.759240">
        <ele>433.314998</ele>
        <time>2021-11-22T08:58:25.418Z</time>
      </trkpt>
      <trkpt lat="47.599369" lon="7.759291">
        <ele>435.700645</ele>
        <time>2021-11-22T08:58:38.875Z</time>
      </trkpt>
      <trkpt lat="47.599495" lon="7.759407">
        <ele>436.771510</ele>
        <time>2021-11-22T08:58:45.815Z</time>
      </trkpt>
      <trkpt lat="47.599727" lon="7.759652">
        <ele>438.828037</ele>
        <time>2021-11-22T08:58:58.504Z</time>
      </trkpt>
      <trkpt lat="47.599976" lon="7.759788">
        <ele>440.744052</ele>
        <time>2021-11-22T08:59:10.739Z</time>
      </trkpt>
      <trkpt lat="47.600757" lon="7.759977">
        <ele>446.458001</ele>
        <time>2021-11-22T08:59:45.210Z</time>
      </trkpt>
      <trkpt lat="47.601032" lon="7.760002">
        <ele>448.253479</ele>
        <time>2021-11-22T08:59:57.903Z</time>
      </trkpt>
      <trkpt lat="47.601336" lon="7.760030">
        <ele>449.997076</ele>
        <time>2021-11-22T09:00:10.815Z</time>
      </trkpt>
      <trkpt lat="47.601600" lon="7.760073">
        <ele>451.517428</ele>
        <time>2021-11-22T09:00:21.990Z</time>
      </trkpt>
      <trkpt lat="47.602078" lon="7.760047">
        <ele>454.255572</ele>
        <time>2021-11-22T09:00:40.377Z</time>
      </trkpt>
      <trkpt lat="47.602902" lon="7.759841">
        <ele>458.067855</ele>
        <time>2021-11-22T09:01:08.199Z</time>
      </trkpt>
      <trkpt lat="47.603173" lon="7.759766">
        <ele>458.401186</ele>
        <time>2021-11-22T09:01:14.736Z</time>
      </trkpt>
      <trkpt lat="47.603613" lon="7.759659">
        <ele>458.940308</ele>
        <time>2021-11-22T09:01:23.690Z</time>
      </trkpt>
      <trkpt lat="47.604088" lon="7.759601">
        <ele>459.516589</ele>
        <time>2021-11-22T09:01:30.980Z</time>
      </trkpt>
      <trkpt lat="47.604421" lon="7.759606">
        <ele>459.919251</ele>
        <time>2021-11-22T09:01:35.206Z</time>
      </trkpt>
      <trkpt lat="47.604633" lon="7.759635">
        <ele>459.897714</ele>
        <time>2021-11-22T09:01:37.724Z</time>
      </trkpt>
      <trkpt lat="47.605325" lon="7.759787">
        <ele>459.527935</ele>
        <time>2021-11-22T09:01:46.265Z</time>
      </trkpt>
      <trkpt lat="47.605536" lon="7.759853">
        <ele>459.413947</ele>
        <time>2021-11-22T09:01:49.022Z</time>
      </trkpt>
      <trkpt lat="47.606171" lon="7.760045">
        <ele>459.071384</ele>
        <time>2021-11-22T09:01:58.206Z</time>
      </trkpt>
      <trkpt lat="47.607246" lon="7.760369">
        <ele>458.633298</ele>
        <time>2021-11-22T09:02:15.479Z</time>
      </trkpt>
      <trkpt lat="47.607825" lon="7.760537">
        <ele>458.403270</ele>
        <time>2021-11-22T09:02:23.258Z</time>
      </trkpt>
      <trkpt lat="47.608938" lon="7.760829">
        <ele>456.427547</ele>
        <time>2021-11-22T09:02:35.749Z</time>
      </trkpt>
      <trkpt lat="47.610076" lon="7.761100">
        <ele>454.333350</ele>
        <time>2021-11-22T09:02:47.984Z</time>
      </trkpt>
      <trkpt lat="47.610488" lon="7.761190">
        <ele>453.815317</ele>
        <time>2021-11-22T09:02:52.716Z</time>
      </trkpt>
      <trkpt lat="47.610565" lon="7.761273">
        <ele>453.696913</ele>
        <time>2021-11-22T09:02:53.875Z</time>
      </trkpt>
      <trkpt lat="47.610601" lon="7.761374">
        <ele>453.601103</ele>
        <time>2021-11-22T09:02:54.772Z</time>
      </trkpt>
      <trkpt lat="47.610760" lon="7.761304">
        <ele>453.394788</ele>
        <time>2021-11-22T09:02:56.751Z</time>
      </trkpt>
      <trkpt lat="47.610854" lon="7.761285">
        <ele>453.276776</ele>
        <time>2021-11-22T09:02:57.961Z</time>
      </trkpt>
      <trkpt lat="47.611933" lon="7.761457">
        <ele>452.230636</ele>
        <time>2021-11-22T09:03:12.573Z</time>
      </trkpt>
      <trkpt lat="47.612022" lon="7.761449">
        <ele>452.182196</ele>
        <time>2021-11-22T09:03:13.848Z</time>
      </trkpt>
      <trkpt lat="47.612075" lon="7.761435">
        <ele>452.152950</ele>
        <time>2021-11-22T09:03:14.583Z</time>
      </trkpt>
      <trkpt lat="47.612127" lon="7.761383">
        <ele>452.118880</ele>
        <time>2021-11-22T09:03:15.465Z</time>
      </trkpt>
      <trkpt lat="47.612441" lon="7.760890">
        <ele>451.870482</ele>
        <time>2021-11-22T09:03:21.350Z</time>
      </trkpt>
      <trkpt lat="47.612523" lon="7.760811">
        <ele>451.817362</ele>
        <time>2021-11-22T09:03:22.735Z</time>
      </trkpt>
      <trkpt lat="47.612630" lon="7.760759">
        <ele>451.756192</ele>
        <time>2021-11-22T09:03:24.286Z</time>
      </trkpt>
      <trkpt lat="47.612812" lon="7.760726">
        <ele>451.656580</ele>
        <time>2021-11-22T09:03:26.590Z</time>
      </trkpt>
      <trkpt lat="47.612960" lon="7.760706">
        <ele>451.575843</ele>
        <time>2021-11-22T09:03:28.735Z</time>
      </trkpt>
      <trkpt lat="47.613059" lon="7.760674">
        <ele>451.520797</ele>
        <time>2021-11-22T09:03:30.102Z</time>
      </trkpt>
      <trkpt lat="47.613078" lon="7.760746">
        <ele>451.492479</ele>
        <time>2021-11-22T09:03:30.674Z</time>
      </trkpt>
      <trkpt lat="47.613167" lon="7.760835">
        <ele>451.356842</ele>
        <time>2021-11-22T09:03:32.251Z</time>
      </trkpt>
      <trkpt lat="47.613657" lon="7.760988">
        <ele>450.701455</ele>
        <time>2021-11-22T09:03:38.273Z</time>
      </trkpt>
      <trkpt lat="47.613842" lon="7.761046">
        <ele>450.453970</ele>
        <time>2021-11-22T09:03:40.385Z</time>
      </trkpt>
      <trkpt lat="47.614092" lon="7.761125">
        <ele>450.119418</ele>
        <time>2021-11-22T09:03:43.317Z</time>
      </trkpt>
      <trkpt lat="47.614228" lon="7.761168">
        <ele>449.937417</ele>
        <time>2021-11-22T09:03:44.789Z</time>
      </trkpt>
      <trkpt lat="47.614392" lon="7.761173">
        <ele>449.722721</ele>
        <time>2021-11-22T09:03:46.576Z</time>
      </trkpt>
      <trkpt lat="47.614706" lon="7.761147">
        <ele>449.311105</ele>
        <time>2021-11-22T09:03:50.086Z</time>
      </trkpt>
      <trkpt lat="47.614766" lon="7.761162">
        <ele>449.231467</ele>
        <time>2021-11-22T09:03:50.844Z</time>
      </trkpt>
      <trkpt lat="47.614820" lon="7.761190">
        <ele>449.156596</ele>
        <time>2021-11-22T09:03:51.643Z</time>
      </trkpt>
      <trkpt lat="47.615007" lon="7.761358">
        <ele>449.150984</ele>
        <time>2021-11-22T09:03:54.168Z</time>
      </trkpt>
      <trkpt lat="47.615529" lon="7.761749">
        <ele>449.197539</ele>
        <time>2021-11-22T09:04:02.554Z</time>
      </trkpt>
      <trkpt lat="47.615620" lon="7.761773">
        <ele>449.204898</ele>
        <time>2021-11-22T09:04:03.572Z</time>
      </trkpt>
      <trkpt lat="47.615769" lon="7.761789">
        <ele>449.216791</ele>
        <time>2021-11-22T09:04:06.071Z</time>
      </trkpt>
      <trkpt lat="47.615919" lon="7.761819">
        <ele>449.228841</ele>
        <time>2021-11-22T09:04:08.593Z</time>
      </trkpt>
      <trkpt lat="47.616849" lon="7.762442">
        <ele>449.776166</ele>
        <time>2021-11-22T09:04:27.979Z</time>
      </trkpt>
      <trkpt lat="47.617386" lon="7.762826">
        <ele>450.515188</ele>
        <time>2021-11-22T09:04:42.742Z</time>
      </trkpt>
      <trkpt lat="47.617553" lon="7.762928">
        <ele>450.739078</ele>
        <time>2021-11-22T09:04:46.828Z</time>
      </trkpt>
      <trkpt lat="47.617894" lon="7.763136">
        <ele>451.196155</ele>
        <time>2021-11-22T09:04:53.541Z</time>
      </trkpt>
      <trkpt lat="47.618113" lon="7.762641">
        <ele>451.259961</ele>
        <time>2021-11-22T09:04:59.728Z</time>
      </trkpt>
      <trkpt lat="47.618125" lon="7.762615">
        <ele>451.224302</ele>
        <time>2021-11-22T09:05:00.271Z</time>
      </trkpt>
      <trkpt lat="47.618586" lon="7.762088">
        <ele>450.247231</ele>
        <time>2021-11-22T09:05:07.486Z</time>
      </trkpt>
      <trkpt lat="47.618742" lon="7.761992">
        <ele>449.963693</ele>
        <time>2021-11-22T09:05:09.415Z</time>
      </trkpt>
      <trkpt lat="47.618940" lon="7.761783">
        <ele>449.555727</ele>
        <time>2021-11-22T09:05:12.012Z</time>
      </trkpt>
      <trkpt lat="47.619245" lon="7.761370">
        <ele>448.862456</ele>
        <time>2021-11-22T09:05:16.307Z</time>
      </trkpt>
      <trkpt lat="47.620058" lon="7.759513">
        <ele>445.353297</ele>
        <time>2021-11-22T09:05:31.300Z</time>
      </trkpt>
      <trkpt lat="47.620566" lon="7.758657">
        <ele>444.156728</ele>
        <time>2021-11-22T09:05:40.798Z</time>
      </trkpt>
      <trkpt lat="47.620828" lon="7.758215">
        <ele>444.338036</ele>
        <time>2021-11-22T09:05:46.880Z</time>
      </trkpt>
      <trkpt lat="47.621012" lon="7.757974">
        <ele>444.450203</ele>
        <time>2021-11-22T09:05:50.903Z</time>
      </trkpt>
      <trkpt lat="47.621392" lon="7.757689">
        <ele>444.644789</ele>
        <time>2021-11-22T09:05:58.652Z</time>
      </trkpt>
      <trkpt lat="47.621775" lon="7.757496">
        <ele>444.829638</ele>
        <time>2021-11-22T09:06:07.078Z</time>
      </trkpt>
      <trkpt lat="47.622401" lon="7.757191">
        <ele>445.396332</ele>
        <time>2021-11-22T09:06:20.842Z</time>
      </trkpt>
      <trkpt lat="47.622511" lon="7.757074">
        <ele>445.520975</ele>
        <time>2021-11-22T09:06:23.826Z</time>
      </trkpt>
      <trkpt lat="47.622712" lon="7.756863">
        <ele>445.747728</ele>
        <time>2021-11-22T09:06:28.252Z</time>
      </trkpt>
      <trkpt lat="47.622804" lon="7.756700">
        <ele>445.879692</ele>
        <time>2021-11-22T09:06:31.024Z</time>
      </trkpt>
      <trkpt lat="47.622958" lon="7.756429">
        <ele>446.099711</ele>
        <time>2021-11-22T09:06:34.888Z</time>
      </trkpt>
      <trkpt lat="47.624277" lon="7.754101">
        <ele>447.081655</ele>
        <time>2021-11-22T09:07:07.872Z</time>
      </trkpt>
      <trkpt lat="47.624838" lon="7.753339">
        <ele>446.990239</ele>
        <time>2021-11-22T09:07:20.885Z</time>
      </trkpt>
      <trkpt lat="47.625761" lon="7.752304">
        <ele>446.641883</ele>
        <time>2021-11-22T09:07:37.164Z</time>
      </trkpt>
      <trkpt lat="47.627609" lon="7.750299">
        <ele>441.335302</ele>
        <time>2021-11-22T09:08:01.668Z</time>
      </trkpt>
      <trkpt lat="47.628584" lon="7.749233">
        <ele>437.129283</ele>
        <time>2021-11-22T09:08:13.603Z</time>
      </trkpt>
      <trkpt lat="47.628604" lon="7.749202">
        <ele>437.028840</ele>
        <time>2021-11-22T09:08:13.848Z</time>
      </trkpt>
      <trkpt lat="47.628729" lon="7.749001">
        <ele>436.377611</ele>
        <time>2021-11-22T09:08:15.695Z</time>
      </trkpt>
      <trkpt lat="47.629212" lon="7.748211">
        <ele>433.549564</ele>
        <time>2021-11-22T09:08:22.724Z</time>
      </trkpt>
      <trkpt lat="47.629452" lon="7.747871">
        <ele>432.244151</ele>
        <time>2021-11-22T09:08:25.987Z</time>
      </trkpt>
      <trkpt lat="47.629711" lon="7.747557">
        <ele>430.928359</ele>
        <time>2021-11-22T09:08:29.256Z</time>
      </trkpt>
      <trkpt lat="47.630697" lon="7.746375">
        <ele>425.503710</ele>
        <time>2021-11-22T09:08:41.685Z</time>
      </trkpt>
      <trkpt lat="47.630948" lon="7.746031">
        <ele>423.989119</ele>
        <time>2021-11-22T09:08:44.959Z</time>
      </trkpt>
      <trkpt lat="47.631034" lon="7.745824">
        <ele>423.262683</ele>
        <time>2021-11-22T09:08:46.489Z</time>
      </trkpt>
      <trkpt lat="47.631075" lon="7.745596">
        <ele>422.557750</ele>
        <time>2021-11-22T09:08:48.024Z</time>
      </trkpt>
      <trkpt lat="47.631185" lon="7.744218">
        <ele>417.984533</ele>
        <time>2021-11-22T09:08:56.745Z</time>
      </trkpt>
      <trkpt lat="47.631202" lon="7.744011">
        <ele>417.273038</ele>
        <time>2021-11-22T09:08:58.080Z</time>
      </trkpt>
      <trkpt lat="47.631260" lon="7.742819">
        <ele>413.195436</ele>
        <time>2021-11-22T09:09:05.654Z</time>
      </trkpt>
      <trkpt lat="47.631282" lon="7.742608">
        <ele>412.466955</ele>
        <time>2021-11-22T09:09:07.009Z</time>
      </trkpt>
      <trkpt lat="47.631477" lon="7.741795">
        <ele>410.050980</ele>
        <time>2021-11-22T09:09:12.556Z</time>
      </trkpt>
      <trkpt lat="47.631424" lon="7.741490">
        <ele>409.179535</ele>
        <time>2021-11-22T09:09:14.594Z</time>
      </trkpt>
      <trkpt lat="47.631280" lon="7.741275">
        <ele>408.340877</ele>
        <time>2021-11-22T09:09:16.543Z</time>
      </trkpt>
      <trkpt lat="47.630897" lon="7.740602">
        <ele>405.903762</ele>
        <time>2021-11-22T09:09:22.491Z</time>
      </trkpt>
      <trkpt lat="47.630863" lon="7.740423">
        <ele>405.389222</ele>
        <time>2021-11-22T09:09:23.709Z</time>
      </trkpt>
      <trkpt lat="47.630897" lon="7.740046">
        <ele>404.502308</ele>
        <time>2021-11-22T09:09:26.386Z</time>
      </trkpt>
      <trkpt lat="47.630907" lon="7.739873">
        <ele>404.155391</ele>
        <time>2021-11-22T09:09:27.503Z</time>
      </trkpt>
      <trkpt lat="47.630944" lon="7.739673">
        <ele>403.741015</ele>
        <time>2021-11-22T09:09:28.987Z</time>
      </trkpt>
      <trkpt lat="47.630891" lon="7.739335">
        <ele>403.047662</ele>
        <time>2021-11-22T09:09:31.303Z</time>
      </trkpt>
      <trkpt lat="47.630948" lon="7.739058">
        <ele>402.469000</ele>
        <time>2021-11-22T09:09:33.396Z</time>
      </trkpt>
      <trkpt lat="47.631083" lon="7.738808">
        <ele>401.828933</ele>
        <time>2021-11-22T09:09:35.568Z</time>
      </trkpt>
      <trkpt lat="47.631444" lon="7.738356">
        <ele>400.428561</ele>
        <time>2021-11-22T09:09:40.538Z</time>
      </trkpt>
      <trkpt lat="47.631655" lon="7.738144">
        <ele>399.673089</ele>
        <time>2021-11-22T09:09:43.149Z</time>
      </trkpt>
      <trkpt lat="47.632230" lon="7.737357">
        <ele>397.519823</ele>
        <time>2021-11-22T09:09:51.400Z</time>
      </trkpt>
      <trkpt lat="47.632395" lon="7.737249">
        <ele>397.024656</ele>
        <time>2021-11-22T09:09:53.267Z</time>
      </trkpt>
      <trkpt lat="47.632595" lon="7.737266">
        <ele>396.474602</ele>
        <time>2021-11-22T09:09:55.374Z</time>
      </trkpt>
      <trkpt lat="47.633246" lon="7.737513">
        <ele>394.618154</ele>
        <time>2021-11-22T09:10:02.379Z</time>
      </trkpt>
      <trkpt lat="47.634316" lon="7.737920">
        <ele>390.481516</ele>
        <time>2021-11-22T09:10:13.463Z</time>
      </trkpt>
      <trkpt lat="47.635441" lon="7.738683">
        <ele>385.257934</ele>
        <time>2021-11-22T09:10:25.320Z</time>
      </trkpt>
      <trkpt lat="47.635790" lon="7.739028">
        <ele>383.240165</ele>
        <time>2021-11-22T09:10:29.244Z</time>
      </trkpt>
      <trkpt lat="47.635963" lon="7.739717">
        <ele>380.856122</ele>
        <time>2021-11-22T09:10:33.912Z</time>
      </trkpt>
      <trkpt lat="47.636139" lon="7.739987">
        <ele>379.638100</ele>
        <time>2021-11-22T09:10:36.314Z</time>
      </trkpt>
      <trkpt lat="47.636317" lon="7.740109">
        <ele>378.552216</ele>
        <time>2021-11-22T09:10:38.194Z</time>
      </trkpt>
      <trkpt lat="47.636771" lon="7.740116">
        <ele>375.827159</ele>
        <time>2021-11-22T09:10:42.499Z</time>
      </trkpt>
      <trkpt lat="47.637115" lon="7.740401">
        <ele>373.462525</ele>
        <time>2021-11-22T09:10:46.261Z</time>
      </trkpt>
      <trkpt lat="47.637359" lon="7.740737">
        <ele>371.464706</ele>
        <time>2021-11-22T09:10:49.467Z</time>
      </trkpt>
      <trkpt lat="47.637507" lon="7.741319">
        <ele>368.948900</ele>
        <time>2021-11-22T09:10:53.262Z</time>
      </trkpt>
      <trkpt lat="47.637528" lon="7.741566">
        <ele>367.433277</ele>
        <time>2021-11-22T09:10:54.695Z</time>
      </trkpt>
      <trkpt lat="47.637556" lon="7.741902">
        <ele>364.757236</ele>
        <time>2021-11-22T09:10:56.626Z</time>
      </trkpt>
      <trkpt lat="47.637523" lon="7.742385">
        <ele>360.919938</ele>
        <time>2021-11-22T09:10:59.389Z</time>
      </trkpt>
      <trkpt lat="47.637552" lon="7.742900">
        <ele>356.835090</ele>
        <time>2021-11-22T09:11:02.321Z</time>
      </trkpt>
      <trkpt lat="47.637644" lon="7.743238">
        <ele>353.953738</ele>
        <time>2021-11-22T09:11:04.395Z</time>
      </trkpt>
      <trkpt lat="47.637785" lon="7.743491">
        <ele>351.358607</ele>
        <time>2021-11-22T09:11:06.241Z</time>
      </trkpt>
      <trkpt lat="47.638011" lon="7.743662">
        <ele>348.382861</ele>
        <time>2021-11-22T09:11:08.367Z</time>
      </trkpt>
      <trkpt lat="47.638337" lon="7.743810">
        <ele>345.217408</ele>
        <time>2021-11-22T09:11:11.252Z</time>
      </trkpt>
      <trkpt lat="47.638586" lon="7.743801">
        <ele>343.109568</ele>
        <time>2021-11-22T09:11:13.389Z</time>
      </trkpt>
      <trkpt lat="47.638834" lon="7.743716">
        <ele>340.955576</ele>
        <time>2021-11-22T09:11:15.531Z</time>
      </trkpt>
      <trkpt lat="47.639034" lon="7.743640">
        <ele>339.208435</ele>
        <time>2021-11-22T09:11:17.297Z</time>
      </trkpt>
      <trkpt lat="47.639124" lon="7.743936">
        <ele>337.356705</ele>
        <time>2021-11-22T09:11:19.215Z</time>
      </trkpt>
      <trkpt lat="47.639286" lon="7.744230">
        <ele>335.191075</ele>
        <time>2021-11-22T09:11:21.538Z</time>
      </trkpt>
      <trkpt lat="47.639484" lon="7.744425">
        <ele>333.180094</ele>
        <time>2021-11-22T09:11:23.964Z</time>
      </trkpt>
      <trkpt lat="47.639612" lon="7.744550">
        <ele>332.121006</ele>
        <time>2021-11-22T09:11:25.578Z</time>
      </trkpt>
      <trkpt lat="47.639661" lon="7.744599">
        <ele>332.058687</ele>
        <time>2021-11-22T09:11:26.318Z</time>
      </trkpt>
      <trkpt lat="47.640175" lon="7.745392">
        <ele>331.276693</ele>
        <time>2021-11-22T09:11:35.447Z</time>
      </trkpt>
      <trkpt lat="47.640698" lon="7.744798">
        <ele>330.582076</ele>
        <time>2021-11-22T09:11:44.707Z</time>
      </trkpt>
      <trkpt lat="47.640802" lon="7.744697">
        <ele>330.450987</ele>
        <time>2021-11-22T09:11:46.391Z</time>
      </trkpt>
      <trkpt lat="47.640859" lon="7.744671">
        <ele>330.388091</ele>
        <time>2021-11-22T09:11:47.211Z</time>
      </trkpt>
      <trkpt lat="47.640958" lon="7.744746">
        <ele>330.270855</ele>
        <time>2021-11-22T09:11:48.745Z</time>
      </trkpt>
      <trkpt lat="47.640998" lon="7.744824">
        <ele>330.235866</ele>
        <time>2021-11-22T09:11:49.695Z</time>
      </trkpt>
      <trkpt lat="47.641056" lon="7.744855">
        <ele>330.210718</ele>
        <time>2021-11-22T09:11:50.562Z</time>
      </trkpt>
      <trkpt lat="47.641149" lon="7.744754">
        <ele>330.163706</ele>
        <time>2021-11-22T09:11:52.053Z</time>
      </trkpt>
      <trkpt lat="47.641098" lon="7.744530">
        <ele>330.098717</ele>
        <time>2021-11-22T09:11:54.184Z</time>
      </trkpt>
      <trkpt lat="47.641089" lon="7.744504">
        <ele>330.090682</ele>
        <time>2021-11-22T09:11:54.501Z</time>
      </trkpt>
      <trkpt lat="47.641021" lon="7.744322">
        <ele>330.033480</ele>
        <time>2021-11-22T09:11:56.277Z</time>
      </trkpt>
      <trkpt lat="47.641118" lon="7.744203">
        <ele>329.982141</ele>
        <time>2021-11-22T09:11:57.915Z</time>
      </trkpt>
      <trkpt lat="47.641133" lon="7.744182">
        <ele>329.973729</ele>
        <time>2021-11-22T09:11:58.187Z</time>
      </trkpt>
      <trkpt lat="47.641440" lon="7.743669">
        <ele>329.785136</ele>
        <time>2021-11-22T09:12:04.245Z</time>
      </trkpt>
      <trkpt lat="47.641543" lon="7.743498">
        <ele>329.722091</ele>
        <time>2021-11-22T09:12:06.287Z</time>
      </trkpt>
      <trkpt lat="47.641651" lon="7.743319">
        <ele>329.656047</ele>
        <time>2021-11-22T09:12:08.652Z</time>
      </trkpt>
      <trkpt lat="47.641773" lon="7.743087">
        <ele>329.575156</ele>
        <time>2021-11-22T09:12:11.265Z</time>
      </trkpt>
      <trkpt lat="47.641802" lon="7.742982">
        <ele>329.543965</ele>
        <time>2021-11-22T09:12:12.397Z</time>
      </trkpt>
      <trkpt lat="47.641858" lon="7.742708">
        <ele>329.526487</ele>
        <time>2021-11-22T09:12:15.087Z</time>
      </trkpt>
      <trkpt lat="47.641875" lon="7.742622">
        <ele>329.527537</ele>
        <time>2021-11-22T09:12:15.879Z</time>
      </trkpt>
      <trkpt lat="47.641887" lon="7.742564">
        <ele>329.528248</ele>
        <time>2021-11-22T09:12:16.437Z</time>
      </trkpt>
      <trkpt lat="47.641903" lon="7.742471">
        <ele>329.529374</ele>
        <time>2021-11-22T09:12:17.454Z</time>
      </trkpt>
      <trkpt lat="47.641935" lon="7.742324">
        <ele>329.531185</ele>
        <time>2021-11-22T09:12:19.026Z</time>
      </trkpt>
      <trkpt lat="47.641952" lon="7.742244">
        <ele>329.532168</ele>
        <time>2021-11-22T09:12:19.834Z</time>
      </trkpt>
      <trkpt lat="47.641960" lon="7.742153">
        <ele>329.533244</ele>
        <time>2021-11-22T09:12:20.692Z</time>
      </trkpt>
      <trkpt lat="47.641958" lon="7.742061">
        <ele>329.534323</ele>
        <time>2021-11-22T09:12:21.565Z</time>
      </trkpt>
      <trkpt lat="47.641954" lon="7.741976">
        <ele>329.535322</ele>
        <time>2021-11-22T09:12:22.388Z</time>
      </trkpt>
      <trkpt lat="47.641997" lon="7.741966">
        <ele>329.536079</ele>
        <time>2021-11-22T09:12:23.121Z</time>
      </trkpt>
      <trkpt lat="47.642066" lon="7.741908">
        <ele>329.537458</ele>
        <time>2021-11-22T09:12:24.326Z</time>
      </trkpt>
      <trkpt lat="47.642209" lon="7.741595">
        <ele>329.541892</ele>
        <time>2021-11-22T09:12:28.095Z</time>
      </trkpt>
      <trkpt lat="47.642274" lon="7.741453">
        <ele>329.543904</ele>
        <time>2021-11-22T09:12:29.933Z</time>
      </trkpt>
      <trkpt lat="47.642394" lon="7.741202">
        <ele>329.547512</ele>
        <time>2021-11-22T09:12:33.012Z</time>
      </trkpt>
      <trkpt lat="47.642519" lon="7.740966">
        <ele>329.551031</ele>
        <time>2021-11-22T09:12:36.209Z</time>
      </trkpt>
      <trkpt lat="47.642647" lon="7.740709">
        <ele>329.554777</ele>
        <time>2021-11-22T09:12:39.480Z</time>
      </trkpt>
      <trkpt lat="47.642798" lon="7.740374">
        <ele>329.654106</ele>
        <time>2021-11-22T09:12:43.815Z</time>
      </trkpt>
      <trkpt lat="47.642822" lon="7.740329">
        <ele>329.669840</ele>
        <time>2021-11-22T09:12:44.402Z</time>
      </trkpt>
      <trkpt lat="47.642862" lon="7.740256">
        <ele>329.695636</ele>
        <time>2021-11-22T09:12:45.504Z</time>
      </trkpt>
      <trkpt lat="47.642911" lon="7.740194">
        <ele>329.721836</ele>
        <time>2021-11-22T09:12:46.591Z</time>
      </trkpt>
      <trkpt lat="47.642922" lon="7.740181">
        <ele>329.727558</ele>
        <time>2021-11-22T09:12:46.820Z</time>
      </trkpt>
      <trkpt lat="47.642972" lon="7.740117">
        <ele>329.754424</ele>
        <time>2021-11-22T09:12:47.875Z</time>
      </trkpt>
      <trkpt lat="47.643121" lon="7.740032">
        <ele>329.819376</ele>
        <time>2021-11-22T09:12:50.455Z</time>
      </trkpt>
      <trkpt lat="47.643168" lon="7.740007">
        <ele>329.839692</ele>
        <time>2021-11-22T09:12:51.283Z</time>
      </trkpt>
      <trkpt lat="47.643301" lon="7.739935">
        <ele>329.897297</ele>
        <time>2021-11-22T09:12:53.572Z</time>
      </trkpt>
      <trkpt lat="47.643475" lon="7.739785">
        <ele>329.979175</ele>
        <time>2021-11-22T09:12:56.938Z</time>
      </trkpt>
      <trkpt lat="47.643591" lon="7.740215">
        <ele>330.106157</ele>
        <time>2021-11-22T09:13:02.227Z</time>
      </trkpt>
      <trkpt lat="47.643656" lon="7.740319">
        <ele>330.145047</ele>
        <time>2021-11-22T09:13:03.822Z</time>
      </trkpt>
      <trkpt lat="47.643783" lon="7.740468">
        <ele>330.210918</ele>
        <time>2021-11-22T09:13:06.485Z</time>
      </trkpt>
      <trkpt lat="47.643881" lon="7.740570">
        <ele>330.259622</ele>
        <time>2021-11-22T09:13:08.532Z</time>
      </trkpt>
      <trkpt lat="47.643938" lon="7.740664">
        <ele>330.300257</ele>
        <time>2021-11-22T09:13:09.966Z</time>
      </trkpt>
      <trkpt lat="47.644034" lon="7.740945">
        <ele>330.458780</ele>
        <time>2021-11-22T09:13:13.486Z</time>
      </trkpt>
      <trkpt lat="47.644056" lon="7.741009">
        <ele>330.494931</ele>
        <time>2021-11-22T09:13:14.315Z</time>
      </trkpt>
      <trkpt lat="47.644157" lon="7.741340">
        <ele>330.677757</ele>
        <time>2021-11-22T09:13:18.441Z</time>
      </trkpt>
      <trkpt lat="47.644182" lon="7.741417">
        <ele>330.720764</ele>
        <time>2021-11-22T09:13:19.452Z</time>
      </trkpt>
      <trkpt lat="47.644276" lon="7.741683">
        <ele>330.871894</ele>
        <time>2021-11-22T09:13:23.079Z</time>
      </trkpt>
      <trkpt lat="47.644397" lon="7.741849">
        <ele>330.994944</ele>
        <time>2021-11-22T09:13:26.016Z</time>
      </trkpt>
      <trkpt lat="47.644599" lon="7.742155">
        <ele>331.210493</ele>
        <time>2021-11-22T09:13:31.212Z</time>
      </trkpt>
      <trkpt lat="47.644669" lon="7.742280">
        <ele>331.292275</ele>
        <time>2021-11-22T09:13:33.231Z</time>
      </trkpt>
      <trkpt lat="47.644734" lon="7.742487">
        <ele>331.407182</ele>
        <time>2021-11-22T09:13:36.094Z</time>
      </trkpt>
      <trkpt lat="47.644925" lon="7.743203">
        <ele>331.951584</ele>
        <time>2021-11-22T09:13:45.734Z</time>
      </trkpt>
      <trkpt lat="47.645054" lon="7.743433">
        <ele>332.246027</ele>
        <time>2021-11-22T09:13:49.516Z</time>
      </trkpt>
      <trkpt lat="47.645131" lon="7.743484">
        <ele>332.369161</ele>
        <time>2021-11-22T09:13:51.124Z</time>
      </trkpt>
      <trkpt lat="47.645188" lon="7.743513">
        <ele>332.457156</ele>
        <time>2021-11-22T09:13:52.277Z</time>
      </trkpt>
      <trkpt lat="47.645734" lon="7.743440">
        <ele>333.257737</ele>
        <time>2021-11-22T09:14:03.094Z</time>
      </trkpt>
      <trkpt lat="47.645911" lon="7.743330">
        <ele>333.537962</ele>
        <time>2021-11-22T09:14:06.700Z</time>
      </trkpt>
      <trkpt lat="47.646017" lon="7.743245">
        <ele>333.713905</ele>
        <time>2021-11-22T09:14:09.483Z</time>
      </trkpt>
      <trkpt lat="47.646406" lon="7.742933">
        <ele>334.588751</ele>
        <time>2021-11-22T09:14:19.735Z</time>
      </trkpt>
      <trkpt lat="47.646642" lon="7.742762">
        <ele>335.829032</ele>
        <time>2021-11-22T09:14:26.224Z</time>
      </trkpt>
      <trkpt lat="47.646840" lon="7.742630">
        <ele>336.854127</ele>
        <time>2021-11-22T09:14:32.005Z</time>
      </trkpt>
      <trkpt lat="47.646932" lon="7.742608">
        <ele>337.294225</ele>
        <time>2021-11-22T09:14:34.459Z</time>
      </trkpt>
      <trkpt lat="47.647031" lon="7.742584">
        <ele>337.767974</ele>
        <time>2021-11-22T09:14:37.926Z</time>
      </trkpt>
      <trkpt lat="47.647263" lon="7.742628">
        <ele>338.872565</ele>
        <time>2021-11-22T09:14:45.172Z</time>
      </trkpt>
      <trkpt lat="47.647668" lon="7.742782">
        <ele>340.847050</ele>
        <time>2021-11-22T09:15:00.886Z</time>
      </trkpt>
      <trkpt lat="47.647923" lon="7.742761">
        <ele>342.053209</ele>
        <time>2021-11-22T09:15:11.729Z</time>
      </trkpt>
      <trkpt lat="47.648430" lon="7.742708">
        <ele>345.438310</ele>
        <time>2021-11-22T09:15:35.071Z</time>
      </trkpt>
      <trkpt lat="47.648686" lon="7.742761">
        <ele>347.365338</ele>
        <time>2021-11-22T09:15:47.498Z</time>
      </trkpt>
      <trkpt lat="47.648726" lon="7.742773">
        <ele>347.669579</ele>
        <time>2021-11-22T09:15:49.450Z</time>
      </trkpt>
      <trkpt lat="47.649349" lon="7.742957">
        <ele>352.405266</ele>
        <time>2021-11-22T09:16:19.665Z</time>
      </trkpt>
      <trkpt lat="47.650238" lon="7.743181">
        <ele>357.732341</ele>
        <time>2021-11-22T09:16:57.700Z</time>
      </trkpt>
      <trkpt lat="47.650941" lon="7.743251">
        <ele>360.514420</ele>
        <time>2021-11-22T09:17:19.865Z</time>
      </trkpt>
      <trkpt lat="47.651664" lon="7.743365">
        <ele>363.304010</ele>
        <time>2021-11-22T09:17:36.798Z</time>
      </trkpt>
      <trkpt lat="47.652352" lon="7.743329">
        <ele>364.214196</ele>
        <time>2021-11-22T09:17:49.840Z</time>
      </trkpt>
      <trkpt lat="47.653011" lon="7.743041">
        <ele>365.122447</ele>
        <time>2021-11-22T09:18:03.102Z</time>
      </trkpt>
      <trkpt lat="47.653639" lon="7.742914">
        <ele>365.576138</ele>
        <time>2021-11-22T09:18:15.910Z</time>
      </trkpt>
      <trkpt lat="47.654324" lon="7.743075">
        <ele>365.389512</ele>
        <time>2021-11-22T09:18:30.336Z</time>
      </trkpt>
      <trkpt lat="47.656129" lon="7.743833">
        <ele>361.118573</ele>
        <time>2021-11-22T09:18:50.785Z</time>
      </trkpt>
      <trkpt lat="47.656592" lon="7.744040">
        <ele>359.189332</ele>
        <time>2021-11-22T09:18:55.177Z</time>
      </trkpt>
      <trkpt lat="47.656638" lon="7.744059">
        <ele>358.998829</ele>
        <time>2021-11-22T09:18:55.634Z</time>
      </trkpt>
      <trkpt lat="47.656699" lon="7.743927">
        <ele>358.568625</ele>
        <time>2021-11-22T09:18:56.585Z</time>
      </trkpt>
      <trkpt lat="47.656798" lon="7.743812">
        <ele>358.067092</ele>
        <time>2021-11-22T09:18:57.717Z</time>
      </trkpt>
      <trkpt lat="47.656895" lon="7.743736">
        <ele>357.643314</ele>
        <time>2021-11-22T09:18:58.760Z</time>
      </trkpt>
      <trkpt lat="47.657396" lon="7.743356">
        <ele>355.486969</ele>
        <time>2021-11-22T09:19:03.879Z</time>
      </trkpt>
      <trkpt lat="47.657711" lon="7.743133">
        <ele>354.149385</ele>
        <time>2021-11-22T09:19:07.126Z</time>
      </trkpt>
      <trkpt lat="47.657946" lon="7.742967">
        <ele>353.151911</ele>
        <time>2021-11-22T09:19:09.644Z</time>
      </trkpt>
      <trkpt lat="47.658430" lon="7.742636">
        <ele>351.109463</ele>
        <time>2021-11-22T09:19:15.566Z</time>
      </trkpt>
      <trkpt lat="47.659389" lon="7.741651">
        <ele>354.281907</ele>
        <time>2021-11-22T09:19:48.630Z</time>
      </trkpt>
      <trkpt lat="47.659914" lon="7.741102">
        <ele>356.059000</ele>
        <time>2021-11-22T09:20:05.666Z</time>
      </trkpt>
      <trkpt lat="47.660092" lon="7.740956">
        <ele>357.095914</ele>
        <time>2021-11-22T09:20:11.117Z</time>
      </trkpt>
      <trkpt lat="47.660437" lon="7.740780">
        <ele>358.956014</ele>
        <time>2021-11-22T09:20:25.051Z</time>
      </trkpt>
      <trkpt lat="47.661298" lon="7.741035">
        <ele>363.432744</ele>
        <time>2021-11-22T09:20:56.983Z</time>
      </trkpt>
      <trkpt lat="47.661424" lon="7.741131">
        <ele>364.154870</ele>
        <time>2021-11-22T09:21:02.723Z</time>
      </trkpt>
      <trkpt lat="47.661483" lon="7.741188">
        <ele>364.513791</ele>
        <time>2021-11-22T09:21:04.744Z</time>
      </trkpt>
      <trkpt lat="47.661611" lon="7.741276">
        <ele>365.233600</ele>
        <time>2021-11-22T09:21:09.146Z</time>
      </trkpt>
      <trkpt lat="47.661674" lon="7.741304">
        <ele>365.577612</ele>
        <time>2021-11-22T09:21:12.091Z</time>
      </trkpt>
      <trkpt lat="47.661687" lon="7.741310">
        <ele>365.648827</ele>
        <time>2021-11-22T09:21:13.584Z</time>
      </trkpt>
      <trkpt lat="47.662726" lon="7.741265">
        <ele>371.086323</ele>
        <time>2021-11-22T09:21:52.464Z</time>
      </trkpt>
      <trkpt lat="47.663281" lon="7.741134">
        <ele>374.026077</ele>
        <time>2021-11-22T09:22:14.362Z</time>
      </trkpt>
      <trkpt lat="47.663991" lon="7.741248">
        <ele>374.970600</ele>
        <time>2021-11-22T09:22:31.683Z</time>
      </trkpt>
      <trkpt lat="47.664445" lon="7.741223">
        <ele>375.235645</ele>
        <time>2021-11-22T09:22:38.697Z</time>
      </trkpt>
      <trkpt lat="47.664884" lon="7.741112">
        <ele>375.495443</ele>
        <time>2021-11-22T09:22:44.236Z</time>
      </trkpt>
      <trkpt lat="47.665373" lon="7.741092">
        <ele>375.157670</ele>
        <time>2021-11-22T09:22:49.771Z</time>
      </trkpt>
      <trkpt lat="47.665679" lon="7.741103">
        <ele>374.336182</ele>
        <time>2021-11-22T09:22:52.965Z</time>
      </trkpt>
      <trkpt lat="47.666724" lon="7.741022">
        <ele>371.527776</ele>
        <time>2021-11-22T09:23:03.624Z</time>
      </trkpt>
      <trkpt lat="47.667361" lon="7.741151">
        <ele>369.772738</ele>
        <time>2021-11-22T09:23:10.203Z</time>
      </trkpt>
      <trkpt lat="47.668124" lon="7.740949">
        <ele>367.633451</ele>
        <time>2021-11-22T09:23:18.828Z</time>
      </trkpt>
      <trkpt lat="47.669055" lon="7.741049">
        <ele>365.093550</ele>
        <time>2021-11-22T09:23:28.161Z</time>
      </trkpt>
      <trkpt lat="47.669351" lon="7.740999">
        <ele>364.307931</ele>
        <time>2021-11-22T09:23:31.129Z</time>
      </trkpt>
      <trkpt lat="47.669494" lon="7.740943">
        <ele>363.917931</ele>
        <time>2021-11-22T09:23:32.610Z</time>
      </trkpt>
      <trkpt lat="47.669750" lon="7.740792">
        <ele>363.191524</ele>
        <time>2021-11-22T09:23:35.499Z</time>
      </trkpt>
      <trkpt lat="47.670203" lon="7.740193">
        <ele>361.591960</ele>
        <time>2021-11-22T09:23:42.249Z</time>
      </trkpt>
      <trkpt lat="47.670331" lon="7.739901">
        <ele>361.124204</ele>
        <time>2021-11-22T09:23:44.678Z</time>
      </trkpt>
      <trkpt lat="47.670753" lon="7.738859">
        <ele>360.987753</ele>
        <time>2021-11-22T09:23:54.281Z</time>
      </trkpt>
      <trkpt lat="47.671021" lon="7.738380">
        <ele>360.917868</ele>
        <time>2021-11-22T09:24:01.285Z</time>
      </trkpt>
      <trkpt lat="47.671278" lon="7.738030">
        <ele>360.859757</ele>
        <time>2021-11-22T09:24:08.194Z</time>
      </trkpt>
      <trkpt lat="47.671561" lon="7.737762">
        <ele>361.204441</ele>
        <time>2021-11-22T09:24:16.180Z</time>
      </trkpt>
      <trkpt lat="47.672890" lon="7.736693">
        <ele>364.225930</ele>
        <time>2021-11-22T09:24:50.118Z</time>
      </trkpt>
      <trkpt lat="47.673154" lon="7.736575">
        <ele>364.784946</ele>
        <time>2021-11-22T09:24:57.280Z</time>
      </trkpt>
      <trkpt lat="47.673344" lon="7.736511">
        <ele>365.183260</ele>
        <time>2021-11-22T09:25:02.360Z</time>
      </trkpt>
      <trkpt lat="47.673492" lon="7.736461">
        <ele>365.493571</ele>
        <time>2021-11-22T09:25:06.303Z</time>
      </trkpt>
      <trkpt lat="47.673855" lon="7.736387">
        <ele>366.242669</ele>
        <time>2021-11-22T09:25:15.563Z</time>
      </trkpt>
      <trkpt lat="47.674295" lon="7.736409">
        <ele>367.142741</ele>
        <time>2021-11-22T09:25:26.070Z</time>
      </trkpt>
      <trkpt lat="47.674982" lon="7.736550">
        <ele>368.032503</ele>
        <time>2021-11-22T09:25:40.943Z</time>
      </trkpt>
      <trkpt lat="47.676927" lon="7.737026">
        <ele>367.277824</ele>
        <time>2021-11-22T09:26:05.580Z</time>
      </trkpt>
      <trkpt lat="47.677732" lon="7.737060">
        <ele>366.827467</ele>
        <time>2021-11-22T09:26:15.376Z</time>
      </trkpt>
      <trkpt lat="47.678261" lon="7.737149">
        <ele>366.529746</ele>
        <time>2021-11-22T09:26:23.019Z</time>
      </trkpt>
      <trkpt lat="47.679182" lon="7.737480">
        <ele>367.385859</ele>
        <time>2021-11-22T09:26:39.776Z</time>
      </trkpt>
      <trkpt lat="47.679312" lon="7.737558">
        <ele>367.528072</ele>
        <time>2021-11-22T09:26:42.975Z</time>
      </trkpt>
      <trkpt lat="47.679681" lon="7.737780">
        <ele>367.931890</ele>
        <time>2021-11-22T09:26:51.367Z</time>
      </trkpt>
      <trkpt lat="47.680227" lon="7.738094">
        <ele>368.560781</ele>
        <time>2021-11-22T09:27:03.270Z</time>
      </trkpt>
      <trkpt lat="47.680533" lon="7.738227">
        <ele>368.938363</ele>
        <time>2021-11-22T09:27:09.686Z</time>
      </trkpt>
      <trkpt lat="47.681369" lon="7.738489">
        <ele>369.950206</ele>
        <time>2021-11-22T09:27:26.346Z</time>
      </trkpt>
      <trkpt lat="47.683198" lon="7.738684">
        <ele>371.785980</ele>
        <time>2021-11-22T09:28:00.155Z</time>
      </trkpt>
      <trkpt lat="47.683619" lon="7.738743">
        <ele>372.205481</ele>
        <time>2021-11-22T09:28:08.194Z</time>
      </trkpt>
      <trkpt lat="47.683955" lon="7.738770">
        <ele>372.690961</ele>
        <time>2021-11-22T09:28:14.752Z</time>
      </trkpt>
      <trkpt lat="47.684345" lon="7.738781">
        <ele>373.253743</ele>
        <time>2021-11-22T09:28:22.468Z</time>
      </trkpt>
      <trkpt lat="47.684782" lon="7.738700">
        <ele>373.889124</ele>
        <time>2021-11-22T09:28:31.909Z</time>
      </trkpt>
      <trkpt lat="47.685295" lon="7.738591">
        <ele>374.636799</ele>
        <time>2021-11-22T09:28:43.076Z</time>
      </trkpt>
      <trkpt lat="47.685798" lon="7.738458">
        <ele>375.566183</ele>
        <time>2021-11-22T09:28:53.828Z</time>
      </trkpt>
      <trkpt lat="47.685871" lon="7.738439">
        <ele>375.705793</ele>
        <time>2021-11-22T09:28:55.654Z</time>
      </trkpt>
      <trkpt lat="47.686856" lon="7.738288">
        <ele>377.571149</ele>
        <time>2021-11-22T09:29:17.558Z</time>
      </trkpt>
      <trkpt lat="47.688003" lon="7.737904">
        <ele>379.989720</ele>
        <time>2021-11-22T09:29:45.923Z</time>
      </trkpt>
      <trkpt lat="47.688176" lon="7.737850">
        <ele>380.363767</ele>
        <time>2021-11-22T09:29:50.137Z</time>
      </trkpt>
      <trkpt lat="47.688795" lon="7.737743">
        <ele>381.682357</ele>
        <time>2021-11-22T09:30:03.942Z</time>
      </trkpt>
      <trkpt lat="47.688900" lon="7.737742">
        <ele>381.904533</ele>
        <time>2021-11-22T09:30:06.332Z</time>
      </trkpt>
      <trkpt lat="47.689192" lon="7.737735">
        <ele>382.572128</ele>
        <time>2021-11-22T09:30:12.896Z</time>
      </trkpt>
      <trkpt lat="47.689715" lon="7.737879">
        <ele>383.793384</ele>
        <time>2021-11-22T09:30:25.279Z</time>
      </trkpt>
      <trkpt lat="47.690188" lon="7.738141">
        <ele>384.952425</ele>
        <time>2021-11-22T09:30:37.415Z</time>
      </trkpt>
      <trkpt lat="47.690373" lon="7.738251">
        <ele>385.409944</ele>
        <time>2021-11-22T09:30:42.563Z</time>
      </trkpt>
      <trkpt lat="47.690414" lon="7.738257">
        <ele>385.504535</ele>
        <time>2021-11-22T09:30:43.431Z</time>
      </trkpt>
      <trkpt lat="47.690466" lon="7.738254">
        <ele>385.624017</ele>
        <time>2021-11-22T09:30:44.483Z</time>
      </trkpt>
      <trkpt lat="47.690534" lon="7.738217">
        <ele>385.790287</ele>
        <time>2021-11-22T09:30:46.058Z</time>
      </trkpt>
      <trkpt lat="47.690547" lon="7.738192">
        <ele>385.839111</ele>
        <time>2021-11-22T09:30:46.606Z</time>
      </trkpt>
      <trkpt lat="47.690574" lon="7.738144">
        <ele>385.935788</ele>
        <time>2021-11-22T09:30:47.988Z</time>
      </trkpt>
      <trkpt lat="47.690617" lon="7.737791">
        <ele>386.795786</ele>
        <time>2021-11-22T09:30:54.023Z</time>
      </trkpt>
      <trkpt lat="47.690620" lon="7.737763">
        <ele>386.871360</ele>
        <time>2021-11-22T09:30:54.469Z</time>
      </trkpt>
      <trkpt lat="47.690632" lon="7.737490">
        <ele>387.600603</ele>
        <time>2021-11-22T09:30:59.951Z</time>
      </trkpt>
      <trkpt lat="47.690679" lon="7.737208">
        <ele>388.374982</ele>
        <time>2021-11-22T09:31:04.622Z</time>
      </trkpt>
      <trkpt lat="47.690725" lon="7.737033">
        <ele>388.875755</ele>
        <time>2021-11-22T09:31:08.815Z</time>
      </trkpt>
      <trkpt lat="47.690749" lon="7.736943">
        <ele>389.133793</ele>
        <time>2021-11-22T09:31:11.161Z</time>
      </trkpt>
      <trkpt lat="47.690889" lon="7.736615">
        <ele>390.169038</ele>
        <time>2021-11-22T09:31:18.902Z</time>
      </trkpt>
      <trkpt lat="47.690896" lon="7.736599">
        <ele>390.219903</ele>
        <time>2021-11-22T09:31:19.488Z</time>
      </trkpt>
      <trkpt lat="47.691042" lon="7.736262">
        <ele>391.288154</ele>
        <time>2021-11-22T09:31:28.012Z</time>
      </trkpt>
      <trkpt lat="47.691079" lon="7.736139">
        <ele>391.647262</ele>
        <time>2021-11-22T09:31:31.472Z</time>
      </trkpt>
      <trkpt lat="47.691112" lon="7.736029">
        <ele>391.968270</ele>
        <time>2021-11-22T09:31:34.618Z</time>
      </trkpt>
      <trkpt lat="47.691151" lon="7.735638">
        <ele>393.021866</ele>
        <time>2021-11-22T09:31:43.063Z</time>
      </trkpt>
      <trkpt lat="47.691181" lon="7.735378">
        <ele>393.866230</ele>
        <time>2021-11-22T09:31:49.928Z</time>
      </trkpt>
      <trkpt lat="47.691228" lon="7.735244">
        <ele>394.375504</ele>
        <time>2021-11-22T09:31:52.904Z</time>
      </trkpt>
      <trkpt lat="47.691290" lon="7.735124">
        <ele>394.885362</ele>
        <time>2021-11-22T09:31:56.573Z</time>
      </trkpt>
      <trkpt lat="47.691410" lon="7.734953">
        <ele>395.717948</ele>
        <time>2021-11-22T09:32:02.894Z</time>
      </trkpt>
      <trkpt lat="47.691565" lon="7.734601">
        <ele>397.135641</ele>
        <time>2021-11-22T09:32:12.551Z</time>
      </trkpt>
      <trkpt lat="47.691821" lon="7.733370">
        <ele>401.478104</ele>
        <time>2021-11-22T09:32:42.998Z</time>
      </trkpt>
      <trkpt lat="47.692100" lon="7.732458">
        <ele>404.295844</ele>
        <time>2021-11-22T09:33:06.335Z</time>
      </trkpt>
      <trkpt lat="47.692365" lon="7.731840">
        <ele>406.246330</ele>
        <time>2021-11-22T09:33:22.537Z</time>
      </trkpt>
      <trkpt lat="47.692919" lon="7.730904">
        <ele>409.438428</ele>
        <time>2021-11-22T09:33:46.063Z</time>
      </trkpt>
      <trkpt lat="47.693469" lon="7.729648">
        <ele>411.455087</ele>
        <time>2021-11-22T09:34:08.102Z</time>
      </trkpt>
      <trkpt lat="47.693568" lon="7.729472">
        <ele>411.763783</ele>
        <time>2021-11-22T09:34:10.284Z</time>
      </trkpt>
      <trkpt lat="47.693776" lon="7.729311">
        <ele>412.232743</ele>
        <time>2021-11-22T09:34:16.474Z</time>
      </trkpt>
      <trkpt lat="47.693870" lon="7.729281">
        <ele>412.424985</ele>
        <time>2021-11-22T09:34:17.655Z</time>
      </trkpt>
      <trkpt lat="47.693987" lon="7.729271">
        <ele>412.659314</ele>
        <time>2021-11-22T09:34:20.706Z</time>
      </trkpt>
      <trkpt lat="47.694378" lon="7.729421">
        <ele>413.908880</ele>
        <time>2021-11-22T09:34:30.184Z</time>
      </trkpt>
      <trkpt lat="47.694711" lon="7.729402">
        <ele>415.100871</ele>
        <time>2021-11-22T09:34:38.119Z</time>
      </trkpt>
      <trkpt lat="47.695807" lon="7.728706">
        <ele>419.379717</ele>
        <time>2021-11-22T09:35:15.134Z</time>
      </trkpt>
      <trkpt lat="47.696413" lon="7.728504">
        <ele>423.012555</ele>
        <time>2021-11-22T09:35:38.875Z</time>
      </trkpt>
      <trkpt lat="47.696568" lon="7.728354">
        <ele>424.094573</ele>
        <time>2021-11-22T09:35:45.730Z</time>
      </trkpt>
      <trkpt lat="47.696636" lon="7.728107">
        <ele>425.145206</ele>
        <time>2021-11-22T09:35:53.225Z</time>
      </trkpt>
      <trkpt lat="47.696602" lon="7.727678">
        <ele>426.845830</ele>
        <time>2021-11-22T09:36:04.635Z</time>
      </trkpt>
      <trkpt lat="47.696640" lon="7.727461">
        <ele>427.728592</ele>
        <time>2021-11-22T09:36:10.621Z</time>
      </trkpt>
      <trkpt lat="47.696750" lon="7.727287">
        <ele>428.668416</ele>
        <time>2021-11-22T09:36:17.040Z</time>
      </trkpt>
      <trkpt lat="47.696882" lon="7.727201">
        <ele>429.511506</ele>
        <time>2021-11-22T09:36:23.040Z</time>
      </trkpt>
      <trkpt lat="47.697049" lon="7.727109">
        <ele>430.663932</ele>
        <time>2021-11-22T09:36:29.921Z</time>
      </trkpt>
      <trkpt lat="47.697155" lon="7.726954">
        <ele>431.672825</ele>
        <time>2021-11-22T09:36:36.343Z</time>
      </trkpt>
      <trkpt lat="47.697199" lon="7.726673">
        <ele>432.990047</ele>
        <time>2021-11-22T09:36:43.760Z</time>
      </trkpt>
      <trkpt lat="47.697197" lon="7.725491">
        <ele>438.386710</ele>
        <time>2021-11-22T09:37:16.852Z</time>
      </trkpt>
      <trkpt lat="47.697272" lon="7.725045">
        <ele>440.485603</ele>
        <time>2021-11-22T09:37:30.373Z</time>
      </trkpt>
      <trkpt lat="47.697392" lon="7.724648">
        <ele>442.473878</ele>
        <time>2021-11-22T09:37:43.718Z</time>
      </trkpt>
      <trkpt lat="47.697983" lon="7.724178">
        <ele>447.035539</ele>
        <time>2021-11-22T09:38:13.046Z</time>
      </trkpt>
      <trkpt lat="47.698038" lon="7.724068">
        <ele>447.663159</ele>
        <time>2021-11-22T09:38:17.062Z</time>
      </trkpt>
      <trkpt lat="47.698067" lon="7.723848">
        <ele>448.689918</ele>
        <time>2021-11-22T09:38:23.562Z</time>
      </trkpt>
      <trkpt lat="47.697898" lon="7.723278">
        <ele>451.542651</ele>
        <time>2021-11-22T09:38:41.214Z</time>
      </trkpt>
      <trkpt lat="47.697882" lon="7.723002">
        <ele>452.811435</ele>
        <time>2021-11-22T09:38:48.842Z</time>
      </trkpt>
      <trkpt lat="47.698034" lon="7.722637">
        <ele>454.576723</ele>
        <time>2021-11-22T09:39:00.224Z</time>
      </trkpt>
      <trkpt lat="47.698436" lon="7.722264">
        <ele>456.440808</ele>
        <time>2021-11-22T09:39:17.540Z</time>
      </trkpt>
      <trkpt lat="47.698550" lon="7.722049">
        <ele>457.165339</ele>
        <time>2021-11-22T09:39:23.623Z</time>
      </trkpt>
      <trkpt lat="47.698576" lon="7.721872">
        <ele>457.644906</ele>
        <time>2021-11-22T09:39:27.497Z</time>
      </trkpt>
      <trkpt lat="47.698538" lon="7.721642">
        <ele>458.271816</ele>
        <time>2021-11-22T09:39:32.202Z</time>
      </trkpt>
      <trkpt lat="47.698352" lon="7.721277">
        <ele>459.483718</ele>
        <time>2021-11-22T09:39:40.515Z</time>
      </trkpt>
      <trkpt lat="47.698322" lon="7.720917">
        <ele>460.443956</ele>
        <time>2021-11-22T09:39:46.427Z</time>
      </trkpt>
      <trkpt lat="47.698373" lon="7.720791">
        <ele>460.833163</ele>
        <time>2021-11-22T09:39:48.837Z</time>
      </trkpt>
      <trkpt lat="47.698719" lon="7.720634">
        <ele>461.879044</ele>
        <time>2021-11-22T09:39:57.156Z</time>
      </trkpt>
      <trkpt lat="47.698915" lon="7.720419">
        <ele>462.426619</ele>
        <time>2021-11-22T09:40:02.506Z</time>
      </trkpt>
      <trkpt lat="47.698895" lon="7.720013">
        <ele>463.042414</ele>
        <time>2021-11-22T09:40:08.513Z</time>
      </trkpt>
      <trkpt lat="47.698602" lon="7.719531">
        <ele>464.024908</ele>
        <time>2021-11-22T09:40:18.028Z</time>
      </trkpt>
      <trkpt lat="47.698527" lon="7.719311">
        <ele>464.397959</ele>
        <time>2021-11-22T09:40:21.779Z</time>
      </trkpt>
      <trkpt lat="47.698554" lon="7.718962">
        <ele>464.929368</ele>
        <time>2021-11-22T09:40:27.122Z</time>
      </trkpt>
      <trkpt lat="47.699586" lon="7.717231">
        <ele>470.873124</ele>
        <time>2021-11-22T09:41:13.158Z</time>
      </trkpt>
      <trkpt lat="47.699623" lon="7.716555">
        <ele>472.733072</ele>
        <time>2021-11-22T09:41:29.447Z</time>
      </trkpt>
      <trkpt lat="47.699987" lon="7.716032">
        <ele>475.962312</ele>
        <time>2021-11-22T09:41:48.275Z</time>
      </trkpt>
      <trkpt lat="47.700082" lon="7.715024">
        <ele>480.342372</ele>
        <time>2021-11-22T09:42:16.735Z</time>
      </trkpt>
      <trkpt lat="47.700648" lon="7.713594">
        <ele>487.919187</ele>
        <time>2021-11-22T09:43:04.983Z</time>
      </trkpt>
      <trkpt lat="47.700741" lon="7.713327">
        <ele>489.388120</ele>
        <time>2021-11-22T09:43:14.104Z</time>
      </trkpt>
      <trkpt lat="47.700757" lon="7.713174">
        <ele>490.144651</ele>
        <time>2021-11-22T09:43:17.990Z</time>
      </trkpt>
      <trkpt lat="47.700760" lon="7.713140">
        <ele>490.312197</ele>
        <time>2021-11-22T09:43:18.911Z</time>
      </trkpt>
      <trkpt lat="47.700773" lon="7.712812">
        <ele>491.917585</ele>
        <time>2021-11-22T09:43:28.764Z</time>
      </trkpt>
      <trkpt lat="47.700773" lon="7.712553">
        <ele>493.183062</ele>
        <time>2021-11-22T09:43:35.685Z</time>
      </trkpt>
      <trkpt lat="47.700782" lon="7.711609">
        <ele>497.885993</ele>
        <time>2021-11-22T09:44:04.463Z</time>
      </trkpt>
      <trkpt lat="47.700889" lon="7.711038">
        <ele>501.315312</ele>
        <time>2021-11-22T09:44:23.575Z</time>
      </trkpt>
      <trkpt lat="47.701112" lon="7.710324">
        <ele>505.869471</ele>
        <time>2021-11-22T09:44:48.410Z</time>
      </trkpt>
      <trkpt lat="47.701125" lon="7.710130">
        <ele>506.997444</ele>
        <time>2021-11-22T09:44:54.803Z</time>
      </trkpt>
      <trkpt lat="47.701087" lon="7.709941">
        <ele>508.138695</ele>
        <time>2021-11-22T09:45:01.426Z</time>
      </trkpt>
      <trkpt lat="47.700855" lon="7.709567">
        <ele>511.081516</ele>
        <time>2021-11-22T09:45:19.212Z</time>
      </trkpt>
      <trkpt lat="47.700766" lon="7.709160">
        <ele>513.702973</ele>
        <time>2021-11-22T09:45:34.898Z</time>
      </trkpt>
      <trkpt lat="47.700894" lon="7.708521">
        <ele>518.272486</ele>
        <time>2021-11-22T09:45:59.936Z</time>
      </trkpt>
      <trkpt lat="47.701453" lon="7.707428">
        <ele>527.681405</ele>
        <time>2021-11-22T09:46:52.521Z</time>
      </trkpt>
      <trkpt lat="47.701543" lon="7.707149">
        <ele>529.801932</ele>
        <time>2021-11-22T09:47:05.544Z</time>
      </trkpt>
      <trkpt lat="47.701634" lon="7.706675">
        <ele>532.355268</ele>
        <time>2021-11-22T09:47:23.667Z</time>
      </trkpt>
      <trkpt lat="47.701664" lon="7.705991">
        <ele>535.201743</ele>
        <time>2021-11-22T09:47:45.282Z</time>
      </trkpt>
      <trkpt lat="47.701669" lon="7.705747">
        <ele>536.215472</ele>
        <time>2021-11-22T09:47:52.977Z</time>
      </trkpt>
      <trkpt lat="47.701671" lon="7.705550">
        <ele>537.033647</ele>
        <time>2021-11-22T09:47:58.894Z</time>
      </trkpt>
      <trkpt lat="47.701682" lon="7.705497">
        <ele>537.263969</ele>
        <time>2021-11-22T09:48:00.066Z</time>
      </trkpt>
      <trkpt lat="47.701729" lon="7.705263">
        <ele>538.278055</ele>
        <time>2021-11-22T09:48:05.599Z</time>
      </trkpt>
      <trkpt lat="47.701766" lon="7.705214">
        <ele>538.583881</ele>
        <time>2021-11-22T09:48:07.741Z</time>
      </trkpt>
      <trkpt lat="47.701815" lon="7.705198">
        <ele>538.893451</ele>
        <time>2021-11-22T09:48:09.641Z</time>
      </trkpt>
      <trkpt lat="47.701844" lon="7.705188">
        <ele>539.077151</ele>
        <time>2021-11-22T09:48:10.471Z</time>
      </trkpt>
      <trkpt lat="47.702149" lon="7.705078">
        <ele>541.013801</ele>
        <time>2021-11-22T09:48:19.706Z</time>
      </trkpt>
      <trkpt lat="47.702251" lon="7.705127">
        <ele>541.675269</ele>
        <time>2021-11-22T09:48:22.263Z</time>
      </trkpt>
      <trkpt lat="47.702741" lon="7.705867">
        <ele>540.996026</ele>
        <time>2021-11-22T09:48:36.028Z</time>
      </trkpt>
      <trkpt lat="47.702886" lon="7.705990">
        <ele>540.673601</ele>
        <time>2021-11-22T09:48:37.879Z</time>
      </trkpt>
      <trkpt lat="47.702945" lon="7.706001">
        <ele>540.558772</ele>
        <time>2021-11-22T09:48:38.458Z</time>
      </trkpt>
      <trkpt lat="47.703038" lon="7.705977">
        <ele>540.376490</ele>
        <time>2021-11-22T09:48:39.535Z</time>
      </trkpt>
      <trkpt lat="47.703130" lon="7.705816">
        <ele>540.102004</ele>
        <time>2021-11-22T09:48:41.025Z</time>
      </trkpt>
      <trkpt lat="47.703180" lon="7.705332">
        <ele>539.465638</ele>
        <time>2021-11-22T09:48:44.187Z</time>
      </trkpt>
      <trkpt lat="47.703204" lon="7.705100">
        <ele>539.160593</ele>
        <time>2021-11-22T09:48:45.630Z</time>
      </trkpt>
      <trkpt lat="47.703383" lon="7.704126">
        <ele>536.544247</ele>
        <time>2021-11-22T09:48:52.002Z</time>
      </trkpt>
      <trkpt lat="47.703454" lon="7.703909">
        <ele>535.757161</ele>
        <time>2021-11-22T09:48:53.545Z</time>
      </trkpt>
      <trkpt lat="47.703629" lon="7.703713">
        <ele>534.694936</ele>
        <time>2021-11-22T09:48:55.614Z</time>
      </trkpt>
      <trkpt lat="47.703966" lon="7.703536">
        <ele>532.962391</ele>
        <time>2021-11-22T09:48:59.132Z</time>
      </trkpt>
      <trkpt lat="47.704021" lon="7.703518">
        <ele>532.689405</ele>
        <time>2021-11-22T09:48:59.785Z</time>
      </trkpt>
      <trkpt lat="47.704073" lon="7.703501">
        <ele>532.431322</ele>
        <time>2021-11-22T09:49:00.766Z</time>
      </trkpt>
      <trkpt lat="47.704129" lon="7.703437">
        <ele>532.088882</ele>
        <time>2021-11-22T09:49:01.577Z</time>
      </trkpt>
      <trkpt lat="47.704143" lon="7.703228">
        <ele>531.403761</ele>
        <time>2021-11-22T09:49:02.782Z</time>
      </trkpt>
      <trkpt lat="47.704152" lon="7.702758">
        <ele>529.841990</ele>
        <time>2021-11-22T09:49:05.726Z</time>
      </trkpt>
      <trkpt lat="47.704212" lon="7.702603">
        <ele>529.126587</ele>
        <time>2021-11-22T09:49:06.901Z</time>
      </trkpt>
      <trkpt lat="47.704291" lon="7.702552">
        <ele>528.614513</ele>
        <time>2021-11-22T09:49:08.273Z</time>
      </trkpt>
      <trkpt lat="47.704396" lon="7.702541">
        <ele>527.988723</ele>
        <time>2021-11-22T09:49:09.207Z</time>
      </trkpt>
      <trkpt lat="47.704897" lon="7.702817">
        <ele>524.812111</ele>
        <time>2021-11-22T09:49:14.053Z</time>
      </trkpt>
      <trkpt lat="47.704991" lon="7.702794">
        <ele>524.245742</ele>
        <time>2021-11-22T09:49:15.599Z</time>
      </trkpt>
      <trkpt lat="47.705039" lon="7.702741">
        <ele>523.890220</ele>
        <time>2021-11-22T09:49:16.168Z</time>
      </trkpt>
      <trkpt lat="47.705073" lon="7.702646">
        <ele>523.459739</ele>
        <time>2021-11-22T09:49:16.762Z</time>
      </trkpt>
      <trkpt lat="47.705041" lon="7.702450">
        <ele>522.652841</ele>
        <time>2021-11-22T09:49:18.063Z</time>
      </trkpt>
      <trkpt lat="47.704509" lon="7.701457">
        <ele>517.567757</ele>
        <time>2021-11-22T09:49:25.900Z</time>
      </trkpt>
      <trkpt lat="47.704361" lon="7.700916">
        <ele>515.221762</ele>
        <time>2021-11-22T09:49:29.386Z</time>
      </trkpt>
      <trkpt lat="47.704371" lon="7.699567">
        <ele>509.802276</ele>
        <time>2021-11-22T09:49:37.683Z</time>
      </trkpt>
      <trkpt lat="47.704424" lon="7.698936">
        <ele>507.987219</ele>
        <time>2021-11-22T09:49:41.839Z</time>
      </trkpt>
      <trkpt lat="47.704368" lon="7.698416">
        <ele>507.060496</ele>
        <time>2021-11-22T09:49:45.420Z</time>
      </trkpt>
      <trkpt lat="47.704663" lon="7.696628">
        <ele>503.846758</ele>
        <time>2021-11-22T09:49:59.097Z</time>
      </trkpt>
      <trkpt lat="47.704721" lon="7.695896">
        <ele>503.402959</ele>
        <time>2021-11-22T09:50:04.922Z</time>
      </trkpt>
      <trkpt lat="47.705014" lon="7.694965">
        <ele>502.784110</ele>
        <time>2021-11-22T09:50:13.316Z</time>
      </trkpt>
      <trkpt lat="47.705028" lon="7.694780">
        <ele>502.672015</ele>
        <time>2021-11-22T09:50:14.873Z</time>
      </trkpt>
      <trkpt lat="47.705015" lon="7.694480">
        <ele>502.491005</ele>
        <time>2021-11-22T09:50:17.473Z</time>
      </trkpt>
      <trkpt lat="47.704730" lon="7.693699">
        <ele>502.419754</ele>
        <time>2021-11-22T09:50:25.842Z</time>
      </trkpt>
      <trkpt lat="47.704705" lon="7.693128">
        <ele>502.617077</ele>
        <time>2021-11-22T09:50:34.548Z</time>
      </trkpt>
      <trkpt lat="47.704799" lon="7.692803">
        <ele>502.739064</ele>
        <time>2021-11-22T09:50:38.405Z</time>
      </trkpt>
      <trkpt lat="47.705019" lon="7.692455">
        <ele>502.903718</ele>
        <time>2021-11-22T09:50:44.130Z</time>
      </trkpt>
      <trkpt lat="47.705203" lon="7.692033">
        <ele>503.077117</ele>
        <time>2021-11-22T09:50:49.999Z</time>
      </trkpt>
      <trkpt lat="47.705351" lon="7.691915">
        <ele>503.163185</ele>
        <time>2021-11-22T09:50:53.365Z</time>
      </trkpt>
      <trkpt lat="47.705689" lon="7.691712">
        <ele>502.620100</ele>
        <time>2021-11-22T09:50:59.037Z</time>
      </trkpt>
      <trkpt lat="47.705873" lon="7.691537">
        <ele>502.271485</ele>
        <time>2021-11-22T09:51:01.664Z</time>
      </trkpt>
      <trkpt lat="47.706118" lon="7.691282">
        <ele>501.794156</ele>
        <time>2021-11-22T09:51:05.471Z</time>
      </trkpt>
      <trkpt lat="47.706250" lon="7.690885">
        <ele>501.318633</ele>
        <time>2021-11-22T09:51:08.966Z</time>
      </trkpt>
      <trkpt lat="47.706274" lon="7.690649">
        <ele>501.062324</ele>
        <time>2021-11-22T09:51:10.697Z</time>
      </trkpt>
      <trkpt lat="47.706075" lon="7.689692">
        <ele>499.247165</ele>
        <time>2021-11-22T09:51:17.369Z</time>
      </trkpt>
      <trkpt lat="47.706205" lon="7.688984">
        <ele>496.612580</ele>
        <time>2021-11-22T09:51:22.084Z</time>
      </trkpt>
      <trkpt lat="47.706339" lon="7.688694">
        <ele>495.349703</ele>
        <time>2021-11-22T09:51:24.338Z</time>
      </trkpt>
      <trkpt lat="47.706653" lon="7.688356">
        <ele>493.281299</ele>
        <time>2021-11-22T09:51:27.865Z</time>
      </trkpt>
      <trkpt lat="47.706815" lon="7.687723">
        <ele>490.850110</ele>
        <time>2021-11-22T09:51:31.953Z</time>
      </trkpt>
      <trkpt lat="47.706806" lon="7.687393">
        <ele>489.868576</ele>
        <time>2021-11-22T09:51:33.974Z</time>
      </trkpt>
      <trkpt lat="47.706505" lon="7.686637">
        <ele>487.332502</ele>
        <time>2021-11-22T09:51:39.412Z</time>
      </trkpt>
      <trkpt lat="47.706395" lon="7.686460">
        <ele>486.636895</ele>
        <time>2021-11-22T09:51:40.902Z</time>
      </trkpt>
      <trkpt lat="47.706315" lon="7.686377">
        <ele>486.218291</ele>
        <time>2021-11-22T09:51:41.835Z</time>
      </trkpt>
      <trkpt lat="47.706214" lon="7.686304">
        <ele>485.736428</ele>
        <time>2021-11-22T09:51:43.112Z</time>
      </trkpt>
      <trkpt lat="47.705734" lon="7.686280">
        <ele>483.675886</ele>
        <time>2021-11-22T09:51:48.163Z</time>
      </trkpt>
      <trkpt lat="47.705588" lon="7.686098">
        <ele>482.996435</ele>
        <time>2021-11-22T09:51:50.459Z</time>
      </trkpt>
      <trkpt lat="47.705527" lon="7.685792">
        <ele>483.040083</ele>
        <time>2021-11-22T09:51:52.833Z</time>
      </trkpt>
      <trkpt lat="47.705598" lon="7.685425">
        <ele>483.092309</ele>
        <time>2021-11-22T09:51:56.105Z</time>
      </trkpt>
      <trkpt lat="47.705826" lon="7.684660">
        <ele>483.206737</ele>
        <time>2021-11-22T09:52:05.052Z</time>
      </trkpt>
      <trkpt lat="47.705881" lon="7.684506">
        <ele>483.230581</ele>
        <time>2021-11-22T09:52:07.699Z</time>
      </trkpt>
      <trkpt lat="47.706044" lon="7.684180">
        <ele>483.286126</ele>
        <time>2021-11-22T09:52:13.218Z</time>
      </trkpt>
      <trkpt lat="47.706149" lon="7.684067">
        <ele>483.312474</ele>
        <time>2021-11-22T09:52:16.176Z</time>
      </trkpt>
      <trkpt lat="47.706351" lon="7.683947">
        <ele>483.357297</ele>
        <time>2021-11-22T09:52:20.574Z</time>
      </trkpt>
      <trkpt lat="47.706927" lon="7.683483">
        <ele>483.575843</ele>
        <time>2021-11-22T09:52:33.782Z</time>
      </trkpt>
      <trkpt lat="47.707414" lon="7.682894">
        <ele>483.785289</ele>
        <time>2021-11-22T09:52:42.478Z</time>
      </trkpt>
      <trkpt lat="47.707531" lon="7.682751">
        <ele>483.835820</ele>
        <time>2021-11-22T09:52:44.318Z</time>
      </trkpt>
      <trkpt lat="47.707720" lon="7.682649">
        <ele>483.902892</ele>
        <time>2021-11-22T09:52:46.997Z</time>
      </trkpt>
      <trkpt lat="47.708065" lon="7.682585">
        <ele>483.418827</ele>
        <time>2021-11-22T09:52:52.005Z</time>
      </trkpt>
      <trkpt lat="47.708243" lon="7.682684">
        <ele>482.880005</ele>
        <time>2021-11-22T09:52:55.000Z</time>
      </trkpt>
      <trkpt lat="47.708481" lon="7.683115">
        <ele>481.816365</ele>
        <time>2021-11-22T09:53:01.265Z</time>
      </trkpt>
      <trkpt lat="47.708943" lon="7.683354">
        <ele>480.429485</ele>
        <time>2021-11-22T09:53:06.048Z</time>
      </trkpt>
      <trkpt lat="47.709160" lon="7.684386">
        <ele>477.345526</ele>
        <time>2021-11-22T09:53:12.828Z</time>
      </trkpt>
      <trkpt lat="47.709249" lon="7.684498">
        <ele>476.325175</ele>
        <time>2021-11-22T09:53:13.930Z</time>
      </trkpt>
      <trkpt lat="47.709418" lon="7.684480">
        <ele>474.842767</ele>
        <time>2021-11-22T09:53:15.549Z</time>
      </trkpt>
      <trkpt lat="47.709444" lon="7.684446">
        <ele>474.539760</ele>
        <time>2021-11-22T09:53:15.862Z</time>
      </trkpt>
      <trkpt lat="47.709477" lon="7.684403">
        <ele>474.155771</ele>
        <time>2021-11-22T09:53:16.221Z</time>
      </trkpt>
      <trkpt lat="47.709521" lon="7.684250">
        <ele>473.176207</ele>
        <time>2021-11-22T09:53:17.260Z</time>
      </trkpt>
      <trkpt lat="47.709553" lon="7.683244">
        <ele>467.247025</ele>
        <time>2021-11-22T09:53:23.124Z</time>
      </trkpt>
      <trkpt lat="47.709981" lon="7.681865">
        <ele>458.729444</ele>
        <time>2021-11-22T09:53:31.819Z</time>
      </trkpt>
      <trkpt lat="47.710111" lon="7.681645">
        <ele>457.157184</ele>
        <time>2021-11-22T09:53:33.529Z</time>
      </trkpt>
      <trkpt lat="47.710620" lon="7.681447">
        <ele>452.958269</ele>
        <time>2021-11-22T09:53:38.180Z</time>
      </trkpt>
      <trkpt lat="47.711325" lon="7.680975">
        <ele>448.219020</ele>
        <time>2021-11-22T09:53:45.473Z</time>
      </trkpt>
      <trkpt lat="47.711472" lon="7.680508">
        <ele>447.453918</ele>
        <time>2021-11-22T09:53:49.167Z</time>
      </trkpt>
      <trkpt lat="47.711955" lon="7.679497">
        <ele>445.613917</ele>
        <time>2021-11-22T09:54:00.205Z</time>
      </trkpt>
      <trkpt lat="47.712100" lon="7.679454">
        <ele>445.287821</ele>
        <time>2021-11-22T09:54:04.100Z</time>
      </trkpt>
      <trkpt lat="47.712883" lon="7.680135">
        <ele>440.672255</ele>
        <time>2021-11-22T09:54:12.973Z</time>
      </trkpt>
      <trkpt lat="47.712975" lon="7.680138">
        <ele>440.118313</ele>
        <time>2021-11-22T09:54:16.934Z</time>
      </trkpt>
      <trkpt lat="47.713027" lon="7.680082">
        <ele>439.731753</ele>
        <time>2021-11-22T09:54:17.515Z</time>
      </trkpt>
      <trkpt lat="47.713040" lon="7.680029">
        <ele>439.503268</ele>
        <time>2021-11-22T09:54:17.853Z</time>
      </trkpt>
      <trkpt lat="47.713062" lon="7.679942">
        <ele>439.126829</ele>
        <time>2021-11-22T09:54:18.360Z</time>
      </trkpt>
      <trkpt lat="47.712582" lon="7.679169">
        <ele>434.866394</ele>
        <time>2021-11-22T09:54:24.652Z</time>
      </trkpt>
      <trkpt lat="47.712428" lon="7.678763">
        <ele>432.346803</ele>
        <time>2021-11-22T09:54:27.457Z</time>
      </trkpt>
      <trkpt lat="47.712374" lon="7.678233">
        <ele>428.794139</ele>
        <time>2021-11-22T09:54:30.518Z</time>
      </trkpt>
      <trkpt lat="47.712502" lon="7.677710">
        <ele>425.105734</ele>
        <time>2021-11-22T09:54:33.650Z</time>
      </trkpt>
      <trkpt lat="47.712612" lon="7.677426">
        <ele>422.933925</ele>
        <time>2021-11-22T09:54:35.543Z</time>
      </trkpt>
      <trkpt lat="47.713251" lon="7.676281">
        <ele>414.549095</ele>
        <time>2021-11-22T09:54:44.294Z</time>
      </trkpt>
      <trkpt lat="47.713654" lon="7.675903">
        <ele>412.031126</ele>
        <time>2021-11-22T09:54:48.697Z</time>
      </trkpt>
      <trkpt lat="47.714388" lon="7.675415">
        <ele>407.782454</ele>
        <time>2021-11-22T09:54:56.646Z</time>
      </trkpt>
      <trkpt lat="47.714651" lon="7.675347">
        <ele>406.389842</ele>
        <time>2021-11-22T09:54:59.485Z</time>
      </trkpt>
      <trkpt lat="47.714924" lon="7.675509">
        <ele>404.909921</ele>
        <time>2021-11-22T09:55:02.214Z</time>
      </trkpt>
      <trkpt lat="47.714962" lon="7.675531">
        <ele>404.704607</ele>
        <time>2021-11-22T09:55:03.225Z</time>
      </trkpt>
      <trkpt lat="47.715676" lon="7.676459">
        <ele>399.929405</ele>
        <time>2021-11-22T09:55:12.604Z</time>
      </trkpt>
      <trkpt lat="47.715913" lon="7.676464">
        <ele>398.736104</ele>
        <time>2021-11-22T09:55:14.970Z</time>
      </trkpt>
      <trkpt lat="47.716031" lon="7.676354">
        <ele>398.034853</ele>
        <time>2021-11-22T09:55:16.135Z</time>
      </trkpt>
      <trkpt lat="47.716069" lon="7.676265">
        <ele>397.656015</ele>
        <time>2021-11-22T09:55:16.777Z</time>
      </trkpt>
      <trkpt lat="47.715866" lon="7.676034">
        <ele>394.831957</ele>
        <time>2021-11-22T09:55:18.993Z</time>
      </trkpt>
      <trkpt lat="47.715513" lon="7.675557">
        <ele>389.562135</ele>
        <time>2021-11-22T09:55:23.040Z</time>
      </trkpt>
      <trkpt lat="47.715435" lon="7.675393">
        <ele>388.069527</ele>
        <time>2021-11-22T09:55:24.205Z</time>
      </trkpt>
      <trkpt lat="47.715372" lon="7.675190">
        <ele>386.408090</ele>
        <time>2021-11-22T09:55:25.448Z</time>
      </trkpt>
      <trkpt lat="47.715321" lon="7.674989">
        <ele>384.811583</ele>
        <time>2021-11-22T09:55:26.716Z</time>
      </trkpt>
      <trkpt lat="47.715299" lon="7.674805">
        <ele>383.422687</ele>
        <time>2021-11-22T09:55:27.759Z</time>
      </trkpt>
      <trkpt lat="47.715290" lon="7.674706">
        <ele>382.680241</ele>
        <time>2021-11-22T09:55:28.315Z</time>
      </trkpt>
      <trkpt lat="47.715255" lon="7.674565">
        <ele>381.563298</ele>
        <time>2021-11-22T09:55:29.185Z</time>
      </trkpt>
      <trkpt lat="47.715230" lon="7.674517">
        <ele>381.112170</ele>
        <time>2021-11-22T09:55:29.527Z</time>
      </trkpt>
      <trkpt lat="47.715306" lon="7.674328">
        <ele>379.475789</ele>
        <time>2021-11-22T09:55:30.786Z</time>
      </trkpt>
      <trkpt lat="47.715366" lon="7.674052">
        <ele>377.442278</ele>
        <time>2021-11-22T09:55:32.477Z</time>
      </trkpt>
      <trkpt lat="47.715374" lon="7.673994">
        <ele>377.108013</ele>
        <time>2021-11-22T09:55:32.827Z</time>
      </trkpt>
      <trkpt lat="47.715377" lon="7.673857">
        <ele>376.334132</ele>
        <time>2021-11-22T09:55:33.595Z</time>
      </trkpt>
      <trkpt lat="47.715364" lon="7.673683">
        <ele>375.345728</ele>
        <time>2021-11-22T09:55:34.589Z</time>
      </trkpt>
      <trkpt lat="47.715262" lon="7.672526">
        <ele>368.757720</ele>
        <time>2021-11-22T09:55:41.338Z</time>
      </trkpt>
      <trkpt lat="47.715257" lon="7.672464">
        <ele>368.405175</ele>
        <time>2021-11-22T09:55:41.698Z</time>
      </trkpt>
      <trkpt lat="47.715205" lon="7.671515">
        <ele>363.029579</ele>
        <time>2021-11-22T09:55:47.663Z</time>
      </trkpt>
      <trkpt lat="47.715206" lon="7.671211">
        <ele>362.295774</ele>
        <time>2021-11-22T09:55:49.684Z</time>
      </trkpt>
      <trkpt lat="47.715170" lon="7.670539">
        <ele>361.119402</ele>
        <time>2021-11-22T09:55:54.436Z</time>
      </trkpt>
      <trkpt lat="47.715139" lon="7.670209">
        <ele>360.537956</ele>
        <time>2021-11-22T09:55:56.737Z</time>
      </trkpt>
      <trkpt lat="47.715079" lon="7.669930">
        <ele>360.026826</ele>
        <time>2021-11-22T09:55:59.019Z</time>
      </trkpt>
      <trkpt lat="47.714987" lon="7.669500">
        <ele>359.239435</ele>
        <time>2021-11-22T09:56:02.390Z</time>
      </trkpt>
      <trkpt lat="47.714973" lon="7.669432">
        <ele>359.115341</ele>
        <time>2021-11-22T09:56:02.958Z</time>
      </trkpt>
      <trkpt lat="47.714954" lon="7.669342">
        <ele>358.950738</ele>
        <time>2021-11-22T09:56:03.684Z</time>
      </trkpt>
      <trkpt lat="47.714932" lon="7.669168">
        <ele>358.641787</ele>
        <time>2021-11-22T09:56:04.945Z</time>
      </trkpt>
      <trkpt lat="47.714918" lon="7.668985">
        <ele>358.320387</ele>
        <time>2021-11-22T09:56:06.428Z</time>
      </trkpt>
      <trkpt lat="47.714867" lon="7.667973">
        <ele>356.935064</ele>
        <time>2021-11-22T09:56:14.198Z</time>
      </trkpt>
      <trkpt lat="47.714848" lon="7.667588">
        <ele>356.432218</ele>
        <time>2021-11-22T09:56:17.032Z</time>
      </trkpt>
      <trkpt lat="47.714804" lon="7.667148">
        <ele>355.852779</ele>
        <time>2021-11-22T09:56:20.302Z</time>
      </trkpt>
      <trkpt lat="47.714792" lon="7.666721">
        <ele>355.296085</ele>
        <time>2021-11-22T09:56:23.420Z</time>
      </trkpt>
      <trkpt lat="47.714805" lon="7.666432">
        <ele>354.918794</ele>
        <time>2021-11-22T09:56:25.507Z</time>
      </trkpt>
      <trkpt lat="47.714806" lon="7.666335">
        <ele>354.792427</ele>
        <time>2021-11-22T09:56:26.214Z</time>
      </trkpt>
      <trkpt lat="47.714805" lon="7.666269">
        <ele>354.706434</ele>
        <time>2021-11-22T09:56:26.722Z</time>
      </trkpt>
      <trkpt lat="47.714803" lon="7.666201">
        <ele>354.617773</ele>
        <time>2021-11-22T09:56:27.222Z</time>
      </trkpt>
      <trkpt lat="47.714794" lon="7.666076">
        <ele>354.420736</ele>
        <time>2021-11-22T09:56:28.146Z</time>
      </trkpt>
      <trkpt lat="47.714717" lon="7.665190">
        <ele>352.968203</ele>
        <time>2021-11-22T09:56:34.700Z</time>
      </trkpt>
      <trkpt lat="47.714712" lon="7.664714">
        <ele>352.194170</ele>
        <time>2021-11-22T09:56:38.088Z</time>
      </trkpt>
      <trkpt lat="47.714730" lon="7.664246">
        <ele>351.431997</ele>
        <time>2021-11-22T09:56:41.372Z</time>
      </trkpt>
      <trkpt lat="47.714751" lon="7.663605">
        <ele>350.388547</ele>
        <time>2021-11-22T09:56:45.862Z</time>
      </trkpt>
      <trkpt lat="47.714740" lon="7.663117">
        <ele>349.657662</ele>
        <time>2021-11-22T09:56:49.341Z</time>
      </trkpt>
      <trkpt lat="47.714720" lon="7.662876">
        <ele>349.301301</ele>
        <time>2021-11-22T09:56:51.855Z</time>
      </trkpt>
      <trkpt lat="47.714694" lon="7.662704">
        <ele>349.042590</ele>
        <time>2021-11-22T09:56:53.726Z</time>
      </trkpt>
      <trkpt lat="47.714641" lon="7.662491">
        <ele>348.709309</ele>
        <time>2021-11-22T09:56:56.057Z</time>
      </trkpt>
      <trkpt lat="47.714574" lon="7.662213">
        <ele>348.275944</ele>
        <time>2021-11-22T09:56:59.175Z</time>
      </trkpt>
      <trkpt lat="47.714546" lon="7.662082">
        <ele>348.074226</ele>
        <time>2021-11-22T09:57:00.587Z</time>
      </trkpt>
      <trkpt lat="47.714533" lon="7.662020">
        <ele>347.978921</ele>
        <time>2021-11-22T09:57:01.255Z</time>
      </trkpt>
      <trkpt lat="47.714505" lon="7.661877">
        <ele>347.760354</ele>
        <time>2021-11-22T09:57:02.879Z</time>
      </trkpt>
      <trkpt lat="47.714482" lon="7.661759">
        <ele>347.580061</ele>
        <time>2021-11-22T09:57:04.206Z</time>
      </trkpt>
      <trkpt lat="47.714378" lon="7.661184">
        <ele>346.706254</ele>
        <time>2021-11-22T09:57:10.523Z</time>
      </trkpt>
      <trkpt lat="47.714369" lon="7.661131">
        <ele>346.626034</ele>
        <time>2021-11-22T09:57:11.061Z</time>
      </trkpt>
      <trkpt lat="47.714351" lon="7.661050">
        <ele>346.500846</ele>
        <time>2021-11-22T09:57:11.947Z</time>
      </trkpt>
      <trkpt lat="47.714341" lon="7.661005">
        <ele>346.431297</ele>
        <time>2021-11-22T09:57:12.413Z</time>
      </trkpt>
      <trkpt lat="47.714296" lon="7.660799">
        <ele>346.214131</ele>
        <time>2021-11-22T09:57:14.784Z</time>
      </trkpt>
      <trkpt lat="47.714286" lon="7.660755">
        <ele>346.179461</ele>
        <time>2021-11-22T09:57:15.295Z</time>
      </trkpt>
      <trkpt lat="47.714211" lon="7.660454">
        <ele>345.939844</ele>
        <time>2021-11-22T09:57:18.658Z</time>
      </trkpt>
      <trkpt lat="47.714194" lon="7.660383">
        <ele>345.883585</ele>
        <time>2021-11-22T09:57:19.505Z</time>
      </trkpt>
      <trkpt lat="47.714173" lon="7.660300">
        <ele>345.817387</ele>
        <time>2021-11-22T09:57:20.490Z</time>
      </trkpt>
      <trkpt lat="47.713982" lon="7.659706">
        <ele>345.325915</ele>
        <time>2021-11-22T09:57:27.684Z</time>
      </trkpt>
      <trkpt lat="47.713892" lon="7.659559">
        <ele>345.177543</ele>
        <time>2021-11-22T09:57:29.824Z</time>
      </trkpt>
      <trkpt lat="47.713738" lon="7.659398">
        <ele>344.968638</ele>
        <time>2021-11-22T09:57:33.198Z</time>
      </trkpt>
      <trkpt lat="47.713577" lon="7.659270">
        <ele>344.766052</ele>
        <time>2021-11-22T09:57:36.299Z</time>
      </trkpt>
      <trkpt lat="47.713644" lon="7.658991">
        <ele>344.544901</ele>
        <time>2021-11-22T09:57:39.069Z</time>
      </trkpt>
      <trkpt lat="47.713838" lon="7.658171">
        <ele>345.249289</ele>
        <time>2021-11-22T09:57:48.508Z</time>
      </trkpt>
      <trkpt lat="47.713938" lon="7.657753">
        <ele>345.968401</ele>
        <time>2021-11-22T09:57:54.714Z</time>
      </trkpt>
      <trkpt lat="47.714041" lon="7.657327">
        <ele>346.702156</ele>
        <time>2021-11-22T09:58:02.095Z</time>
      </trkpt>
      <trkpt lat="47.714084" lon="7.657126">
        <ele>347.044038</ele>
        <time>2021-11-22T09:58:05.721Z</time>
      </trkpt>
      <trkpt lat="47.714118" lon="7.656951">
        <ele>347.339292</ele>
        <time>2021-11-22T09:58:09.112Z</time>
      </trkpt>
      <trkpt lat="47.714137" lon="7.656864">
        <ele>347.487557</ele>
        <time>2021-11-22T09:58:11.026Z</time>
      </trkpt>
      <trkpt lat="47.714198" lon="7.656549">
        <ele>348.018881</ele>
        <time>2021-11-22T09:58:18.032Z</time>
      </trkpt>
      <trkpt lat="47.714292" lon="7.656103">
        <ele>348.904911</ele>
        <time>2021-11-22T09:58:28.272Z</time>
      </trkpt>
      <trkpt lat="47.714534" lon="7.654913">
        <ele>353.067287</ele>
        <time>2021-11-22T09:58:56.972Z</time>
      </trkpt>
      <trkpt lat="47.714614" lon="7.654494">
        <ele>354.525571</ele>
        <time>2021-11-22T09:59:07.919Z</time>
      </trkpt>
      <trkpt lat="47.714662" lon="7.654161">
        <ele>355.665816</ele>
        <time>2021-11-22T09:59:16.488Z</time>
      </trkpt>
      <trkpt lat="47.714682" lon="7.653898">
        <ele>356.551995</ele>
        <time>2021-11-22T09:59:23.093Z</time>
      </trkpt>
      <trkpt lat="47.714697" lon="7.653436">
        <ele>357.859356</ele>
        <time>2021-11-22T09:59:34.120Z</time>
      </trkpt>
      <trkpt lat="47.714717" lon="7.652929">
        <ele>358.729399</ele>
        <time>2021-11-22T09:59:45.454Z</time>
      </trkpt>
      <trkpt lat="47.714749" lon="7.652555">
        <ele>359.375264</ele>
        <time>2021-11-22T09:59:53.185Z</time>
      </trkpt>
      <trkpt lat="47.714780" lon="7.652263">
        <ele>359.881683</ele>
        <time>2021-11-22T09:59:58.443Z</time>
      </trkpt>
      <trkpt lat="47.714818" lon="7.651961">
        <ele>360.408013</ele>
        <time>2021-11-22T10:00:03.090Z</time>
      </trkpt>
      <trkpt lat="47.714879" lon="7.651571">
        <ele>361.093943</ele>
        <time>2021-11-22T10:00:08.722Z</time>
      </trkpt>
      <trkpt lat="47.714952" lon="7.651161">
        <ele>361.820496</ele>
        <time>2021-11-22T10:00:13.724Z</time>
      </trkpt>
      <trkpt lat="47.715085" lon="7.650549">
        <ele>361.597680</ele>
        <time>2021-11-22T10:00:20.452Z</time>
      </trkpt>
      <trkpt lat="47.715172" lon="7.650217">
        <ele>361.109681</ele>
        <time>2021-11-22T10:00:23.413Z</time>
      </trkpt>
      <trkpt lat="47.716165" lon="7.646716">
        <ele>355.619744</ele>
        <time>2021-11-22T10:00:49.613Z</time>
      </trkpt>
      <trkpt lat="47.716410" lon="7.645900">
        <ele>354.383972</ele>
        <time>2021-11-22T10:00:56.900Z</time>
      </trkpt>
      <trkpt lat="47.716537" lon="7.645473">
        <ele>354.104673</ele>
        <time>2021-11-22T10:01:01.696Z</time>
      </trkpt>
      <trkpt lat="47.716742" lon="7.644948">
        <ele>353.741530</ele>
        <time>2021-11-22T10:01:08.654Z</time>
      </trkpt>
      <trkpt lat="47.716819" lon="7.644751">
        <ele>353.605231</ele>
        <time>2021-11-22T10:01:11.836Z</time>
      </trkpt>
      <trkpt lat="47.716998" lon="7.644151">
        <ele>353.212580</ele>
        <time>2021-11-22T10:01:16.969Z</time>
      </trkpt>
      <trkpt lat="47.717012" lon="7.643954">
        <ele>353.094071</ele>
        <time>2021-11-22T10:01:18.453Z</time>
      </trkpt>
      <trkpt lat="47.717002" lon="7.643878">
        <ele>353.047743</ele>
        <time>2021-11-22T10:01:19.163Z</time>
      </trkpt>
      <trkpt lat="47.716981" lon="7.643693">
        <ele>352.935504</ele>
        <time>2021-11-22T10:01:20.609Z</time>
      </trkpt>
      <trkpt lat="47.716870" lon="7.643418">
        <ele>352.129864</ele>
        <time>2021-11-22T10:01:22.905Z</time>
      </trkpt>
      <trkpt lat="47.716828" lon="7.643314">
        <ele>351.686450</ele>
        <time>2021-11-22T10:01:23.762Z</time>
      </trkpt>
      <trkpt lat="47.716534" lon="7.642846">
        <ele>349.345787</ele>
        <time>2021-11-22T10:01:28.041Z</time>
      </trkpt>
      <trkpt lat="47.716370" lon="7.642427">
        <ele>347.573739</ele>
        <time>2021-11-22T10:01:31.072Z</time>
      </trkpt>
      <trkpt lat="47.716346" lon="7.641741">
        <ele>345.062590</ele>
        <time>2021-11-22T10:01:35.265Z</time>
      </trkpt>
      <trkpt lat="47.716460" lon="7.639885">
        <ele>335.764798</ele>
        <time>2021-11-22T10:01:46.259Z</time>
      </trkpt>
      <trkpt lat="47.716434" lon="7.639217">
        <ele>332.063385</ele>
        <time>2021-11-22T10:01:50.222Z</time>
      </trkpt>
      <trkpt lat="47.716258" lon="7.637710">
        <ele>324.220475</ele>
        <time>2021-11-22T10:01:59.295Z</time>
      </trkpt>
      <trkpt lat="47.716209" lon="7.637496">
        <ele>323.134458</ele>
        <time>2021-11-22T10:02:00.626Z</time>
      </trkpt>
      <trkpt lat="47.716159" lon="7.637371">
        <ele>322.435809</ele>
        <time>2021-11-22T10:02:01.508Z</time>
      </trkpt>
      <trkpt lat="47.716111" lon="7.637298">
        <ele>321.945426</ele>
        <time>2021-11-22T10:02:02.117Z</time>
      </trkpt>
      <trkpt lat="47.716084" lon="7.637265">
        <ele>321.695814</ele>
        <time>2021-11-22T10:02:02.461Z</time>
      </trkpt>
      <trkpt lat="47.716030" lon="7.637219">
        <ele>321.251379</ele>
        <time>2021-11-22T10:02:03.007Z</time>
      </trkpt>
      <trkpt lat="47.715891" lon="7.637127">
        <ele>320.164864</ele>
        <time>2021-11-22T10:02:04.390Z</time>
      </trkpt>
      <trkpt lat="47.715838" lon="7.637075">
        <ele>319.711390</ele>
        <time>2021-11-22T10:02:04.938Z</time>
      </trkpt>
      <trkpt lat="47.715759" lon="7.636776">
        <ele>318.168113</ele>
        <time>2021-11-22T10:02:06.893Z</time>
      </trkpt>
      <trkpt lat="47.715748" lon="7.636259">
        <ele>315.683052</ele>
        <time>2021-11-22T10:02:10.064Z</time>
      </trkpt>
      <trkpt lat="47.715754" lon="7.636022">
        <ele>314.997619</ele>
        <time>2021-11-22T10:02:11.543Z</time>
      </trkpt>
      <trkpt lat="47.715756" lon="7.635975">
        <ele>314.883587</ele>
        <time>2021-11-22T10:02:11.855Z</time>
      </trkpt>
      <trkpt lat="47.715762" lon="7.635882">
        <ele>314.657365</ele>
        <time>2021-11-22T10:02:12.485Z</time>
      </trkpt>
      <trkpt lat="47.715790" lon="7.635676">
        <ele>314.148483</ele>
        <time>2021-11-22T10:02:13.782Z</time>
      </trkpt>
      <trkpt lat="47.715839" lon="7.635493">
        <ele>313.671569</ele>
        <time>2021-11-22T10:02:15.046Z</time>
      </trkpt>
      <trkpt lat="47.715856" lon="7.635431">
        <ele>313.509455</ele>
        <time>2021-11-22T10:02:15.528Z</time>
      </trkpt>
      <trkpt lat="47.715884" lon="7.635387">
        <ele>313.362808</ele>
        <time>2021-11-22T10:02:15.958Z</time>
      </trkpt>
      <trkpt lat="47.715805" lon="7.635226">
        <ele>312.880302</ele>
        <time>2021-11-22T10:02:17.444Z</time>
      </trkpt>
      <trkpt lat="47.715778" lon="7.635183">
        <ele>312.737884</ele>
        <time>2021-11-22T10:02:17.892Z</time>
      </trkpt>
      <trkpt lat="47.715642" lon="7.634990">
        <ele>312.061158</ele>
        <time>2021-11-22T10:02:19.656Z</time>
      </trkpt>
      <trkpt lat="47.715360" lon="7.634582">
        <ele>310.644819</ele>
        <time>2021-11-22T10:02:23.704Z</time>
      </trkpt>
      <trkpt lat="47.715240" lon="7.634353">
        <ele>309.941979</ele>
        <time>2021-11-22T10:02:25.817Z</time>
      </trkpt>
      <trkpt lat="47.715183" lon="7.634240">
        <ele>309.600001</ele>
        <time>2021-11-22T10:02:26.875Z</time>
      </trkpt>
      <trkpt lat="47.715022" lon="7.633707">
        <ele>308.564308</ele>
        <time>2021-11-22T10:02:31.171Z</time>
      </trkpt>
      <trkpt lat="47.715016" lon="7.633585">
        <ele>308.408355</ele>
        <time>2021-11-22T10:02:32.086Z</time>
      </trkpt>
      <trkpt lat="47.715014" lon="7.633499">
        <ele>308.298648</ele>
        <time>2021-11-22T10:02:32.724Z</time>
      </trkpt>
      <trkpt lat="47.715007" lon="7.633277">
        <ele>308.015309</ele>
        <time>2021-11-22T10:02:34.407Z</time>
      </trkpt>
      <trkpt lat="47.714978" lon="7.633025">
        <ele>307.689368</ele>
        <time>2021-11-22T10:02:36.334Z</time>
      </trkpt>
      <trkpt lat="47.714915" lon="7.632667">
        <ele>307.217599</ele>
        <time>2021-11-22T10:02:39.141Z</time>
      </trkpt>
      <trkpt lat="47.714827" lon="7.632340">
        <ele>306.768594</ele>
        <time>2021-11-22T10:02:41.825Z</time>
      </trkpt>
      <trkpt lat="47.714733" lon="7.632056">
        <ele>306.365080</ele>
        <time>2021-11-22T10:02:44.299Z</time>
      </trkpt>
      <trkpt lat="47.714706" lon="7.631931">
        <ele>306.197705</ele>
        <time>2021-11-22T10:02:45.252Z</time>
      </trkpt>
      <trkpt lat="47.714684" lon="7.631714">
        <ele>305.917926</ele>
        <time>2021-11-22T10:02:46.818Z</time>
      </trkpt>
      <trkpt lat="47.714692" lon="7.631537">
        <ele>305.691759</ele>
        <time>2021-11-22T10:02:48.163Z</time>
      </trkpt>
      <trkpt lat="47.714695" lon="7.631471">
        <ele>305.607423</ele>
        <time>2021-11-22T10:02:48.644Z</time>
      </trkpt>
      <trkpt lat="47.714718" lon="7.631216">
        <ele>305.387470</ele>
        <time>2021-11-22T10:02:50.491Z</time>
      </trkpt>
      <trkpt lat="47.714728" lon="7.630996">
        <ele>305.208229</ele>
        <time>2021-11-22T10:02:52.101Z</time>
      </trkpt>
      <trkpt lat="47.714706" lon="7.630763">
        <ele>305.016972</ele>
        <time>2021-11-22T10:02:53.858Z</time>
      </trkpt>
      <trkpt lat="47.714567" lon="7.630288">
        <ele>304.595915</ele>
        <time>2021-11-22T10:02:57.844Z</time>
      </trkpt>
      <trkpt lat="47.714398" lon="7.630032">
        <ele>304.304378</ele>
        <time>2021-11-22T10:03:00.724Z</time>
      </trkpt>
      <trkpt lat="47.714188" lon="7.629841">
        <ele>304.006927</ele>
        <time>2021-11-22T10:03:03.689Z</time>
      </trkpt>
      <trkpt lat="47.713468" lon="7.629580">
        <ele>303.565868</ele>
        <time>2021-11-22T10:03:13.736Z</time>
      </trkpt>
      <trkpt lat="47.712919" lon="7.629237">
        <ele>303.962089</ele>
        <time>2021-11-22T10:03:22.781Z</time>
      </trkpt>
      <trkpt lat="47.711642" lon="7.627981">
        <ele>305.963267</ele>
        <time>2021-11-22T10:03:53.746Z</time>
      </trkpt>
      <trkpt lat="47.711145" lon="7.627730">
        <ele>307.216036</ele>
        <time>2021-11-22T10:04:07.260Z</time>
      </trkpt>
      <trkpt lat="47.710391" lon="7.627587">
        <ele>308.953364</ele>
        <time>2021-11-22T10:04:27.949Z</time>
      </trkpt>
      <trkpt lat="47.710074" lon="7.627420">
        <ele>309.303731</ele>
        <time>2021-11-22T10:04:37.233Z</time>
      </trkpt>
      <trkpt lat="47.709932" lon="7.627229">
        <ele>309.503251</ele>
        <time>2021-11-22T10:04:42.115Z</time>
      </trkpt>
      <trkpt lat="47.709431" lon="7.626195">
        <ele>310.396416</ele>
        <time>2021-11-22T10:04:59.065Z</time>
      </trkpt>
      <trkpt lat="47.709093" lon="7.625755">
        <ele>310.436893</ele>
        <time>2021-11-22T10:05:04.854Z</time>
      </trkpt>
      <trkpt lat="47.706171" lon="7.623041">
        <ele>297.199372</ele>
        <time>2021-11-22T10:05:38.299Z</time>
      </trkpt>
      <trkpt lat="47.705704" lon="7.622639">
        <ele>295.539433</ele>
        <time>2021-11-22T10:05:43.598Z</time>
      </trkpt>
      <trkpt lat="47.705652" lon="7.622609">
        <ele>295.374960</ele>
        <time>2021-11-22T10:05:44.130Z</time>
      </trkpt>
      <trkpt lat="47.705167" lon="7.622281">
        <ele>293.803795</ele>
        <time>2021-11-22T10:05:49.538Z</time>
      </trkpt>
      <trkpt lat="47.703895" lon="7.621692">
        <ele>290.813242</ele>
        <time>2021-11-22T10:06:04.114Z</time>
      </trkpt>
      <trkpt lat="47.702840" lon="7.621304">
        <ele>289.297552</ele>
        <time>2021-11-22T10:06:17.255Z</time>
      </trkpt>
      <trkpt lat="47.702263" lon="7.621140">
        <ele>288.817087</ele>
        <time>2021-11-22T10:06:24.539Z</time>
      </trkpt>
      <trkpt lat="47.701980" lon="7.621126">
        <ele>288.622404</ele>
        <time>2021-11-22T10:06:28.068Z</time>
      </trkpt>
      <trkpt lat="47.701898" lon="7.621140">
        <ele>288.565655</ele>
        <time>2021-11-22T10:06:29.201Z</time>
      </trkpt>
      <trkpt lat="47.701775" lon="7.621220">
        <ele>288.473340</ele>
        <time>2021-11-22T10:06:30.904Z</time>
      </trkpt>
      <trkpt lat="47.701564" lon="7.621308">
        <ele>288.322662</ele>
        <time>2021-11-22T10:06:33.772Z</time>
      </trkpt>
      <trkpt lat="47.701345" lon="7.621478">
        <ele>288.152781</ele>
        <time>2021-11-22T10:06:36.964Z</time>
      </trkpt>
      <trkpt lat="47.701026" lon="7.621688">
        <ele>287.912893</ele>
        <time>2021-11-22T10:06:41.609Z</time>
      </trkpt>
      <trkpt lat="47.700612" lon="7.621969">
        <ele>287.857804</ele>
        <time>2021-11-22T10:06:47.765Z</time>
      </trkpt>
      <trkpt lat="47.700506" lon="7.622028">
        <ele>287.844724</ele>
        <time>2021-11-22T10:06:49.343Z</time>
      </trkpt>
      <trkpt lat="47.700069" lon="7.622202">
        <ele>287.792443</ele>
        <time>2021-11-22T10:06:55.514Z</time>
      </trkpt>
      <trkpt lat="47.699833" lon="7.622227">
        <ele>287.765101</ele>
        <time>2021-11-22T10:06:58.946Z</time>
      </trkpt>
      <trkpt lat="47.698108" lon="7.621910">
        <ele>288.171203</ele>
        <time>2021-11-22T10:07:27.246Z</time>
      </trkpt>
      <trkpt lat="47.698008" lon="7.621903">
        <ele>288.210588</ele>
        <time>2021-11-22T10:07:29.012Z</time>
      </trkpt>
      <trkpt lat="47.697872" lon="7.621911">
        <ele>288.264135</ele>
        <time>2021-11-22T10:07:31.471Z</time>
      </trkpt>
      <trkpt lat="47.695671" lon="7.622041">
        <ele>288.757574</ele>
        <time>2021-11-22T10:08:07.479Z</time>
      </trkpt>
      <trkpt lat="47.695217" lon="7.622030">
        <ele>288.144624</ele>
        <time>2021-11-22T10:08:13.141Z</time>
      </trkpt>
      <trkpt lat="47.694657" lon="7.621909">
        <ele>287.380710</ele>
        <time>2021-11-22T10:08:19.672Z</time>
      </trkpt>
      <trkpt lat="47.693441" lon="7.621686">
        <ele>285.634399</ele>
        <time>2021-11-22T10:08:33.049Z</time>
      </trkpt>
      <trkpt lat="47.693055" lon="7.621643">
        <ele>285.037509</ele>
        <time>2021-11-22T10:08:37.293Z</time>
      </trkpt>
      <trkpt lat="47.691657" lon="7.621577">
        <ele>283.760709</ele>
        <time>2021-11-22T10:08:54.064Z</time>
      </trkpt>
      <trkpt lat="47.690988" lon="7.621539">
        <ele>283.987645</ele>
        <time>2021-11-22T10:09:04.290Z</time>
      </trkpt>
      <trkpt lat="47.690389" lon="7.621477">
        <ele>284.191180</ele>
        <time>2021-11-22T10:09:16.341Z</time>
      </trkpt>
      <trkpt lat="47.689900" lon="7.621387">
        <ele>285.708222</ele>
        <time>2021-11-22T10:09:27.840Z</time>
      </trkpt>
      <trkpt lat="47.689448" lon="7.621314">
        <ele>287.283539</ele>
        <time>2021-11-22T10:09:40.114Z</time>
      </trkpt>
      <trkpt lat="47.688215" lon="7.621076">
        <ele>291.838293</ele>
        <time>2021-11-22T10:10:21.293Z</time>
      </trkpt>
      <trkpt lat="47.687402" lon="7.620785">
        <ele>295.358666</ele>
        <time>2021-11-22T10:10:49.920Z</time>
      </trkpt>
      <trkpt lat="47.686950" lon="7.620497">
        <ele>297.429065</ele>
        <time>2021-11-22T10:11:04.972Z</time>
      </trkpt>
      <trkpt lat="47.686071" lon="7.619826">
        <ele>298.979123</ele>
        <time>2021-11-22T10:11:29.566Z</time>
      </trkpt>
      <trkpt lat="47.682798" lon="7.618967">
        <ele>298.365742</ele>
        <time>2021-11-22T10:12:14.891Z</time>
      </trkpt>
      <trkpt lat="47.681722" lon="7.618589">
        <ele>296.480066</ele>
        <time>2021-11-22T10:12:26.574Z</time>
      </trkpt>
      <trkpt lat="47.681159" lon="7.618675">
        <ele>295.491790</ele>
        <time>2021-11-22T10:12:32.646Z</time>
      </trkpt>
      <trkpt lat="47.680528" lon="7.618886">
        <ele>294.355478</ele>
        <time>2021-11-22T10:12:39.864Z</time>
      </trkpt>
      <trkpt lat="47.679798" lon="7.619058">
        <ele>293.035289</ele>
        <time>2021-11-22T10:12:48.643Z</time>
      </trkpt>
      <trkpt lat="47.679295" lon="7.618910">
        <ele>291.823283</ele>
        <time>2021-11-22T10:12:54.837Z</time>
      </trkpt>
      <trkpt lat="47.678330" lon="7.618419">
        <ele>289.412261</ele>
        <time>2021-11-22T10:13:05.710Z</time>
      </trkpt>
      <trkpt lat="47.677907" lon="7.618383">
        <ele>288.315768</ele>
        <time>2021-11-22T10:13:09.843Z</time>
      </trkpt>
      <trkpt lat="47.677305" lon="7.618504">
        <ele>286.581635</ele>
        <time>2021-11-22T10:13:15.620Z</time>
      </trkpt>
      <trkpt lat="47.676817" lon="7.618662">
        <ele>285.155875</ele>
        <time>2021-11-22T10:13:20.594Z</time>
      </trkpt>
      <trkpt lat="47.676021" lon="7.618882">
        <ele>284.729488</ele>
        <time>2021-11-22T10:13:30.680Z</time>
      </trkpt>
      <trkpt lat="47.676021" lon="7.618882">
        <ele>284.729488</ele>
        <time>2021-11-22T10:13:30.693Z</time>
      </trkpt>
      <trkpt lat="47.675702" lon="7.618939">
        <ele>285.756206</ele>
        <time>2021-11-22T10:13:38.686Z</time>
      </trkpt>
      <trkpt lat="47.675645" lon="7.618943">
        <ele>285.938553</ele>
        <time>2021-11-22T10:13:39.393Z</time>
      </trkpt>
      <trkpt lat="47.675365" lon="7.618960">
        <ele>286.834043</ele>
        <time>2021-11-22T10:13:48.611Z</time>
      </trkpt>
      <trkpt lat="47.674482" lon="7.618835">
        <ele>289.638342</ele>
        <time>2021-11-22T10:14:21.733Z</time>
      </trkpt>
      <trkpt lat="47.673661" lon="7.618510">
        <ele>291.915937</ele>
        <time>2021-11-22T10:14:52.037Z</time>
      </trkpt>
      <trkpt lat="47.673172" lon="7.618199">
        <ele>293.341882</ele>
        <time>2021-11-22T10:15:03.732Z</time>
      </trkpt>
      <trkpt lat="47.672709" lon="7.617849">
        <ele>293.702627</ele>
        <time>2021-11-22T10:15:10.278Z</time>
      </trkpt>
      <trkpt lat="47.671681" lon="7.616949">
        <ele>289.253431</ele>
        <time>2021-11-22T10:15:21.898Z</time>
      </trkpt>
      <trkpt lat="47.671272" lon="7.616434">
        <ele>287.221050</ele>
        <time>2021-11-22T10:15:26.879Z</time>
      </trkpt>
      <trkpt lat="47.670772" lon="7.615562">
        <ele>284.067824</ele>
        <time>2021-11-22T10:15:34.214Z</time>
      </trkpt>
      <trkpt lat="47.670361" lon="7.614463">
        <ele>280.606743</ele>
        <time>2021-11-22T10:15:42.582Z</time>
      </trkpt>
      <trkpt lat="47.669560" lon="7.612062">
        <ele>276.196650</ele>
        <time>2021-11-22T10:16:01.793Z</time>
      </trkpt>
      <trkpt lat="47.669317" lon="7.611278">
        <ele>275.640069</ele>
        <time>2021-11-22T10:16:08.503Z</time>
      </trkpt>
      <trkpt lat="47.668819" lon="7.609852">
        <ele>274.857442</ele>
        <time>2021-11-22T10:16:22.344Z</time>
      </trkpt>
      <trkpt lat="47.667874" lon="7.607725">
        <ele>276.250842</ele>
        <time>2021-11-22T10:16:53.702Z</time>
      </trkpt>
      <trkpt lat="47.667641" lon="7.606894">
        <ele>277.361497</ele>
        <time>2021-11-22T10:17:07.439Z</time>
      </trkpt>
      <trkpt lat="47.667444" lon="7.606073">
        <ele>278.899197</ele>
        <time>2021-11-22T10:17:22.194Z</time>
      </trkpt>
      <trkpt lat="47.667266" lon="7.605435">
        <ele>280.117606</ele>
        <time>2021-11-22T10:17:34.776Z</time>
      </trkpt>
      <trkpt lat="47.666992" lon="7.604644">
        <ele>281.645012</ele>
        <time>2021-11-22T10:17:51.371Z</time>
      </trkpt>
      <trkpt lat="47.666721" lon="7.603891">
        <ele>282.997657</ele>
        <time>2021-11-22T10:18:06.479Z</time>
      </trkpt>
      <trkpt lat="47.666538" lon="7.603454">
        <ele>283.812936</ele>
        <time>2021-11-22T10:18:15.168Z</time>
      </trkpt>
      <trkpt lat="47.666177" lon="7.602511">
        <ele>285.514261</ele>
        <time>2021-11-22T10:18:31.418Z</time>
      </trkpt>
      <trkpt lat="47.665996" lon="7.602123">
        <ele>285.735178</ele>
        <time>2021-11-22T10:18:37.471Z</time>
      </trkpt>
      <trkpt lat="47.665811" lon="7.601858">
        <ele>285.913828</ele>
        <time>2021-11-22T10:18:42.286Z</time>
      </trkpt>
      <trkpt lat="47.665456" lon="7.601447">
        <ele>286.226685</ele>
        <time>2021-11-22T10:18:49.830Z</time>
      </trkpt>
      <trkpt lat="47.665362" lon="7.601201">
        <ele>286.359070</ele>
        <time>2021-11-22T10:18:52.929Z</time>
      </trkpt>
      <trkpt lat="47.665304" lon="7.600692">
        <ele>286.600696</ele>
        <time>2021-11-22T10:18:58.534Z</time>
      </trkpt>
      <trkpt lat="47.665270" lon="7.600368">
        <ele>286.754176</ele>
        <time>2021-11-22T10:19:02.032Z</time>
      </trkpt>
      <trkpt lat="47.665149" lon="7.599645">
        <ele>286.818778</ele>
        <time>2021-11-22T10:19:10.071Z</time>
      </trkpt>
      <trkpt lat="47.665035" lon="7.599318">
        <ele>286.849515</ele>
        <time>2021-11-22T10:19:13.899Z</time>
      </trkpt>
      <trkpt lat="47.665014" lon="7.599266">
        <ele>286.854577</ele>
        <time>2021-11-22T10:19:14.563Z</time>
      </trkpt>
      <trkpt lat="47.664950" lon="7.599107">
        <ele>286.870040</ele>
        <time>2021-11-22T10:19:16.480Z</time>
      </trkpt>
      <trkpt lat="47.664852" lon="7.598867">
        <ele>286.893469</ele>
        <time>2021-11-22T10:19:19.292Z</time>
      </trkpt>
      <trkpt lat="47.664694" lon="7.598513">
        <ele>286.928921</ele>
        <time>2021-11-22T10:19:23.576Z</time>
      </trkpt>
      <trkpt lat="47.664490" lon="7.598065">
        <ele>286.974066</ele>
        <time>2021-11-22T10:19:28.977Z</time>
      </trkpt>
      <trkpt lat="47.664218" lon="7.597562">
        <ele>287.184168</ele>
        <time>2021-11-22T10:19:35.125Z</time>
      </trkpt>
      <trkpt lat="47.664002" lon="7.597109">
        <ele>287.381779</ele>
        <time>2021-11-22T10:19:41.207Z</time>
      </trkpt>
      <trkpt lat="47.663776" lon="7.596568">
        <ele>287.608436</ele>
        <time>2021-11-22T10:19:48.174Z</time>
      </trkpt>
      <trkpt lat="47.663749" lon="7.596509">
        <ele>287.633832</ele>
        <time>2021-11-22T10:19:49.293Z</time>
      </trkpt>
      <trkpt lat="47.663610" lon="7.596198">
        <ele>287.766722</ele>
        <time>2021-11-22T10:19:53.936Z</time>
      </trkpt>
      <trkpt lat="47.663508" lon="7.596095">
        <ele>287.831932</ele>
        <time>2021-11-22T10:19:56.411Z</time>
      </trkpt>
      <trkpt lat="47.663392" lon="7.596035">
        <ele>287.896869</ele>
        <time>2021-11-22T10:19:58.547Z</time>
      </trkpt>
      <trkpt lat="47.663348" lon="7.596031">
        <ele>287.920173</ele>
        <time>2021-11-22T10:19:59.328Z</time>
      </trkpt>
      <trkpt lat="47.663183" lon="7.596018">
        <ele>288.222903</ele>
        <time>2021-11-22T10:20:02.423Z</time>
      </trkpt>
      <trkpt lat="47.663183" lon="7.596018">
        <ele>288.222903</ele>
        <time>2021-11-22T10:20:02.543Z</time>
      </trkpt>
      <trkpt lat="47.663051" lon="7.596241">
        <ele>288.625730</ele>
        <time>2021-11-22T10:20:06.035Z</time>
      </trkpt>
      <trkpt lat="47.662494" lon="7.596915">
        <ele>290.073328</ele>
        <time>2021-11-22T10:20:21.735Z</time>
      </trkpt>
      <trkpt lat="47.662391" lon="7.596945">
        <ele>290.284790</ele>
        <time>2021-11-22T10:20:24.391Z</time>
      </trkpt>
      <trkpt lat="47.662279" lon="7.596890">
        <ele>290.522449</ele>
        <time>2021-11-22T10:20:27.194Z</time>
      </trkpt>
      <trkpt lat="47.662034" lon="7.596625">
        <ele>291.133114</ele>
        <time>2021-11-22T10:20:35.099Z</time>
      </trkpt>
      <trkpt lat="47.661744" lon="7.596364">
        <ele>291.976872</ele>
        <time>2021-11-22T10:20:44.177Z</time>
      </trkpt>
      <trkpt lat="47.661309" lon="7.596052">
        <ele>293.547006</ele>
        <time>2021-11-22T10:20:57.109Z</time>
      </trkpt>
      <trkpt lat="47.661248" lon="7.596003">
        <ele>293.772420</ele>
        <time>2021-11-22T10:20:58.899Z</time>
      </trkpt>
      <trkpt lat="47.660991" lon="7.595798">
        <ele>294.720620</ele>
        <time>2021-11-22T10:21:07.376Z</time>
      </trkpt>
      <trkpt lat="47.660758" lon="7.595554">
        <ele>295.647318</ele>
        <time>2021-11-22T10:21:15.037Z</time>
      </trkpt>
      <trkpt lat="47.660717" lon="7.595511">
        <ele>295.810466</ele>
        <time>2021-11-22T10:21:16.772Z</time>
      </trkpt>
      <trkpt lat="47.660395" lon="7.595045">
        <ele>297.271924</ele>
        <time>2021-11-22T10:21:29.893Z</time>
      </trkpt>
      <trkpt lat="47.659787" lon="7.594095">
        <ele>299.351295</ele>
        <time>2021-11-22T10:21:55.095Z</time>
      </trkpt>
      <trkpt lat="47.659499" lon="7.593673">
        <ele>300.287589</ele>
        <time>2021-11-22T10:22:05.268Z</time>
      </trkpt>
      <trkpt lat="47.659225" lon="7.593332">
        <ele>301.114880</ele>
        <time>2021-11-22T10:22:12.519Z</time>
      </trkpt>
      <trkpt lat="47.659150" lon="7.593251">
        <ele>301.329481</ele>
        <time>2021-11-22T10:22:13.991Z</time>
      </trkpt>
      <trkpt lat="47.658671" lon="7.592815">
        <ele>300.665848</ele>
        <time>2021-11-22T10:22:22.694Z</time>
      </trkpt>
      <trkpt lat="47.658366" lon="7.592608">
        <ele>300.014117</ele>
        <time>2021-11-22T10:22:26.687Z</time>
      </trkpt>
      <trkpt lat="47.658033" lon="7.592435">
        <ele>299.328489</ele>
        <time>2021-11-22T10:22:30.549Z</time>
      </trkpt>
      <trkpt lat="47.657870" lon="7.592361">
        <ele>298.997236</ele>
        <time>2021-11-22T10:22:32.239Z</time>
      </trkpt>
      <trkpt lat="47.657276" lon="7.592147">
        <ele>297.433926</ele>
        <time>2021-11-22T10:22:38.183Z</time>
      </trkpt>
      <trkpt lat="47.656541" lon="7.591957">
        <ele>293.869464</ele>
        <time>2021-11-22T10:22:45.251Z</time>
      </trkpt>
      <trkpt lat="47.656109" lon="7.591916">
        <ele>291.801274</ele>
        <time>2021-11-22T10:22:49.315Z</time>
      </trkpt>
      <trkpt lat="47.655420" lon="7.592126">
        <ele>288.672697</ele>
        <time>2021-11-22T10:22:55.936Z</time>
      </trkpt>
      <trkpt lat="47.654725" lon="7.592731">
        <ele>285.688033</ele>
        <time>2021-11-22T10:23:03.696Z</time>
      </trkpt>
      <trkpt lat="47.654668" lon="7.592780">
        <ele>285.444024</ele>
        <time>2021-11-22T10:23:04.377Z</time>
      </trkpt>
      <trkpt lat="47.654425" lon="7.592983">
        <ele>284.411069</ele>
        <time>2021-11-22T10:23:07.242Z</time>
      </trkpt>
      <trkpt lat="47.654122" lon="7.593177">
        <ele>283.188634</ele>
        <time>2021-11-22T10:23:10.706Z</time>
      </trkpt>
      <trkpt lat="47.653885" lon="7.593345">
        <ele>282.581572</ele>
        <time>2021-11-22T10:23:13.509Z</time>
      </trkpt>
      <trkpt lat="47.653698" lon="7.593524">
        <ele>282.264643</ele>
        <time>2021-11-22T10:23:15.919Z</time>
      </trkpt>
      <trkpt lat="47.653366" lon="7.594044">
        <ele>281.577214</ele>
        <time>2021-11-22T10:23:21.421Z</time>
      </trkpt>
      <trkpt lat="47.652964" lon="7.595022">
        <ele>280.477930</ele>
        <time>2021-11-22T10:23:31.005Z</time>
      </trkpt>
      <trkpt lat="47.652858" lon="7.595213">
        <ele>280.239159</ele>
        <time>2021-11-22T10:23:33.217Z</time>
      </trkpt>
      <trkpt lat="47.652780" lon="7.595322">
        <ele>280.060325</ele>
        <time>2021-11-22T10:23:34.610Z</time>
      </trkpt>
      <trkpt lat="47.652496" lon="7.595714">
        <ele>279.412926</ele>
        <time>2021-11-22T10:23:39.632Z</time>
      </trkpt>
      <trkpt lat="47.652432" lon="7.595819">
        <ele>279.253681</ele>
        <time>2021-11-22T10:23:40.807Z</time>
      </trkpt>
      <trkpt lat="47.652266" lon="7.596070">
        <ele>278.858111</ele>
        <time>2021-11-22T10:23:43.565Z</time>
      </trkpt>
      <trkpt lat="47.651722" lon="7.596788">
        <ele>277.642888</ele>
        <time>2021-11-22T10:23:51.579Z</time>
      </trkpt>
      <trkpt lat="47.651649" lon="7.596972">
        <ele>277.402742</ele>
        <time>2021-11-22T10:23:53.063Z</time>
      </trkpt>
      <trkpt lat="47.651568" lon="7.597062">
        <ele>277.222673</ele>
        <time>2021-11-22T10:23:54.113Z</time>
      </trkpt>
      <trkpt lat="47.651470" lon="7.597163">
        <ele>276.832088</ele>
        <time>2021-11-22T10:23:55.330Z</time>
      </trkpt>
      <trkpt lat="47.651193" lon="7.597519">
        <ele>275.632569</ele>
        <time>2021-11-22T10:23:59.046Z</time>
      </trkpt>
      <trkpt lat="47.650966" lon="7.597769">
        <ele>274.707201</ele>
        <time>2021-11-22T10:24:01.912Z</time>
      </trkpt>
      <trkpt lat="47.650798" lon="7.597914">
        <ele>274.070976</ele>
        <time>2021-11-22T10:24:03.850Z</time>
      </trkpt>
      <trkpt lat="47.650627" lon="7.598070">
        <ele>273.413870</ele>
        <time>2021-11-22T10:24:05.873Z</time>
      </trkpt>
      <trkpt lat="47.650348" lon="7.598318">
        <ele>272.349214</ele>
        <time>2021-11-22T10:24:09.063Z</time>
      </trkpt>
      <trkpt lat="47.650048" lon="7.598639">
        <ele>271.181685</ele>
        <time>2021-11-22T10:24:12.724Z</time>
      </trkpt>
      <trkpt lat="47.649402" lon="7.599592">
        <ele>268.789773</ele>
        <time>2021-11-22T10:24:22.029Z</time>
      </trkpt>
      <trkpt lat="47.649321" lon="7.599629">
        <ele>268.567199</ele>
        <time>2021-11-22T10:24:22.869Z</time>
      </trkpt>
      <trkpt lat="47.649322" lon="7.599734">
        <ele>268.381410</ele>
        <time>2021-11-22T10:24:23.645Z</time>
      </trkpt>
      <trkpt lat="47.649072" lon="7.600328">
        <ele>267.142238</ele>
        <time>2021-11-22T10:24:28.948Z</time>
      </trkpt>
      <trkpt lat="47.648274" lon="7.600622">
        <ele>265.863244</ele>
        <time>2021-11-22T10:24:38.311Z</time>
      </trkpt>
      <trkpt lat="47.648012" lon="7.600725">
        <ele>265.531170</ele>
        <time>2021-11-22T10:24:41.448Z</time>
      </trkpt>
      <trkpt lat="47.647878" lon="7.600773">
        <ele>265.362278</ele>
        <time>2021-11-22T10:24:43.067Z</time>
      </trkpt>
      <trkpt lat="47.647517" lon="7.600898">
        <ele>264.908101</ele>
        <time>2021-11-22T10:24:47.573Z</time>
      </trkpt>
      <trkpt lat="47.647362" lon="7.600959">
        <ele>264.711631</ele>
        <time>2021-11-22T10:24:49.546Z</time>
      </trkpt>
      <trkpt lat="47.646615" lon="7.601256">
        <ele>264.390542</ele>
        <time>2021-11-22T10:24:59.752Z</time>
      </trkpt>
      <trkpt lat="47.646542" lon="7.601292">
        <ele>264.385039</ele>
        <time>2021-11-22T10:25:00.788Z</time>
      </trkpt>
      <trkpt lat="47.646444" lon="7.601345">
        <ele>264.377577</ele>
        <time>2021-11-22T10:25:02.286Z</time>
      </trkpt>
      <trkpt lat="47.646348" lon="7.601386">
        <ele>264.370430</ele>
        <time>2021-11-22T10:25:03.698Z</time>
      </trkpt>
      <trkpt lat="47.646239" lon="7.601438">
        <ele>264.362239</ele>
        <time>2021-11-22T10:25:05.432Z</time>
      </trkpt>
      <trkpt lat="47.644863" lon="7.602241">
        <ele>264.681168</ele>
        <time>2021-11-22T10:25:29.427Z</time>
      </trkpt>
      <trkpt lat="47.644518" lon="7.602492">
        <ele>264.917525</ele>
        <time>2021-11-22T10:25:36.210Z</time>
      </trkpt>
      <trkpt lat="47.644463" lon="7.602535">
        <ele>264.955766</ele>
        <time>2021-11-22T10:25:37.301Z</time>
      </trkpt>
      <trkpt lat="47.644009" lon="7.602886">
        <ele>265.270668</ele>
        <time>2021-11-22T10:25:46.464Z</time>
      </trkpt>
      <trkpt lat="47.643665" lon="7.603141">
        <ele>265.490041</ele>
        <time>2021-11-22T10:25:53.296Z</time>
      </trkpt>
      <trkpt lat="47.643452" lon="7.603285">
        <ele>265.609313</ele>
        <time>2021-11-22T10:25:57.412Z</time>
      </trkpt>
      <trkpt lat="47.642943" lon="7.603584">
        <ele>265.888272</ele>
        <time>2021-11-22T10:26:06.889Z</time>
      </trkpt>
      <trkpt lat="47.642696" lon="7.603706">
        <ele>266.020928</ele>
        <time>2021-11-22T10:26:11.279Z</time>
      </trkpt>
      <trkpt lat="47.641529" lon="7.604190">
        <ele>266.338974</ele>
        <time>2021-11-22T10:26:30.393Z</time>
      </trkpt>
      <trkpt lat="47.641096" lon="7.604510">
        <ele>266.350902</ele>
        <time>2021-11-22T10:26:37.322Z</time>
      </trkpt>
      <trkpt lat="47.640934" lon="7.604667">
        <ele>266.355674</ele>
        <time>2021-11-22T10:26:40.271Z</time>
      </trkpt>
      <trkpt lat="47.640812" lon="7.604794">
        <ele>266.359348</ele>
        <time>2021-11-22T10:26:42.248Z</time>
      </trkpt>
      <trkpt lat="47.639169" lon="7.606981">
        <ele>266.826686</ele>
        <time>2021-11-22T10:27:15.765Z</time>
      </trkpt>
      <trkpt lat="47.638964" lon="7.607254">
        <ele>267.172853</ele>
        <time>2021-11-22T10:27:21.148Z</time>
      </trkpt>
      <trkpt lat="47.638641" lon="7.607690">
        <ele>267.721605</ele>
        <time>2021-11-22T10:27:29.982Z</time>
      </trkpt>
      <trkpt lat="47.638391" lon="7.608019">
        <ele>268.141548</ele>
        <time>2021-11-22T10:27:37.048Z</time>
      </trkpt>
      <trkpt lat="47.638218" lon="7.608237">
        <ele>268.426784</ele>
        <time>2021-11-22T10:27:42.105Z</time>
      </trkpt>
      <trkpt lat="47.638005" lon="7.608471">
        <ele>268.759853</ele>
        <time>2021-11-22T10:27:47.607Z</time>
      </trkpt>
      <trkpt lat="47.637758" lon="7.608698">
        <ele>269.072193</ele>
        <time>2021-11-22T10:27:53.525Z</time>
      </trkpt>
      <trkpt lat="47.637415" lon="7.609013">
        <ele>269.323808</ele>
        <time>2021-11-22T10:28:01.516Z</time>
      </trkpt>
      <trkpt lat="47.636957" lon="7.609339">
        <ele>269.640668</ele>
        <time>2021-11-22T10:28:11.131Z</time>
      </trkpt>
      <trkpt lat="47.636728" lon="7.609467">
        <ele>269.793313</ele>
        <time>2021-11-22T10:28:15.269Z</time>
      </trkpt>
      <trkpt lat="47.634806" lon="7.610511">
        <ele>269.655950</ele>
        <time>2021-11-22T10:28:43.122Z</time>
      </trkpt>
      <trkpt lat="47.634379" lon="7.610795">
        <ele>269.516345</ele>
        <time>2021-11-22T10:28:49.957Z</time>
      </trkpt>
      <trkpt lat="47.634273" lon="7.610887">
        <ele>269.486658</ele>
        <time>2021-11-22T10:28:51.650Z</time>
      </trkpt>
      <trkpt lat="47.634058" lon="7.611101">
        <ele>269.424071</ele>
        <time>2021-11-22T10:28:55.047Z</time>
      </trkpt>
      <trkpt lat="47.633748" lon="7.611470">
        <ele>269.327996</ele>
        <time>2021-11-22T10:29:00.378Z</time>
      </trkpt>
      <trkpt lat="47.633603" lon="7.611677">
        <ele>269.279354</ele>
        <time>2021-11-22T10:29:03.059Z</time>
      </trkpt>
      <trkpt lat="47.633526" lon="7.611754">
        <ele>269.256907</ele>
        <time>2021-11-22T10:29:04.443Z</time>
      </trkpt>
      <trkpt lat="47.633397" lon="7.611916">
        <ele>269.216052</ele>
        <time>2021-11-22T10:29:06.863Z</time>
      </trkpt>
      <trkpt lat="47.633232" lon="7.612127">
        <ele>269.163394</ele>
        <time>2021-11-22T10:29:09.995Z</time>
      </trkpt>
      <trkpt lat="47.633155" lon="7.612262">
        <ele>269.134580</ele>
        <time>2021-11-22T10:29:11.827Z</time>
      </trkpt>
      <trkpt lat="47.633048" lon="7.612433">
        <ele>269.110142</ele>
        <time>2021-11-22T10:29:14.128Z</time>
      </trkpt>
      <trkpt lat="47.632972" lon="7.612614">
        <ele>269.096046</ele>
        <time>2021-11-22T10:29:16.264Z</time>
      </trkpt>
      <trkpt lat="47.632938" lon="7.612693">
        <ele>269.089851</ele>
        <time>2021-11-22T10:29:17.272Z</time>
      </trkpt>
      <trkpt lat="47.632842" lon="7.613002">
        <ele>269.067362</ele>
        <time>2021-11-22T10:29:20.840Z</time>
      </trkpt>
      <trkpt lat="47.632832" lon="7.613045">
        <ele>269.064356</ele>
        <time>2021-11-22T10:29:21.292Z</time>
      </trkpt>
      <trkpt lat="47.632792" lon="7.613223">
        <ele>269.051954</ele>
        <time>2021-11-22T10:29:23.114Z</time>
      </trkpt>
      <trkpt lat="47.632717" lon="7.613553">
        <ele>269.028936</ele>
        <time>2021-11-22T10:29:26.415Z</time>
      </trkpt>
      <trkpt lat="47.632582" lon="7.614157">
        <ele>268.986877</ele>
        <time>2021-11-22T10:29:32.157Z</time>
      </trkpt>
      <trkpt lat="47.632560" lon="7.614255">
        <ele>268.980050</ele>
        <time>2021-11-22T10:29:33.123Z</time>
      </trkpt>
      <trkpt lat="47.632429" lon="7.614867">
        <ele>268.956170</ele>
        <time>2021-11-22T10:29:39.486Z</time>
      </trkpt>
      <trkpt lat="47.632363" lon="7.615130">
        <ele>269.001477</ele>
        <time>2021-11-22T10:29:42.497Z</time>
      </trkpt>
      <trkpt lat="47.632296" lon="7.615321">
        <ele>269.036240</ele>
        <time>2021-11-22T10:29:44.696Z</time>
      </trkpt>
      <trkpt lat="47.632243" lon="7.615459">
        <ele>269.061883</ele>
        <time>2021-11-22T10:29:46.353Z</time>
      </trkpt>
      <trkpt lat="47.632110" lon="7.615712">
        <ele>269.113685</ele>
        <time>2021-11-22T10:29:49.672Z</time>
      </trkpt>
      <trkpt lat="47.632016" lon="7.615844">
        <ele>269.144689</ele>
        <time>2021-11-22T10:29:51.657Z</time>
      </trkpt>
      <trkpt lat="47.631609" lon="7.616292">
        <ele>269.266089</ele>
        <time>2021-11-22T10:29:59.411Z</time>
      </trkpt>
      <trkpt lat="47.630957" lon="7.617005">
        <ele>269.978477</ele>
        <time>2021-11-22T10:30:12.727Z</time>
      </trkpt>
      <trkpt lat="47.630701" lon="7.617331">
        <ele>270.545139</ele>
        <time>2021-11-22T10:30:19.688Z</time>
      </trkpt>
      <trkpt lat="47.630400" lon="7.617763">
        <ele>271.248555</ele>
        <time>2021-11-22T10:30:29.518Z</time>
      </trkpt>
      <trkpt lat="47.630129" lon="7.618190">
        <ele>271.912538</ele>
        <time>2021-11-22T10:30:38.919Z</time>
      </trkpt>
      <trkpt lat="47.630096" lon="7.618244">
        <ele>271.995058</ele>
        <time>2021-11-22T10:30:40.100Z</time>
      </trkpt>
      <trkpt lat="47.630010" lon="7.618382">
        <ele>272.207834</ele>
        <time>2021-11-22T10:30:43.164Z</time>
      </trkpt>
      <trkpt lat="47.629876" lon="7.618589">
        <ele>272.577052</ele>
        <time>2021-11-22T10:30:47.895Z</time>
      </trkpt>
      <trkpt lat="47.629669" lon="7.618908">
        <ele>273.239797</ele>
        <time>2021-11-22T10:30:55.354Z</time>
      </trkpt>
      <trkpt lat="47.629418" lon="7.619291">
        <ele>274.039323</ele>
        <time>2021-11-22T10:31:04.322Z</time>
      </trkpt>
      <trkpt lat="47.628964" lon="7.618639">
        <ele>275.442397</ele>
        <time>2021-11-22T10:31:19.642Z</time>
      </trkpt>
      <trkpt lat="47.628871" lon="7.618513">
        <ele>275.722061</ele>
        <time>2021-11-22T10:31:22.589Z</time>
      </trkpt>
      <trkpt lat="47.628724" lon="7.618315">
        <ele>276.162942</ele>
        <time>2021-11-22T10:31:27.043Z</time>
      </trkpt>
      <trkpt lat="47.628372" lon="7.617807">
        <ele>277.103738</ele>
        <time>2021-11-22T10:31:37.537Z</time>
      </trkpt>
      <trkpt lat="47.628119" lon="7.617449">
        <ele>277.745616</ele>
        <time>2021-11-22T10:31:44.485Z</time>
      </trkpt>
      <trkpt lat="47.627544" lon="7.616615">
        <ele>279.221940</ele>
        <time>2021-11-22T10:32:02.528Z</time>
      </trkpt>
      <trkpt lat="47.627009" lon="7.615842">
        <ele>279.995277</ele>
        <time>2021-11-22T10:32:20.712Z</time>
      </trkpt>
      <trkpt lat="47.626322" lon="7.614836">
        <ele>280.591996</ele>
        <time>2021-11-22T10:32:37.056Z</time>
      </trkpt>
      <trkpt lat="47.626197" lon="7.614639">
        <ele>280.704731</ele>
        <time>2021-11-22T10:32:39.003Z</time>
      </trkpt>
      <trkpt lat="47.625921" lon="7.614201">
        <ele>280.287441</ele>
        <time>2021-11-22T10:32:44.029Z</time>
      </trkpt>
      <trkpt lat="47.625845" lon="7.614081">
        <ele>280.052448</ele>
        <time>2021-11-22T10:32:45.428Z</time>
      </trkpt>
      <trkpt lat="47.625663" lon="7.613795">
        <ele>279.491124</ele>
        <time>2021-11-22T10:32:48.682Z</time>
      </trkpt>
      <trkpt lat="47.625513" lon="7.613556">
        <ele>279.025073</ele>
        <time>2021-11-22T10:32:51.455Z</time>
      </trkpt>
      <trkpt lat="47.625483" lon="7.613462">
        <ele>278.876649</ele>
        <time>2021-11-22T10:32:52.090Z</time>
      </trkpt>
      <trkpt lat="47.625440" lon="7.613329">
        <ele>278.666141</ele>
        <time>2021-11-22T10:32:53.742Z</time>
      </trkpt>
      <trkpt lat="47.625424" lon="7.613244">
        <ele>278.540197</ele>
        <time>2021-11-22T10:32:54.324Z</time>
      </trkpt>
      <trkpt lat="47.625429" lon="7.613201">
        <ele>278.477927</ele>
        <time>2021-11-22T10:32:54.591Z</time>
      </trkpt>
      <trkpt lat="47.625392" lon="7.613087">
        <ele>278.297360</ele>
        <time>2021-11-22T10:32:55.935Z</time>
      </trkpt>
      <trkpt lat="47.625368" lon="7.613013">
        <ele>278.180166</ele>
        <time>2021-11-22T10:32:56.490Z</time>
      </trkpt>
      <trkpt lat="47.625343" lon="7.612992">
        <ele>278.119336</ele>
        <time>2021-11-22T10:32:56.735Z</time>
      </trkpt>
      <trkpt lat="47.625313" lon="7.612979">
        <ele>278.053161</ele>
        <time>2021-11-22T10:32:57.125Z</time>
      </trkpt>
      <trkpt lat="47.625221" lon="7.613000">
        <ele>277.856069</ele>
        <time>2021-11-22T10:32:58.161Z</time>
      </trkpt>
      <trkpt lat="47.625195" lon="7.613027">
        <ele>277.788872</ele>
        <time>2021-11-22T10:32:58.456Z</time>
      </trkpt>
      <trkpt lat="47.625179" lon="7.613051">
        <ele>277.740697</ele>
        <time>2021-11-22T10:32:58.675Z</time>
      </trkpt>
      <trkpt lat="47.625156" lon="7.613110">
        <ele>277.643430</ele>
        <time>2021-11-22T10:32:59.121Z</time>
      </trkpt>
      <trkpt lat="47.625149" lon="7.613143">
        <ele>277.594059</ele>
        <time>2021-11-22T10:32:59.663Z</time>
      </trkpt>
      <trkpt lat="47.625104" lon="7.613184">
        <ele>277.482246</ele>
        <time>2021-11-22T10:33:00.374Z</time>
      </trkpt>
      <trkpt lat="47.625028" lon="7.613245">
        <ele>277.299287</ele>
        <time>2021-11-22T10:33:01.156Z</time>
      </trkpt>
      <trkpt lat="47.624960" lon="7.613306">
        <ele>277.131034</ele>
        <time>2021-11-22T10:33:02.112Z</time>
      </trkpt>
      <trkpt lat="47.624696" lon="7.613373">
        <ele>276.366151</ele>
        <time>2021-11-22T10:33:04.663Z</time>
      </trkpt>
      <trkpt lat="47.624435" lon="7.613447">
        <ele>275.545600</ele>
        <time>2021-11-22T10:33:07.416Z</time>
      </trkpt>
      <trkpt lat="47.623756" lon="7.613619">
        <ele>273.418508</ele>
        <time>2021-11-22T10:33:14.491Z</time>
      </trkpt>
      <trkpt lat="47.623487" lon="7.613683">
        <ele>272.577224</ele>
        <time>2021-11-22T10:33:17.445Z</time>
      </trkpt>
      <trkpt lat="47.623291" lon="7.613721">
        <ele>271.966831</ele>
        <time>2021-11-22T10:33:19.464Z</time>
      </trkpt>
      <trkpt lat="47.623013" lon="7.613751">
        <ele>271.234355</ele>
        <time>2021-11-22T10:33:22.236Z</time>
      </trkpt>
      <trkpt lat="47.622516" lon="7.613727">
        <ele>270.286592</ele>
        <time>2021-11-22T10:33:27.229Z</time>
      </trkpt>
      <trkpt lat="47.622455" lon="7.613693">
        <ele>270.162395</ele>
        <time>2021-11-22T10:33:27.901Z</time>
      </trkpt>
      <trkpt lat="47.622336" lon="7.613647">
        <ele>269.928014</ele>
        <time>2021-11-22T10:33:29.309Z</time>
      </trkpt>
      <trkpt lat="47.622297" lon="7.613621">
        <ele>269.846522</ele>
        <time>2021-11-22T10:33:29.740Z</time>
      </trkpt>
      <trkpt lat="47.622225" lon="7.613573">
        <ele>269.696076</ele>
        <time>2021-11-22T10:33:30.591Z</time>
      </trkpt>
      <trkpt lat="47.622180" lon="7.613489">
        <ele>269.558232</ele>
        <time>2021-11-22T10:33:31.358Z</time>
      </trkpt>
      <trkpt lat="47.622159" lon="7.613431">
        <ele>269.473653</ele>
        <time>2021-11-22T10:33:31.840Z</time>
      </trkpt>
      <trkpt lat="47.622131" lon="7.613384">
        <ele>269.393070</ele>
        <time>2021-11-22T10:33:32.597Z</time>
      </trkpt>
      <trkpt lat="47.622102" lon="7.613353">
        <ele>269.324945</ele>
        <time>2021-11-22T10:33:32.998Z</time>
      </trkpt>
      <trkpt lat="47.622054" lon="7.613323">
        <ele>269.225673</ele>
        <time>2021-11-22T10:33:33.580Z</time>
      </trkpt>
      <trkpt lat="47.621985" lon="7.613317">
        <ele>269.093936</ele>
        <time>2021-11-22T10:33:34.325Z</time>
      </trkpt>
      <trkpt lat="47.621923" lon="7.613346">
        <ele>268.970033</ele>
        <time>2021-11-22T10:33:35.061Z</time>
      </trkpt>
      <trkpt lat="47.621886" lon="7.613384">
        <ele>268.884265</ele>
        <time>2021-11-22T10:33:35.551Z</time>
      </trkpt>
      <trkpt lat="47.621863" lon="7.613420">
        <ele>268.820542</ele>
        <time>2021-11-22T10:33:35.937Z</time>
      </trkpt>
      <trkpt lat="47.621862" lon="7.613422">
        <ele>268.817343</ele>
        <time>2021-11-22T10:33:35.952Z</time>
      </trkpt>
      <trkpt lat="47.621841" lon="7.613474">
        <ele>268.739468</ele>
        <time>2021-11-22T10:33:36.581Z</time>
      </trkpt>
      <trkpt lat="47.621827" lon="7.613530">
        <ele>268.662738</ele>
        <time>2021-11-22T10:33:37.201Z</time>
      </trkpt>
      <trkpt lat="47.621825" lon="7.613625">
        <ele>268.540636</ele>
        <time>2021-11-22T10:33:37.961Z</time>
      </trkpt>
      <trkpt lat="47.621832" lon="7.613693">
        <ele>268.452267</ele>
        <time>2021-11-22T10:33:38.488Z</time>
      </trkpt>
      <trkpt lat="47.621849" lon="7.613736">
        <ele>268.388225</ele>
        <time>2021-11-22T10:33:38.905Z</time>
      </trkpt>
      <trkpt lat="47.621871" lon="7.613775">
        <ele>268.322892</ele>
        <time>2021-11-22T10:33:39.315Z</time>
      </trkpt>
      <trkpt lat="47.621897" lon="7.613810">
        <ele>268.255979</ele>
        <time>2021-11-22T10:33:39.746Z</time>
      </trkpt>
      <trkpt lat="47.621920" lon="7.613915">
        <ele>268.114146</ele>
        <time>2021-11-22T10:33:40.672Z</time>
      </trkpt>
      <trkpt lat="47.621935" lon="7.614021">
        <ele>268.028229</ele>
        <time>2021-11-22T10:33:42.097Z</time>
      </trkpt>
      <trkpt lat="47.621959" lon="7.614108">
        <ele>268.076545</ele>
        <time>2021-11-22T10:33:42.963Z</time>
      </trkpt>
      <trkpt lat="47.622002" lon="7.614178">
        <ele>268.125224</ele>
        <time>2021-11-22T10:33:43.783Z</time>
      </trkpt>
      <trkpt lat="47.622012" lon="7.614198">
        <ele>268.138023</ele>
        <time>2021-11-22T10:33:44.013Z</time>
      </trkpt>
      <trkpt lat="47.621969" lon="7.614243">
        <ele>268.178150</ele>
        <time>2021-11-22T10:33:44.728Z</time>
      </trkpt>
      <trkpt lat="47.621958" lon="7.614256">
        <ele>268.188874</ele>
        <time>2021-11-22T10:33:44.925Z</time>
      </trkpt>
      <trkpt lat="47.621893" lon="7.614337">
        <ele>268.253605</ele>
        <time>2021-11-22T10:33:46.142Z</time>
      </trkpt>
      <trkpt lat="47.621860" lon="7.614384">
        <ele>268.288487</ele>
        <time>2021-11-22T10:33:47.378Z</time>
      </trkpt>
      <trkpt lat="47.621271" lon="7.615693">
        <ele>269.097436</ele>
        <time>2021-11-22T10:34:07.493Z</time>
      </trkpt>
      <trkpt lat="47.620829" lon="7.616001">
        <ele>269.547438</ele>
        <time>2021-11-22T10:34:17.372Z</time>
      </trkpt>
      <trkpt lat="47.620672" lon="7.616094">
        <ele>269.793766</ele>
        <time>2021-11-22T10:34:20.609Z</time>
      </trkpt>
      <trkpt lat="47.620294" lon="7.616298">
        <ele>270.379868</ele>
        <time>2021-11-22T10:34:28.669Z</time>
      </trkpt>
      <trkpt lat="47.619999" lon="7.616450">
        <ele>270.834905</ele>
        <time>2021-11-22T10:34:35.470Z</time>
      </trkpt>
      <trkpt lat="47.619854" lon="7.616526">
        <ele>271.058986</ele>
        <time>2021-11-22T10:34:38.935Z</time>
      </trkpt>
      <trkpt lat="47.619286" lon="7.616863">
        <ele>271.950362</ele>
        <time>2021-11-22T10:34:52.088Z</time>
      </trkpt>
      <trkpt lat="47.619056" lon="7.617081">
        <ele>272.180950</ele>
        <time>2021-11-22T10:34:57.198Z</time>
      </trkpt>
      <trkpt lat="47.618911" lon="7.617202">
        <ele>272.305133</ele>
        <time>2021-11-22T10:35:00.581Z</time>
      </trkpt>
      <trkpt lat="47.618654" lon="7.617344">
        <ele>272.509843</ele>
        <time>2021-11-22T10:35:05.477Z</time>
      </trkpt>
      <trkpt lat="47.618238" lon="7.617454">
        <ele>272.825260</ele>
        <time>2021-11-22T10:35:15.436Z</time>
      </trkpt>
      <trkpt lat="47.616954" lon="7.617830">
        <ele>273.570206</ele>
        <time>2021-11-22T10:35:43.841Z</time>
      </trkpt>
      <trkpt lat="47.616623" lon="7.617938">
        <ele>273.693964</ele>
        <time>2021-11-22T10:35:50.234Z</time>
      </trkpt>
      <trkpt lat="47.616528" lon="7.617996">
        <ele>273.731478</ele>
        <time>2021-11-22T10:35:52.292Z</time>
      </trkpt>
      <trkpt lat="47.616392" lon="7.618080">
        <ele>273.785273</ele>
        <time>2021-11-22T10:35:55.213Z</time>
      </trkpt>
      <trkpt lat="47.616352" lon="7.618112">
        <ele>273.801868</ele>
        <time>2021-11-22T10:35:56.131Z</time>
      </trkpt>
      <trkpt lat="47.615857" lon="7.618503">
        <ele>274.008718</ele>
        <time>2021-11-22T10:36:09.016Z</time>
      </trkpt>
      <trkpt lat="47.615417" lon="7.618824">
        <ele>274.390341</ele>
        <time>2021-11-22T10:36:18.618Z</time>
      </trkpt>
      <trkpt lat="47.615170" lon="7.619210">
        <ele>274.669570</ele>
        <time>2021-11-22T10:36:25.672Z</time>
      </trkpt>
      <trkpt lat="47.615076" lon="7.619311">
        <ele>274.759905</ele>
        <time>2021-11-22T10:36:27.784Z</time>
      </trkpt>
      <trkpt lat="47.614973" lon="7.619421">
        <ele>274.858683</ele>
        <time>2021-11-22T10:36:30.339Z</time>
      </trkpt>
      <trkpt lat="47.614948" lon="7.619440">
        <ele>274.880546</ele>
        <time>2021-11-22T10:36:30.820Z</time>
      </trkpt>
      <trkpt lat="47.614867" lon="7.619502">
        <ele>274.951485</ele>
        <time>2021-11-22T10:36:32.436Z</time>
      </trkpt>
      <trkpt lat="47.614634" lon="7.619625">
        <ele>275.143969</ele>
        <time>2021-11-22T10:36:36.840Z</time>
      </trkpt>
      <trkpt lat="47.614082" lon="7.619775">
        <ele>275.361348</ele>
        <time>2021-11-22T10:36:45.698Z</time>
      </trkpt>
      <trkpt lat="47.613739" lon="7.619888">
        <ele>275.293988</ele>
        <time>2021-11-22T10:36:51.214Z</time>
      </trkpt>
      <trkpt lat="47.613306" lon="7.620006">
        <ele>275.209588</ele>
        <time>2021-11-22T10:36:57.439Z</time>
      </trkpt>
      <trkpt lat="47.613071" lon="7.620138">
        <ele>275.161414</ele>
        <time>2021-11-22T10:37:00.705Z</time>
      </trkpt>
      <trkpt lat="47.612876" lon="7.620285">
        <ele>275.119479</ele>
        <time>2021-11-22T10:37:03.527Z</time>
      </trkpt>
      <trkpt lat="47.611976" lon="7.620755">
        <ele>274.846653</ele>
        <time>2021-11-22T10:37:15.956Z</time>
      </trkpt>
      <trkpt lat="47.611143" lon="7.621251">
        <ele>274.549125</ele>
        <time>2021-11-22T10:37:28.530Z</time>
      </trkpt>
      <trkpt lat="47.610991" lon="7.621328">
        <ele>274.495884</ele>
        <time>2021-11-22T10:37:30.788Z</time>
      </trkpt>
      <trkpt lat="47.610833" lon="7.621400">
        <ele>274.446636</ele>
        <time>2021-11-22T10:37:33.282Z</time>
      </trkpt>
      <trkpt lat="47.610272" lon="7.621626">
        <ele>274.301179</ele>
        <time>2021-11-22T10:37:41.631Z</time>
      </trkpt>
      <trkpt lat="47.610099" lon="7.621643">
        <ele>274.257796</ele>
        <time>2021-11-22T10:37:44.144Z</time>
      </trkpt>
      <trkpt lat="47.610016" lon="7.621629">
        <ele>274.236895</ele>
        <time>2021-11-22T10:37:45.285Z</time>
      </trkpt>
      <trkpt lat="47.609880" lon="7.621619">
        <ele>274.202823</ele>
        <time>2021-11-22T10:37:47.110Z</time>
      </trkpt>
      <trkpt lat="47.609332" lon="7.621638">
        <ele>274.065667</ele>
        <time>2021-11-22T10:37:54.614Z</time>
      </trkpt>
      <trkpt lat="47.608424" lon="7.622293">
        <ele>274.072960</ele>
        <time>2021-11-22T10:38:08.178Z</time>
      </trkpt>
      <trkpt lat="47.606775" lon="7.623330">
        <ele>274.673222</ele>
        <time>2021-11-22T10:38:38.225Z</time>
      </trkpt>
      <trkpt lat="47.606585" lon="7.623488">
        <ele>274.817625</ele>
        <time>2021-11-22T10:38:42.181Z</time>
      </trkpt>
      <trkpt lat="47.606418" lon="7.623610">
        <ele>274.941035</ele>
        <time>2021-11-22T10:38:45.795Z</time>
      </trkpt>
      <trkpt lat="47.605691" lon="7.623980">
        <ele>275.370983</ele>
        <time>2021-11-22T10:39:00.086Z</time>
      </trkpt>
      <trkpt lat="47.604272" lon="7.624287">
        <ele>275.642980</ele>
        <time>2021-11-22T10:39:22.401Z</time>
      </trkpt>
      <trkpt lat="47.603748" lon="7.624409">
        <ele>275.589467</ele>
        <time>2021-11-22T10:39:29.311Z</time>
      </trkpt>
      <trkpt lat="47.603442" lon="7.624462">
        <ele>275.505724</ele>
        <time>2021-11-22T10:39:33.389Z</time>
      </trkpt>
      <trkpt lat="47.603174" lon="7.624532">
        <ele>275.431755</ele>
        <time>2021-11-22T10:39:37.039Z</time>
      </trkpt>
      <trkpt lat="47.603035" lon="7.624589">
        <ele>275.392554</ele>
        <time>2021-11-22T10:39:38.864Z</time>
      </trkpt>
      <trkpt lat="47.602801" lon="7.624730">
        <ele>275.323898</ele>
        <time>2021-11-22T10:39:42.352Z</time>
      </trkpt>
      <trkpt lat="47.602393" lon="7.625100">
        <ele>275.193905</ele>
        <time>2021-11-22T10:39:49.032Z</time>
      </trkpt>
      <trkpt lat="47.601909" lon="7.625561">
        <ele>275.743709</ele>
        <time>2021-11-22T10:39:58.577Z</time>
      </trkpt>
      <trkpt lat="47.601485" lon="7.625959">
        <ele>276.233632</ele>
        <time>2021-11-22T10:40:08.040Z</time>
      </trkpt>
      <trkpt lat="47.601049" lon="7.626371">
        <ele>276.738387</ele>
        <time>2021-11-22T10:40:18.780Z</time>
      </trkpt>
      <trkpt lat="47.600619" lon="7.626774">
        <ele>277.348563</ele>
        <time>2021-11-22T10:40:29.675Z</time>
      </trkpt>
      <trkpt lat="47.600407" lon="7.626982">
        <ele>277.694727</ele>
        <time>2021-11-22T10:40:35.215Z</time>
      </trkpt>
      <trkpt lat="47.600166" lon="7.627247">
        <ele>278.103294</ele>
        <time>2021-11-22T10:40:41.616Z</time>
      </trkpt>
      <trkpt lat="47.599867" lon="7.627559">
        <ele>278.601167</ele>
        <time>2021-11-22T10:40:49.100Z</time>
      </trkpt>
      <trkpt lat="47.599437" lon="7.627995">
        <ele>279.310529</ele>
        <time>2021-11-22T10:40:59.291Z</time>
      </trkpt>
      <trkpt lat="47.599159" lon="7.628310">
        <ele>279.515142</ele>
        <time>2021-11-22T10:41:05.584Z</time>
      </trkpt>
      <trkpt lat="47.598981" lon="7.628529">
        <ele>279.610653</ele>
        <time>2021-11-22T10:41:09.766Z</time>
      </trkpt>
      <trkpt lat="47.598396" lon="7.629284">
        <ele>279.930908</ele>
        <time>2021-11-22T10:41:22.345Z</time>
      </trkpt>
      <trkpt lat="47.598092" lon="7.629668">
        <ele>280.095817</ele>
        <time>2021-11-22T10:41:28.258Z</time>
      </trkpt>
      <trkpt lat="47.597745" lon="7.630065">
        <ele>280.172777</ele>
        <time>2021-11-22T10:41:34.489Z</time>
      </trkpt>
      <trkpt lat="47.597572" lon="7.630229">
        <ele>280.193278</ele>
        <time>2021-11-22T10:41:37.438Z</time>
      </trkpt>
      <trkpt lat="47.597237" lon="7.630571">
        <ele>280.233887</ele>
        <time>2021-11-22T10:41:43.344Z</time>
      </trkpt>
      <trkpt lat="47.597078" lon="7.630698">
        <ele>280.251919</ele>
        <time>2021-11-22T10:41:46.121Z</time>
      </trkpt>
      <trkpt lat="47.596934" lon="7.630802">
        <ele>280.267911</ele>
        <time>2021-11-22T10:41:48.594Z</time>
      </trkpt>
      <trkpt lat="47.596531" lon="7.631005">
        <ele>280.310408</ele>
        <time>2021-11-22T10:41:55.565Z</time>
      </trkpt>
      <trkpt lat="47.595923" lon="7.631253">
        <ele>280.559061</ele>
        <time>2021-11-22T10:42:05.808Z</time>
      </trkpt>
      <trkpt lat="47.595894" lon="7.631265">
        <ele>280.572371</ele>
        <time>2021-11-22T10:42:06.366Z</time>
      </trkpt>
      <trkpt lat="47.595873" lon="7.631280">
        <ele>280.582676</ele>
        <time>2021-11-22T10:42:06.756Z</time>
      </trkpt>
      <trkpt lat="47.595252" lon="7.631748">
        <ele>280.890627</ele>
        <time>2021-11-22T10:42:18.240Z</time>
      </trkpt>
      <trkpt lat="47.595202" lon="7.631819">
        <ele>280.921231</ele>
        <time>2021-11-22T10:42:19.392Z</time>
      </trkpt>
      <trkpt lat="47.595013" lon="7.631985">
        <ele>281.018341</ele>
        <time>2021-11-22T10:42:23.083Z</time>
      </trkpt>
      <trkpt lat="47.594815" lon="7.632123">
        <ele>281.114781</ele>
        <time>2021-11-22T10:42:26.866Z</time>
      </trkpt>
      <trkpt lat="47.594788" lon="7.632141">
        <ele>281.122827</ele>
        <time>2021-11-22T10:42:27.354Z</time>
      </trkpt>
      <trkpt lat="47.594743" lon="7.632152">
        <ele>281.135222</ele>
        <time>2021-11-22T10:42:28.186Z</time>
      </trkpt>
      <trkpt lat="47.594672" lon="7.632150">
        <ele>281.154522</ele>
        <time>2021-11-22T10:42:29.427Z</time>
      </trkpt>
      <trkpt lat="47.594605" lon="7.632126">
        <ele>281.173256</ele>
        <time>2021-11-22T10:42:30.701Z</time>
      </trkpt>
      <trkpt lat="47.594484" lon="7.632038">
        <ele>281.209883</ele>
        <time>2021-11-22T10:42:33.007Z</time>
      </trkpt>
      <trkpt lat="47.594327" lon="7.631926">
        <ele>281.257234</ele>
        <time>2021-11-22T10:42:36.005Z</time>
      </trkpt>
      <trkpt lat="47.594232" lon="7.631854">
        <ele>281.286231</ele>
        <time>2021-11-22T10:42:37.811Z</time>
      </trkpt>
      <trkpt lat="47.594129" lon="7.631776">
        <ele>281.317663</ele>
        <time>2021-11-22T10:42:39.640Z</time>
      </trkpt>
      <trkpt lat="47.594067" lon="7.631905">
        <ele>281.346697</ele>
        <time>2021-11-22T10:42:41.405Z</time>
      </trkpt>
      <trkpt lat="47.593945" lon="7.632160">
        <ele>281.404002</ele>
        <time>2021-11-22T10:42:44.639Z</time>
      </trkpt>
      <trkpt lat="47.593668" lon="7.632732">
        <ele>281.533071</ele>
        <time>2021-11-22T10:42:51.833Z</time>
      </trkpt>
      <trkpt lat="47.593569" lon="7.632922">
        <ele>281.577079</ele>
        <time>2021-11-22T10:42:54.239Z</time>
      </trkpt>
      <trkpt lat="47.593357" lon="7.633366">
        <ele>281.616222</ele>
        <time>2021-11-22T10:42:59.558Z</time>
      </trkpt>
      <trkpt lat="47.593264" lon="7.633642">
        <ele>281.626243</ele>
        <time>2021-11-22T10:43:02.655Z</time>
      </trkpt>
      <trkpt lat="47.593191" lon="7.633915">
        <ele>281.635782</ele>
        <time>2021-11-22T10:43:05.614Z</time>
      </trkpt>
      <trkpt lat="47.593146" lon="7.634554">
        <ele>281.656649</ele>
        <time>2021-11-22T10:43:12.278Z</time>
      </trkpt>
      <trkpt lat="47.593040" lon="7.635203">
        <ele>281.678337</ele>
        <time>2021-11-22T10:43:19.072Z</time>
      </trkpt>
      <trkpt lat="47.593020" lon="7.635250">
        <ele>281.680142</ele>
        <time>2021-11-22T10:43:19.739Z</time>
      </trkpt>
      <trkpt lat="47.592984" lon="7.635276">
        <ele>281.682071</ele>
        <time>2021-11-22T10:43:20.271Z</time>
      </trkpt>
      <trkpt lat="47.592438" lon="7.635358">
        <ele>281.414339</ele>
        <time>2021-11-22T10:43:28.442Z</time>
      </trkpt>
      <trkpt lat="47.592405" lon="7.635387">
        <ele>281.387123</ele>
        <time>2021-11-22T10:43:28.898Z</time>
      </trkpt>
      <trkpt lat="47.592363" lon="7.635505">
        <ele>281.323282</ele>
        <time>2021-11-22T10:43:30.398Z</time>
      </trkpt>
      <trkpt lat="47.592151" lon="7.636264">
        <ele>280.930204</ele>
        <time>2021-11-22T10:43:38.130Z</time>
      </trkpt>
      <trkpt lat="47.592004" lon="7.636793">
        <ele>280.656444</ele>
        <time>2021-11-22T10:43:42.731Z</time>
      </trkpt>
      <trkpt lat="47.591939" lon="7.636981">
        <ele>280.555358</ele>
        <time>2021-11-22T10:43:44.375Z</time>
      </trkpt>
      <trkpt lat="47.591826" lon="7.637265">
        <ele>280.361235</ele>
        <time>2021-11-22T10:43:47.011Z</time>
      </trkpt>
      <trkpt lat="47.591793" lon="7.637341">
        <ele>280.220432</ele>
        <time>2021-11-22T10:43:47.609Z</time>
      </trkpt>
      <trkpt lat="47.591581" lon="7.637948">
        <ele>279.155620</ele>
        <time>2021-11-22T10:43:52.644Z</time>
      </trkpt>
      <trkpt lat="47.591568" lon="7.637986">
        <ele>279.089246</ele>
        <time>2021-11-22T10:43:52.971Z</time>
      </trkpt>
      <trkpt lat="47.591560" lon="7.638083">
        <ele>278.937020</ele>
        <time>2021-11-22T10:43:53.689Z</time>
      </trkpt>
      <trkpt lat="47.591561" lon="7.638177">
        <ele>278.790575</ele>
        <time>2021-11-22T10:43:54.402Z</time>
      </trkpt>
      <trkpt lat="47.591582" lon="7.638302">
        <ele>278.589908</ele>
        <time>2021-11-22T10:43:55.238Z</time>
      </trkpt>
      <trkpt lat="47.591888" lon="7.639181">
        <ele>277.049009</ele>
        <time>2021-11-22T10:44:02.419Z</time>
      </trkpt>
      <trkpt lat="47.592081" lon="7.639698">
        <ele>276.126039</ele>
        <time>2021-11-22T10:44:06.523Z</time>
      </trkpt>
      <trkpt lat="47.592111" lon="7.639788">
        <ele>275.966687</ele>
        <time>2021-11-22T10:44:07.245Z</time>
      </trkpt>
      <trkpt lat="47.592123" lon="7.639880">
        <ele>275.817951</ele>
        <time>2021-11-22T10:44:07.896Z</time>
      </trkpt>
      <trkpt lat="47.592152" lon="7.640227">
        <ele>275.262951</ele>
        <time>2021-11-22T10:44:10.310Z</time>
      </trkpt>
      <trkpt lat="47.592162" lon="7.640337">
        <ele>275.086770</ele>
        <time>2021-11-22T10:44:11.082Z</time>
      </trkpt>
      <trkpt lat="47.592180" lon="7.640409">
        <ele>274.964886</ele>
        <time>2021-11-22T10:44:11.610Z</time>
      </trkpt>
      <trkpt lat="47.592197" lon="7.640454">
        <ele>274.883016</ele>
        <time>2021-11-22T10:44:12.002Z</time>
      </trkpt>
      <trkpt lat="47.592211" lon="7.640492">
        <ele>274.814286</ele>
        <time>2021-11-22T10:44:12.333Z</time>
      </trkpt>
      <trkpt lat="47.592231" lon="7.640536">
        <ele>274.730063</ele>
        <time>2021-11-22T10:44:12.741Z</time>
      </trkpt>
      <trkpt lat="47.592272" lon="7.640612">
        <ele>274.575582</ele>
        <time>2021-11-22T10:44:13.536Z</time>
      </trkpt>
      <trkpt lat="47.592322" lon="7.640775">
        <ele>274.291350</ele>
        <time>2021-11-22T10:44:14.760Z</time>
      </trkpt>
      <trkpt lat="47.592339" lon="7.640861">
        <ele>274.149101</ele>
        <time>2021-11-22T10:44:15.399Z</time>
      </trkpt>
      <trkpt lat="47.592341" lon="7.640976">
        <ele>273.966504</ele>
        <time>2021-11-22T10:44:16.216Z</time>
      </trkpt>
      <trkpt lat="47.592311" lon="7.641437">
        <ele>273.231371</ele>
        <time>2021-11-22T10:44:19.487Z</time>
      </trkpt>
      <trkpt lat="47.592291" lon="7.641581">
        <ele>272.998006</ele>
        <time>2021-11-22T10:44:20.533Z</time>
      </trkpt>
      <trkpt lat="47.592277" lon="7.641676">
        <ele>272.843656</ele>
        <time>2021-11-22T10:44:21.363Z</time>
      </trkpt>
      <trkpt lat="47.592236" lon="7.641777">
        <ele>272.656539</ele>
        <time>2021-11-22T10:44:22.190Z</time>
      </trkpt>
      <trkpt lat="47.592141" lon="7.642236">
        <ele>271.957659</ele>
        <time>2021-11-22T10:44:25.907Z</time>
      </trkpt>
      <trkpt lat="47.592138" lon="7.642302">
        <ele>271.903134</ele>
        <time>2021-11-22T10:44:26.361Z</time>
      </trkpt>
      <trkpt lat="47.592144" lon="7.642395">
        <ele>271.826128</ele>
        <time>2021-11-22T10:44:27.120Z</time>
      </trkpt>
      <trkpt lat="47.592147" lon="7.642526">
        <ele>271.718088</ele>
        <time>2021-11-22T10:44:28.087Z</time>
      </trkpt>
      <trkpt lat="47.592139" lon="7.642591">
        <ele>271.663627</ele>
        <time>2021-11-22T10:44:28.607Z</time>
      </trkpt>
      <trkpt lat="47.592109" lon="7.642817">
        <ele>271.473770</ele>
        <time>2021-11-22T10:44:30.492Z</time>
      </trkpt>
      <trkpt lat="47.592099" lon="7.642873">
        <ele>271.426021</ele>
        <time>2021-11-22T10:44:30.968Z</time>
      </trkpt>
      <trkpt lat="47.592096" lon="7.642889">
        <ele>271.412333</ele>
        <time>2021-11-22T10:44:31.123Z</time>
      </trkpt>
      <trkpt lat="47.592075" lon="7.643001">
        <ele>271.316514</ele>
        <time>2021-11-22T10:44:32.059Z</time>
      </trkpt>
      <trkpt lat="47.592059" lon="7.643113">
        <ele>271.222149</ele>
        <time>2021-11-22T10:44:32.898Z</time>
      </trkpt>
      <trkpt lat="47.592040" lon="7.643345">
        <ele>271.029516</ele>
        <time>2021-11-22T10:44:34.797Z</time>
      </trkpt>
      <trkpt lat="47.592040" lon="7.643441">
        <ele>270.950387</ele>
        <time>2021-11-22T10:44:35.549Z</time>
      </trkpt>
      <trkpt lat="47.592051" lon="7.643610">
        <ele>270.810440</ele>
        <time>2021-11-22T10:44:36.823Z</time>
      </trkpt>
      <trkpt lat="47.592160" lon="7.644024">
        <ele>270.444115</ele>
        <time>2021-11-22T10:44:40.383Z</time>
      </trkpt>
      <trkpt lat="47.592590" lon="7.645087">
        <ele>269.739853</ele>
        <time>2021-11-22T10:44:51.030Z</time>
      </trkpt>
      <trkpt lat="47.592604" lon="7.645155">
        <ele>269.727157</ele>
        <time>2021-11-22T10:44:52.060Z</time>
      </trkpt>
      <trkpt lat="47.592612" lon="7.645242">
        <ele>269.711478</ele>
        <time>2021-11-22T10:44:52.880Z</time>
      </trkpt>
      <trkpt lat="47.592615" lon="7.645321">
        <ele>269.697349</ele>
        <time>2021-11-22T10:44:53.607Z</time>
      </trkpt>
      <trkpt lat="47.592608" lon="7.645397">
        <ele>269.683651</ele>
        <time>2021-11-22T10:44:54.239Z</time>
      </trkpt>
      <trkpt lat="47.592592" lon="7.645495">
        <ele>269.665646</ele>
        <time>2021-11-22T10:44:55.117Z</time>
      </trkpt>
      <trkpt lat="47.592575" lon="7.645573">
        <ele>269.651009</ele>
        <time>2021-11-22T10:44:55.906Z</time>
      </trkpt>
      <trkpt lat="47.592558" lon="7.645627">
        <ele>269.640367</ele>
        <time>2021-11-22T10:44:56.639Z</time>
      </trkpt>
      <trkpt lat="47.592527" lon="7.645695">
        <ele>269.625710</ele>
        <time>2021-11-22T10:44:57.638Z</time>
      </trkpt>
      <trkpt lat="47.592527" lon="7.645695">
        <ele>269.625710</ele>
        <time>2021-11-22T10:44:57.639Z</time>
      </trkpt>
      <trkpt lat="47.592507" lon="7.645734">
        <ele>269.616961</ele>
        <time>2021-11-22T10:44:58.098Z</time>
      </trkpt>
      <trkpt lat="47.592240" lon="7.646267">
        <ele>269.498400</ele>
        <time>2021-11-22T10:45:05.067Z</time>
      </trkpt>
      <trkpt lat="47.592219" lon="7.646306">
        <ele>269.489488</ele>
        <time>2021-11-22T10:45:05.525Z</time>
      </trkpt>
      <trkpt lat="47.592188" lon="7.646275">
        <ele>269.479588</ele>
        <time>2021-11-22T10:45:06.047Z</time>
      </trkpt>
      <trkpt lat="47.592086" lon="7.646139">
        <ele>269.443267</ele>
        <time>2021-11-22T10:45:08.179Z</time>
      </trkpt>
      <trkpt lat="47.592050" lon="7.646095">
        <ele>269.430914</ele>
        <time>2021-11-22T10:45:08.791Z</time>
      </trkpt>
      <trkpt lat="47.591154" lon="7.645003">
        <ele>268.986013</ele>
        <time>2021-11-22T10:45:24.098Z</time>
      </trkpt>
      <trkpt lat="47.591141" lon="7.644987">
        <ele>268.978831</ele>
        <time>2021-11-22T10:45:24.323Z</time>
      </trkpt>
      <trkpt lat="47.590669" lon="7.644422">
        <ele>268.720956</ele>
        <time>2021-11-22T10:45:32.271Z</time>
      </trkpt>
      <trkpt lat="47.589605" lon="7.643151">
        <ele>268.584660</ele>
        <time>2021-11-22T10:45:51.623Z</time>
      </trkpt>
      <trkpt lat="47.589439" lon="7.642956">
        <ele>268.584232</ele>
        <time>2021-11-22T10:45:55.035Z</time>
      </trkpt>
      <trkpt lat="47.589372" lon="7.642899">
        <ele>268.584076</ele>
        <time>2021-11-22T10:45:56.323Z</time>
      </trkpt>
      <trkpt lat="47.589069" lon="7.642493">
        <ele>268.583251</ele>
        <time>2021-11-22T10:46:02.896Z</time>
      </trkpt>
      <trkpt lat="47.588260" lon="7.641096">
        <ele>268.447394</ele>
        <time>2021-11-22T10:46:22.131Z</time>
      </trkpt>
      <trkpt lat="47.586685" lon="7.638092">
        <ele>267.012588</ele>
        <time>2021-11-22T10:46:55.294Z</time>
      </trkpt>
      <trkpt lat="47.586552" lon="7.637873">
        <ele>266.836525</ele>
        <time>2021-11-22T10:46:57.689Z</time>
      </trkpt>
      <trkpt lat="47.586539" lon="7.637889">
        <ele>266.821559</ele>
        <time>2021-11-22T10:46:59.585Z</time>
      </trkpt>
      <trkpt lat="47.586472" lon="7.637973">
        <ele>266.743837</ele>
        <time>2021-11-22T10:47:08.830Z</time>
      </trkpt>
      <trkpt lat="47.586127" lon="7.638478">
        <ele>266.314397</ele>
        <time>2021-11-22T10:48:01.116Z</time>
      </trkpt>
      <trkpt lat="47.586090" lon="7.638505">
        <ele>266.277868</ele>
        <time>2021-11-22T10:48:05.293Z</time>
      </trkpt>
      <trkpt lat="47.586094" lon="7.638577">
        <ele>266.234706</ele>
        <time>2021-11-22T10:48:10.571Z</time>
      </trkpt>
      <trkpt lat="47.586088" lon="7.638684">
        <ele>266.170559</ele>
        <time>2021-11-22T10:48:18.440Z</time>
      </trkpt>
      <trkpt lat="47.585643" lon="7.640577">
        <ele>265.779102</ele>
        <time>2021-11-22T10:50:44.326Z</time>
      </trkpt>
      <trkpt lat="47.585624" lon="7.640660">
        <ele>265.798473</ele>
        <time>2021-11-22T10:50:51.017Z</time>
      </trkpt>
      <trkpt lat="47.585609" lon="7.640735">
        <ele>265.815762</ele>
        <time>2021-11-22T10:50:56.950Z</time>
      </trkpt>
      <trkpt lat="47.585609" lon="7.640735">
        <ele>265.815762</ele>
        <time>2021-11-22T10:50:56.963Z</time>
      </trkpt>
      <trkpt lat="47.585359" lon="7.642334">
        <ele>266.335057</ele>
        <time>2021-11-22T10:53:04.429Z</time>
      </trkpt>
      <trkpt lat="47.585354" lon="7.642462">
        <ele>266.523102</ele>
        <time>2021-11-22T10:53:14.593Z</time>
      </trkpt>
      <trkpt lat="47.585336" lon="7.642883">
        <ele>267.141796</ele>
        <time>2021-11-22T10:53:48.197Z</time>
      </trkpt>
      <trkpt lat="47.585326" lon="7.643892">
        <ele>268.621795</ele>
        <time>2021-11-22T10:55:09.485Z</time>
      </trkpt>
      <trkpt lat="47.585328" lon="7.643994">
        <ele>268.771456</ele>
        <time>2021-11-22T10:55:11.502Z</time>
      </trkpt>
      <trkpt lat="47.585335" lon="7.644075">
        <ele>268.891224</ele>
        <time>2021-11-22T10:55:13.136Z</time>
      </trkpt>
      <trkpt lat="47.585331" lon="7.644822">
        <ele>269.986839</ele>
        <time>2021-11-22T10:55:28.879Z</time>
      </trkpt>
      <trkpt lat="47.585208" lon="7.646213">
        <ele>273.266602</ele>
        <time>2021-11-22T10:56:00.843Z</time>
      </trkpt>
      <trkpt lat="47.585228" lon="7.646594">
        <ele>274.172600</ele>
        <time>2021-11-22T10:56:10.151Z</time>
      </trkpt>
      <trkpt lat="47.585361" lon="7.647766">
        <ele>276.899173</ele>
        <time>2021-11-22T10:56:38.597Z</time>
      </trkpt>
      <trkpt lat="47.585377" lon="7.647940">
        <ele>277.253001</ele>
        <time>2021-11-22T10:56:42.719Z</time>
      </trkpt>
      <trkpt lat="47.585369" lon="7.648060">
        <ele>277.495962</ele>
        <time>2021-11-22T10:56:45.847Z</time>
      </trkpt>
      <trkpt lat="47.585252" lon="7.648497">
        <ele>278.443286</ele>
        <time>2021-11-22T10:56:56.412Z</time>
      </trkpt>
      <trkpt lat="47.585161" lon="7.648839">
        <ele>279.184051</ele>
        <time>2021-11-22T10:57:04.509Z</time>
      </trkpt>
      <trkpt lat="47.585063" lon="7.649185">
        <ele>279.940167</ele>
        <time>2021-11-22T10:57:11.278Z</time>
      </trkpt>
      <trkpt lat="47.585015" lon="7.649351">
        <ele>280.304075</ele>
        <time>2021-11-22T10:57:14.418Z</time>
      </trkpt>
      <trkpt lat="47.584886" lon="7.649803">
        <ele>281.292969</ele>
        <time>2021-11-22T10:57:22.628Z</time>
      </trkpt>
      <trkpt lat="47.584856" lon="7.649890">
        <ele>281.489843</ele>
        <time>2021-11-22T10:57:24.156Z</time>
      </trkpt>
      <trkpt lat="47.584850" lon="7.649909">
        <ele>281.532114</ele>
        <time>2021-11-22T10:57:24.509Z</time>
      </trkpt>
      <trkpt lat="47.584842" lon="7.649930">
        <ele>281.580708</ele>
        <time>2021-11-22T10:57:24.951Z</time>
      </trkpt>
      <trkpt lat="47.584812" lon="7.650016">
        <ele>281.762291</ele>
        <time>2021-11-22T10:57:26.769Z</time>
      </trkpt>
      <trkpt lat="47.584784" lon="7.650175">
        <ele>281.857909</ele>
        <time>2021-11-22T10:57:29.152Z</time>
      </trkpt>
      <trkpt lat="47.584811" lon="7.650714">
        <ele>282.172401</ele>
        <time>2021-11-22T10:57:36.820Z</time>
      </trkpt>
      <trkpt lat="47.584829" lon="7.651141">
        <ele>282.421345</ele>
        <time>2021-11-22T10:57:42.363Z</time>
      </trkpt>
      <trkpt lat="47.584828" lon="7.651274">
        <ele>282.498738</ele>
        <time>2021-11-22T10:57:45.982Z</time>
      </trkpt>
      <trkpt lat="47.584812" lon="7.651403">
        <ele>282.575058</ele>
        <time>2021-11-22T10:57:49.220Z</time>
      </trkpt>
      <trkpt lat="47.584795" lon="7.651535">
        <ele>282.653253</ele>
        <time>2021-11-22T10:57:51.881Z</time>
      </trkpt>
      <trkpt lat="47.584772" lon="7.651673">
        <ele>282.735966</ele>
        <time>2021-11-22T10:57:53.818Z</time>
      </trkpt>
      <trkpt lat="47.584640" lon="7.652138">
        <ele>283.029522</ele>
        <time>2021-11-22T10:57:59.605Z</time>
      </trkpt>
      <trkpt lat="47.584548" lon="7.652398">
        <ele>283.200363</ele>
        <time>2021-11-22T10:58:04.205Z</time>
      </trkpt>
      <trkpt lat="47.584497" lon="7.652365">
        <ele>283.248367</ele>
        <time>2021-11-22T10:58:04.746Z</time>
      </trkpt>
      <trkpt lat="47.584102" lon="7.652111">
        <ele>283.367169</ele>
        <time>2021-11-22T10:58:10.831Z</time>
      </trkpt>
      <trkpt lat="47.583952" lon="7.652014">
        <ele>283.393795</ele>
        <time>2021-11-22T10:58:14.293Z</time>
      </trkpt>
      <trkpt lat="47.583879" lon="7.651967">
        <ele>283.406744</ele>
        <time>2021-11-22T10:58:16.174Z</time>
      </trkpt>
      <trkpt lat="47.583851" lon="7.651949">
        <ele>283.411709</ele>
        <time>2021-11-22T10:58:16.466Z</time>
      </trkpt>
      <trkpt lat="47.583804" lon="7.651920">
        <ele>283.419992</ele>
        <time>2021-11-22T10:58:16.952Z</time>
      </trkpt>
      <trkpt lat="47.583614" lon="7.651801">
        <ele>283.453551</ele>
        <time>2021-11-22T10:58:21.207Z</time>
      </trkpt>
      <trkpt lat="47.583569" lon="7.651773">
        <ele>283.461491</ele>
        <time>2021-11-22T10:58:22.804Z</time>
      </trkpt>
      <trkpt lat="47.583150" lon="7.651512">
        <ele>283.535437</ele>
        <time>2021-11-22T10:58:28.574Z</time>
      </trkpt>
      <trkpt lat="47.583085" lon="7.651461">
        <ele>283.547402</ele>
        <time>2021-11-22T10:58:29.635Z</time>
      </trkpt>
      <trkpt lat="47.582873" lon="7.651294">
        <ele>283.586462</ele>
        <time>2021-11-22T10:58:33.921Z</time>
      </trkpt>
      <trkpt lat="47.582797" lon="7.651234">
        <ele>283.600471</ele>
        <time>2021-11-22T10:58:34.798Z</time>
      </trkpt>
      <trkpt lat="47.582738" lon="7.651182">
        <ele>283.627392</ele>
        <time>2021-11-22T10:58:36.158Z</time>
      </trkpt>
      <trkpt lat="47.582473" lon="7.650856">
        <ele>283.767102</ele>
        <time>2021-11-22T10:58:40.944Z</time>
      </trkpt>
      <trkpt lat="47.582374" lon="7.650733">
        <ele>283.819508</ele>
        <time>2021-11-22T10:58:43.536Z</time>
      </trkpt>
      <trkpt lat="47.582244" lon="7.650568">
        <ele>283.888941</ele>
        <time>2021-11-22T10:58:46.717Z</time>
      </trkpt>
      <trkpt lat="47.581750" lon="7.649946">
        <ele>284.151897</ele>
        <time>2021-11-22T10:58:57.409Z</time>
      </trkpt>
      <trkpt lat="47.581716" lon="7.649907">
        <ele>284.169338</ele>
        <time>2021-11-22T10:58:58.033Z</time>
      </trkpt>
      <trkpt lat="47.581124" lon="7.649194">
        <ele>284.486307</ele>
        <time>2021-11-22T10:59:11.604Z</time>
      </trkpt>
      <trkpt lat="47.580953" lon="7.648987">
        <ele>284.580423</ele>
        <time>2021-11-22T10:59:15.652Z</time>
      </trkpt>
      <trkpt lat="47.580773" lon="7.649069">
        <ele>284.660701</ele>
        <time>2021-11-22T10:59:18.621Z</time>
      </trkpt>
      <trkpt lat="47.580709" lon="7.649099">
        <ele>284.689317</ele>
        <time>2021-11-22T10:59:19.860Z</time>
      </trkpt>
      <trkpt lat="47.580600" lon="7.649166">
        <ele>284.739621</ele>
        <time>2021-11-22T10:59:21.900Z</time>
      </trkpt>
      <trkpt lat="47.580497" lon="7.649043">
        <ele>284.796006</ele>
        <time>2021-11-22T10:59:23.808Z</time>
      </trkpt>
      <trkpt lat="47.580390" lon="7.648947">
        <ele>284.849325</ele>
        <time>2021-11-22T10:59:25.984Z</time>
      </trkpt>
      <trkpt lat="47.580196" lon="7.648842">
        <ele>284.937370</ele>
        <time>2021-11-22T10:59:29.180Z</time>
      </trkpt>
      <trkpt lat="47.579842" lon="7.648645">
        <ele>285.096750</ele>
        <time>2021-11-22T10:59:35.163Z</time>
      </trkpt>
      <trkpt lat="47.579401" lon="7.648402">
        <ele>284.912800</ele>
        <time>2021-11-22T10:59:42.924Z</time>
      </trkpt>
      <trkpt lat="47.578549" lon="7.647926">
        <ele>284.556808</ele>
        <time>2021-11-22T10:59:54.936Z</time>
      </trkpt>
      <trkpt lat="47.578355" lon="7.647814">
        <ele>284.475408</ele>
        <time>2021-11-22T10:59:57.420Z</time>
      </trkpt>
      <trkpt lat="47.578240" lon="7.647750">
        <ele>284.427380</ele>
        <time>2021-11-22T10:59:59.143Z</time>
      </trkpt>
      <trkpt lat="47.578212" lon="7.647592">
        <ele>284.366622</ele>
        <time>2021-11-22T11:00:00.906Z</time>
      </trkpt>
      <trkpt lat="47.578199" lon="7.647522">
        <ele>284.313910</ele>
        <time>2021-11-22T11:00:01.673Z</time>
      </trkpt>
      <trkpt lat="47.578172" lon="7.647371">
        <ele>284.200496</ele>
        <time>2021-11-22T11:00:03.474Z</time>
      </trkpt>
      <trkpt lat="47.578151" lon="7.647263">
        <ele>284.118894</ele>
        <time>2021-11-22T11:00:04.965Z</time>
      </trkpt>
      <trkpt lat="47.578114" lon="7.647072">
        <ele>283.974621</ele>
        <time>2021-11-22T11:00:07.174Z</time>
      </trkpt>
      <trkpt lat="47.577955" lon="7.646248">
        <ele>283.352391</ele>
        <time>2021-11-22T11:00:17.182Z</time>
      </trkpt>
      <trkpt lat="47.577871" lon="7.645828">
        <ele>283.034344</ele>
        <time>2021-11-22T11:00:22.166Z</time>
      </trkpt>
      <trkpt lat="47.577819" lon="7.645639">
        <ele>282.886153</ele>
        <time>2021-11-22T11:00:24.758Z</time>
      </trkpt>
      <trkpt lat="47.577778" lon="7.645521">
        <ele>282.789786</ele>
        <time>2021-11-22T11:00:26.108Z</time>
      </trkpt>
      <trkpt lat="47.577733" lon="7.645418">
        <ele>282.700693</ele>
        <time>2021-11-22T11:00:27.499Z</time>
      </trkpt>
      <trkpt lat="47.577068" lon="7.644471">
        <ele>281.766545</ele>
        <time>2021-11-22T11:00:43.802Z</time>
      </trkpt>
      <trkpt lat="47.577053" lon="7.644408">
        <ele>281.721808</ele>
        <time>2021-11-22T11:00:44.485Z</time>
      </trkpt>
      <trkpt lat="47.577020" lon="7.644357">
        <ele>281.674487</ele>
        <time>2021-11-22T11:00:45.117Z</time>
      </trkpt>
      <trkpt lat="47.576984" lon="7.644345">
        <ele>281.637860</ele>
        <time>2021-11-22T11:00:45.569Z</time>
      </trkpt>
      <trkpt lat="47.576840" lon="7.644326">
        <ele>281.494357</ele>
        <time>2021-11-22T11:00:47.445Z</time>
      </trkpt>
      <trkpt lat="47.576834" lon="7.644207">
        <ele>281.414449</ele>
        <time>2021-11-22T11:00:48.484Z</time>
      </trkpt>
      <trkpt lat="47.576806" lon="7.644093">
        <ele>281.333210</ele>
        <time>2021-11-22T11:00:49.403Z</time>
      </trkpt>
      <trkpt lat="47.576675" lon="7.643893">
        <ele>281.146542</ele>
        <time>2021-11-22T11:00:51.800Z</time>
      </trkpt>
      <trkpt lat="47.575918" lon="7.642896">
        <ele>279.344097</ele>
        <time>2021-11-22T11:01:04.187Z</time>
      </trkpt>
      <trkpt lat="47.575929" lon="7.642857">
        <ele>279.273357</ele>
        <time>2021-11-22T11:01:04.464Z</time>
      </trkpt>
      <trkpt lat="47.575738" lon="7.642528">
        <ele>278.546977</ele>
        <time>2021-11-22T11:01:07.684Z</time>
      </trkpt>
      <trkpt lat="47.575598" lon="7.642288">
        <ele>278.016010</ele>
        <time>2021-11-22T11:01:09.856Z</time>
      </trkpt>
      <trkpt lat="47.574995" lon="7.641437">
        <ele>275.906185</ele>
        <time>2021-11-22T11:01:18.146Z</time>
      </trkpt>
      <trkpt lat="47.574636" lon="7.640933">
        <ele>274.470479</ele>
        <time>2021-11-22T11:01:23.029Z</time>
      </trkpt>
      <trkpt lat="47.574537" lon="7.640780">
        <ele>274.055203</ele>
        <time>2021-11-22T11:01:24.438Z</time>
      </trkpt>
      <trkpt lat="47.574263" lon="7.640424">
        <ele>272.997254</ele>
        <time>2021-11-22T11:01:28.128Z</time>
      </trkpt>
      <trkpt lat="47.572931" lon="7.638578">
        <ele>269.278858</ele>
        <time>2021-11-22T11:01:48.300Z</time>
      </trkpt>
      <trkpt lat="47.572773" lon="7.638380">
        <ele>268.966265</ele>
        <time>2021-11-22T11:01:50.959Z</time>
      </trkpt>
      <trkpt lat="47.572427" lon="7.637970">
        <ele>268.296999</ele>
        <time>2021-11-22T11:01:56.509Z</time>
      </trkpt>
      <trkpt lat="47.572206" lon="7.637673">
        <ele>268.024720</ele>
        <time>2021-11-22T11:02:00.206Z</time>
      </trkpt>
      <trkpt lat="47.571982" lon="7.637364">
        <ele>267.756442</ele>
        <time>2021-11-22T11:02:04.000Z</time>
      </trkpt>
      <trkpt lat="47.571861" lon="7.637212">
        <ele>267.617383</ele>
        <time>2021-11-22T11:02:05.919Z</time>
      </trkpt>
      <trkpt lat="47.571753" lon="7.637078">
        <ele>267.493901</ele>
        <time>2021-11-22T11:02:07.683Z</time>
      </trkpt>
      <trkpt lat="47.571578" lon="7.636839">
        <ele>267.285275</ele>
        <time>2021-11-22T11:02:10.592Z</time>
      </trkpt>
      <trkpt lat="47.571283" lon="7.636434">
        <ele>266.932741</ele>
        <time>2021-11-22T11:02:15.548Z</time>
      </trkpt>
      <trkpt lat="47.571014" lon="7.636055">
        <ele>266.621626</ele>
        <time>2021-11-22T11:02:20.296Z</time>
      </trkpt>
      <trkpt lat="47.570302" lon="7.635051">
        <ele>265.901149</ele>
        <time>2021-11-22T11:02:33.049Z</time>
      </trkpt>
      <trkpt lat="47.570259" lon="7.635033">
        <ele>265.868391</ele>
        <time>2021-11-22T11:02:33.595Z</time>
      </trkpt>
      <trkpt lat="47.570189" lon="7.635029">
        <ele>265.817034</ele>
        <time>2021-11-22T11:02:34.542Z</time>
      </trkpt>
      <trkpt lat="47.570134" lon="7.634958">
        <ele>265.763563</ele>
        <time>2021-11-22T11:02:35.476Z</time>
      </trkpt>
      <trkpt lat="47.570039" lon="7.634831">
        <ele>265.669771</ele>
        <time>2021-11-22T11:02:37.088Z</time>
      </trkpt>
      <trkpt lat="47.569914" lon="7.634657">
        <ele>265.544052</ele>
        <time>2021-11-22T11:02:39.280Z</time>
      </trkpt>
      <trkpt lat="47.569443" lon="7.634003">
        <ele>265.064820</ele>
        <time>2021-11-22T11:02:47.280Z</time>
      </trkpt>
      <trkpt lat="47.569381" lon="7.633887">
        <ele>264.990162</ele>
        <time>2021-11-22T11:02:48.515Z</time>
      </trkpt>
      <trkpt lat="47.569365" lon="7.633738">
        <ele>264.914048</ele>
        <time>2021-11-22T11:02:49.754Z</time>
      </trkpt>
      <trkpt lat="47.569280" lon="7.633767">
        <ele>264.848829</ele>
        <time>2021-11-22T11:02:50.867Z</time>
      </trkpt>
      <trkpt lat="47.569194" lon="7.633796">
        <ele>264.782882</ele>
        <time>2021-11-22T11:02:51.970Z</time>
      </trkpt>
      <trkpt lat="47.568916" lon="7.633890">
        <ele>264.569674</ele>
        <time>2021-11-22T11:02:55.524Z</time>
      </trkpt>
      <trkpt lat="47.568755" lon="7.633945">
        <ele>264.446135</ele>
        <time>2021-11-22T11:02:57.559Z</time>
      </trkpt>
      <trkpt lat="47.568664" lon="7.633976">
        <ele>264.376318</ele>
        <time>2021-11-22T11:02:58.681Z</time>
      </trkpt>
      <trkpt lat="47.568506" lon="7.634074">
        <ele>264.248250</ele>
        <time>2021-11-22T11:03:00.836Z</time>
      </trkpt>
      <trkpt lat="47.568426" lon="7.634116">
        <ele>264.184790</ele>
        <time>2021-11-22T11:03:02.288Z</time>
      </trkpt>
      <trkpt lat="47.567896" lon="7.634414">
        <ele>263.982137</ele>
        <time>2021-11-22T11:03:13.007Z</time>
      </trkpt>
      <trkpt lat="47.567554" lon="7.634720">
        <ele>263.928117</ele>
        <time>2021-11-22T11:03:21.367Z</time>
      </trkpt>
      <trkpt lat="47.567470" lon="7.634813">
        <ele>263.913939</ele>
        <time>2021-11-22T11:03:23.332Z</time>
      </trkpt>
      <trkpt lat="47.567447" lon="7.634839">
        <ele>263.910027</ele>
        <time>2021-11-22T11:03:23.964Z</time>
      </trkpt>
      <trkpt lat="47.567360" lon="7.634990">
        <ele>263.891910</ele>
        <time>2021-11-22T11:03:26.592Z</time>
      </trkpt>
      <trkpt lat="47.567291" lon="7.635141">
        <ele>263.875271</ele>
        <time>2021-11-22T11:03:29.124Z</time>
      </trkpt>
      <trkpt lat="47.567202" lon="7.635336">
        <ele>263.853791</ele>
        <time>2021-11-22T11:03:32.281Z</time>
      </trkpt>
      <trkpt lat="47.567127" lon="7.635520">
        <ele>263.834178</ele>
        <time>2021-11-22T11:03:35.110Z</time>
      </trkpt>
      <trkpt lat="47.566975" lon="7.635896">
        <ele>263.794186</ele>
        <time>2021-11-22T11:03:41.226Z</time>
      </trkpt>
      <trkpt lat="47.566893" lon="7.636097">
        <ele>263.758281</ele>
        <time>2021-11-22T11:03:44.490Z</time>
      </trkpt>
      <trkpt lat="47.566839" lon="7.636231">
        <ele>263.730295</ele>
        <time>2021-11-22T11:03:46.768Z</time>
      </trkpt>
      <trkpt lat="47.566788" lon="7.636368">
        <ele>263.702241</ele>
        <time>2021-11-22T11:03:48.836Z</time>
      </trkpt>
      <trkpt lat="47.566774" lon="7.636453">
        <ele>263.686553</ele>
        <time>2021-11-22T11:03:50.040Z</time>
      </trkpt>
      <trkpt lat="47.566766" lon="7.636540">
        <ele>263.670810</ele>
        <time>2021-11-22T11:03:51.363Z</time>
      </trkpt>
      <trkpt lat="47.566514" lon="7.636519">
        <ele>263.603739</ele>
        <time>2021-11-22T11:03:55.120Z</time>
      </trkpt>
      <trkpt lat="47.566084" lon="7.636483">
        <ele>263.489291</ele>
        <time>2021-11-22T11:04:01.486Z</time>
      </trkpt>
      <trkpt lat="47.566043" lon="7.636480">
        <ele>263.478383</ele>
        <time>2021-11-22T11:04:02.112Z</time>
      </trkpt>
      <trkpt lat="47.565914" lon="7.636469">
        <ele>263.444046</ele>
        <time>2021-11-22T11:04:03.875Z</time>
      </trkpt>
      <trkpt lat="47.565890" lon="7.636467">
        <ele>263.437658</ele>
        <time>2021-11-22T11:04:04.212Z</time>
      </trkpt>
      <trkpt lat="47.565789" lon="7.636459">
        <ele>263.410781</ele>
        <time>2021-11-22T11:04:05.494Z</time>
      </trkpt>
      <trkpt lat="47.565748" lon="7.636455">
        <ele>263.399862</ele>
        <time>2021-11-22T11:04:06.065Z</time>
      </trkpt>
      <trkpt lat="47.565321" lon="7.636419">
        <ele>263.205264</ele>
        <time>2021-11-22T11:04:11.369Z</time>
      </trkpt>
      <trkpt lat="47.564986" lon="7.636389">
        <ele>262.809939</ele>
        <time>2021-11-22T11:04:15.383Z</time>
      </trkpt>
      <trkpt lat="47.564924" lon="7.636372">
        <ele>262.735669</ele>
        <time>2021-11-22T11:04:16.130Z</time>
      </trkpt>
      <trkpt lat="47.564863" lon="7.636347">
        <ele>262.661119</ele>
        <time>2021-11-22T11:04:16.962Z</time>
      </trkpt>
      <trkpt lat="47.564136" lon="7.635747">
        <ele>261.680935</ele>
        <time>2021-11-22T11:04:27.590Z</time>
      </trkpt>
      <trkpt lat="47.563800" lon="7.635461">
        <ele>261.224517</ele>
        <time>2021-11-22T11:04:31.666Z</time>
      </trkpt>
      <trkpt lat="47.562895" lon="7.634844">
        <ele>259.619267</ele>
        <time>2021-11-22T11:04:42.760Z</time>
      </trkpt>
      <trkpt lat="47.562491" lon="7.634562">
        <ele>258.893985</ele>
        <time>2021-11-22T11:04:48.063Z</time>
      </trkpt>
      <trkpt lat="47.562356" lon="7.634468">
        <ele>258.651734</ele>
        <time>2021-11-22T11:04:49.682Z</time>
      </trkpt>
      <trkpt lat="47.562299" lon="7.634770">
        <ele>258.308060</ele>
        <time>2021-11-22T11:04:52.242Z</time>
      </trkpt>
      <trkpt lat="47.562290" lon="7.634813">
        <ele>258.266617</ele>
        <time>2021-11-22T11:04:52.566Z</time>
      </trkpt>
      <trkpt lat="47.562278" lon="7.634866">
        <ele>258.248522</ele>
        <time>2021-11-22T11:04:52.973Z</time>
      </trkpt>
      <trkpt lat="47.562267" lon="7.634913">
        <ele>258.232420</ele>
        <time>2021-11-22T11:04:53.478Z</time>
      </trkpt>
      <trkpt lat="47.562211" lon="7.635159">
        <ele>258.148386</ele>
        <time>2021-11-22T11:04:55.510Z</time>
      </trkpt>
      <trkpt lat="47.562196" lon="7.635223">
        <ele>258.126457</ele>
        <time>2021-11-22T11:04:56.046Z</time>
      </trkpt>
      <trkpt lat="47.562186" lon="7.635270">
        <ele>258.110506</ele>
        <time>2021-11-22T11:04:56.463Z</time>
      </trkpt>
      <trkpt lat="47.562076" lon="7.635765">
        <ele>257.941819</ele>
        <time>2021-11-22T11:05:00.612Z</time>
      </trkpt>
      <trkpt lat="47.561882" lon="7.636362">
        <ele>257.727343</ele>
        <time>2021-11-22T11:05:06.308Z</time>
      </trkpt>
      <trkpt lat="47.561822" lon="7.636510">
        <ele>257.671457</ele>
        <time>2021-11-22T11:05:08.066Z</time>
      </trkpt>
      <trkpt lat="47.561782" lon="7.636596">
        <ele>257.637649</ele>
        <time>2021-11-22T11:05:09.407Z</time>
      </trkpt>
      <trkpt lat="47.561686" lon="7.636795">
        <ele>257.558468</ele>
        <time>2021-11-22T11:05:12.906Z</time>
      </trkpt>
      <trkpt lat="47.561175" lon="7.637862">
        <ele>257.674829</ele>
        <time>2021-11-22T11:05:27.065Z</time>
      </trkpt>
      <trkpt lat="47.560897" lon="7.638442">
        <ele>257.901266</ele>
        <time>2021-11-22T11:05:34.599Z</time>
      </trkpt>
      <trkpt lat="47.560694" lon="7.638827">
        <ele>258.056779</ele>
        <time>2021-11-22T11:05:40.373Z</time>
      </trkpt>
      <trkpt lat="47.560246" lon="7.639588">
        <ele>258.475133</ele>
        <time>2021-11-22T11:05:52.080Z</time>
      </trkpt>
      <trkpt lat="47.559838" lon="7.640255">
        <ele>258.988041</ele>
        <time>2021-11-22T11:06:02.668Z</time>
      </trkpt>
      <trkpt lat="47.559349" lon="7.641052">
        <ele>259.601759</ele>
        <time>2021-11-22T11:06:17.221Z</time>
      </trkpt>
      <trkpt lat="47.559035" lon="7.641573">
        <ele>259.838198</ele>
        <time>2021-11-22T11:06:25.866Z</time>
      </trkpt>
      <trkpt lat="47.558885" lon="7.641826">
        <ele>259.892692</ele>
        <time>2021-11-22T11:06:29.535Z</time>
      </trkpt>
      <trkpt lat="47.558729" lon="7.642083">
        <ele>259.948625</ele>
        <time>2021-11-22T11:06:33.592Z</time>
      </trkpt>
      <trkpt lat="47.558518" lon="7.642425">
        <ele>260.023607</ele>
        <time>2021-11-22T11:06:38.598Z</time>
      </trkpt>
      <trkpt lat="47.558364" lon="7.642637">
        <ele>260.074009</ele>
        <time>2021-11-22T11:06:41.550Z</time>
      </trkpt>
      <trkpt lat="47.557834" lon="7.643162">
        <ele>260.120530</ele>
        <time>2021-11-22T11:06:51.020Z</time>
      </trkpt>
      <trkpt lat="47.556468" lon="7.644124">
        <ele>258.687294</ele>
        <time>2021-11-22T11:07:09.329Z</time>
      </trkpt>
      <trkpt lat="47.556365" lon="7.644197">
        <ele>258.579096</ele>
        <time>2021-11-22T11:07:10.663Z</time>
      </trkpt>
      <trkpt lat="47.555716" lon="7.644654">
        <ele>258.020971</ele>
        <time>2021-11-22T11:07:19.146Z</time>
      </trkpt>
      <trkpt lat="47.555704" lon="7.644698">
        <ele>257.996804</ele>
        <time>2021-11-22T11:07:19.507Z</time>
      </trkpt>
      <trkpt lat="47.555705" lon="7.644761">
        <ele>257.964714</ele>
        <time>2021-11-22T11:07:20.070Z</time>
      </trkpt>
      <trkpt lat="47.555880" lon="7.645218">
        <ele>257.697138</ele>
        <time>2021-11-22T11:07:24.563Z</time>
      </trkpt>
      <trkpt lat="47.555943" lon="7.645361">
        <ele>257.610175</ele>
        <time>2021-11-22T11:07:26.239Z</time>
      </trkpt>
      <trkpt lat="47.555473" lon="7.645969">
        <ele>257.144223</ele>
        <time>2021-11-22T11:07:48.167Z</time>
      </trkpt>
      <trkpt lat="47.555430" lon="7.646034">
        <ele>257.149491</ele>
        <time>2021-11-22T11:07:49.244Z</time>
      </trkpt>
      <trkpt lat="47.555334" lon="7.646275">
        <ele>257.165689</ele>
        <time>2021-11-22T11:07:51.765Z</time>
      </trkpt>
      <trkpt lat="47.555260" lon="7.646449">
        <ele>257.177593</ele>
        <time>2021-11-22T11:07:53.949Z</time>
      </trkpt>
      <trkpt lat="47.555111" lon="7.646659">
        <ele>257.195230</ele>
        <time>2021-11-22T11:07:56.953Z</time>
      </trkpt>
      <trkpt lat="47.554979" lon="7.646846">
        <ele>257.210892</ele>
        <time>2021-11-22T11:07:59.787Z</time>
      </trkpt>
      <trkpt lat="47.554475" lon="7.647537">
        <ele>257.269783</ele>
        <time>2021-11-22T11:08:10.099Z</time>
      </trkpt>
      <trkpt lat="47.554118" lon="7.648113">
        <ele>257.397363</ele>
        <time>2021-11-22T11:08:19.136Z</time>
      </trkpt>
      <trkpt lat="47.553958" lon="7.648375">
        <ele>257.516499</ele>
        <time>2021-11-22T11:08:23.159Z</time>
      </trkpt>
      <trkpt lat="47.553714" lon="7.648774">
        <ele>257.698044</ele>
        <time>2021-11-22T11:08:29.133Z</time>
      </trkpt>
      <trkpt lat="47.553648" lon="7.648907">
        <ele>257.753706</ele>
        <time>2021-11-22T11:08:31.010Z</time>
      </trkpt>
      <trkpt lat="47.553146" lon="7.649919">
        <ele>258.177182</ele>
        <time>2021-11-22T11:08:45.324Z</time>
      </trkpt>
      <trkpt lat="47.552587" lon="7.651166">
        <ele>258.799214</ele>
        <time>2021-11-22T11:09:03.295Z</time>
      </trkpt>
      <trkpt lat="47.552183" lon="7.652241">
        <ele>259.313672</ele>
        <time>2021-11-22T11:09:17.507Z</time>
      </trkpt>
      <trkpt lat="47.552106" lon="7.652480">
        <ele>259.388766</ele>
        <time>2021-11-22T11:09:20.427Z</time>
      </trkpt>
      <trkpt lat="47.552114" lon="7.652563">
        <ele>259.412539</ele>
        <time>2021-11-22T11:09:21.394Z</time>
      </trkpt>
      <trkpt lat="47.552074" lon="7.652610">
        <ele>259.433987</ele>
        <time>2021-11-22T11:09:22.295Z</time>
      </trkpt>
      <trkpt lat="47.551932" lon="7.653017">
        <ele>259.563900</ele>
        <time>2021-11-22T11:09:27.372Z</time>
      </trkpt>
      <trkpt lat="47.551870" lon="7.653156">
        <ele>259.611144</ele>
        <time>2021-11-22T11:09:29.275Z</time>
      </trkpt>
      <trkpt lat="47.551661" lon="7.653577">
        <ele>259.759334</ele>
        <time>2021-11-22T11:09:35.077Z</time>
      </trkpt>
      <trkpt lat="47.551583" lon="7.653791">
        <ele>259.828298</ele>
        <time>2021-11-22T11:09:37.709Z</time>
      </trkpt>
      <trkpt lat="47.550937" lon="7.657286">
        <ele>260.881051</ele>
        <time>2021-11-22T11:10:18.282Z</time>
      </trkpt>
      <trkpt lat="47.550899" lon="7.657475">
        <ele>260.911382</ele>
        <time>2021-11-22T11:10:20.650Z</time>
      </trkpt>
      <trkpt lat="47.550868" lon="7.657668">
        <ele>260.941895</ele>
        <time>2021-11-22T11:10:22.750Z</time>
      </trkpt>
      <trkpt lat="47.550853" lon="7.657854">
        <ele>260.970706</ele>
        <time>2021-11-22T11:10:24.654Z</time>
      </trkpt>
      <trkpt lat="47.550745" lon="7.659104">
        <ele>261.164529</ele>
        <time>2021-11-22T11:10:37.788Z</time>
      </trkpt>
      <trkpt lat="47.550675" lon="7.659854">
        <ele>261.282477</ele>
        <time>2021-11-22T11:10:45.642Z</time>
      </trkpt>
      <trkpt lat="47.550671" lon="7.660018">
        <ele>261.312733</ele>
        <time>2021-11-22T11:10:47.287Z</time>
      </trkpt>
      <trkpt lat="47.550667" lon="7.660245">
        <ele>261.354600</ele>
        <time>2021-11-22T11:10:49.621Z</time>
      </trkpt>
      <trkpt lat="47.550660" lon="7.660475">
        <ele>261.397049</ele>
        <time>2021-11-22T11:10:52.077Z</time>
      </trkpt>
      <trkpt lat="47.549673" lon="7.667139">
        <ele>262.335589</ele>
        <time>2021-11-22T11:12:05.880Z</time>
      </trkpt>
      <trkpt lat="47.549432" lon="7.668426">
        <ele>261.751671</ele>
        <time>2021-11-22T11:12:17.469Z</time>
      </trkpt>
      <trkpt lat="47.549386" lon="7.668719">
        <ele>261.534389</ele>
        <time>2021-11-22T11:12:19.700Z</time>
      </trkpt>
      <trkpt lat="47.549361" lon="7.668877">
        <ele>261.417172</ele>
        <time>2021-11-22T11:12:21.114Z</time>
      </trkpt>
      <trkpt lat="47.549326" lon="7.669106">
        <ele>261.247578</ele>
        <time>2021-11-22T11:12:22.920Z</time>
      </trkpt>
      <trkpt lat="47.549302" lon="7.669267">
        <ele>261.128486</ele>
        <time>2021-11-22T11:12:24.106Z</time>
      </trkpt>
      <trkpt lat="47.549257" lon="7.669586">
        <ele>260.893094</ele>
        <time>2021-11-22T11:12:26.767Z</time>
      </trkpt>
      <trkpt lat="47.548962" lon="7.670528">
        <ele>260.288847</ele>
        <time>2021-11-22T11:12:35.223Z</time>
      </trkpt>
      <trkpt lat="47.548929" lon="7.670643">
        <ele>260.244577</ele>
        <time>2021-11-22T11:12:36.131Z</time>
      </trkpt>
      <trkpt lat="47.548906" lon="7.670686">
        <ele>260.225140</ele>
        <time>2021-11-22T11:12:36.507Z</time>
      </trkpt>
      <trkpt lat="47.548720" lon="7.670938">
        <ele>260.092850</ele>
        <time>2021-11-22T11:12:40.273Z</time>
      </trkpt>
      <trkpt lat="47.548674" lon="7.671062">
        <ele>260.042724</ele>
        <time>2021-11-22T11:12:41.351Z</time>
      </trkpt>
      <trkpt lat="47.548598" lon="7.671036">
        <ele>260.001784</ele>
        <time>2021-11-22T11:12:42.641Z</time>
      </trkpt>
      <trkpt lat="47.548474" lon="7.671088">
        <ele>259.934144</ele>
        <time>2021-11-22T11:12:44.511Z</time>
      </trkpt>
      <trkpt lat="47.548409" lon="7.671192">
        <ele>259.883930</ele>
        <time>2021-11-22T11:12:45.700Z</time>
      </trkpt>
      <trkpt lat="47.548386" lon="7.671284">
        <ele>259.849174</ele>
        <time>2021-11-22T11:12:46.447Z</time>
      </trkpt>
      <trkpt lat="47.547991" lon="7.671160">
        <ele>259.637248</ele>
        <time>2021-11-22T11:12:52.091Z</time>
      </trkpt>
      <trkpt lat="47.547593" lon="7.672560">
        <ele>259.743776</ele>
        <time>2021-11-22T11:13:08.057Z</time>
      </trkpt>
      <trkpt lat="47.547537" lon="7.672758">
        <ele>259.794717</ele>
        <time>2021-11-22T11:13:10.701Z</time>
      </trkpt>
      <trkpt lat="47.547360" lon="7.673402">
        <ele>259.959714</ele>
        <time>2021-11-22T11:13:18.617Z</time>
      </trkpt>
      <trkpt lat="47.547203" lon="7.674060">
        <ele>260.130545</ele>
        <time>2021-11-22T11:13:26.177Z</time>
      </trkpt>
      <trkpt lat="47.547135" lon="7.674359">
        <ele>260.255343</ele>
        <time>2021-11-22T11:13:29.857Z</time>
      </trkpt>
      <trkpt lat="47.546664" lon="7.676167">
        <ele>261.021892</ele>
        <time>2021-11-22T11:13:52.346Z</time>
      </trkpt>
      <trkpt lat="47.546443" lon="7.677013">
        <ele>261.490116</ele>
        <time>2021-11-22T11:14:03.167Z</time>
      </trkpt>
      <trkpt lat="47.546241" lon="7.677871">
        <ele>262.037498</ele>
        <time>2021-11-22T11:14:13.980Z</time>
      </trkpt>
      <trkpt lat="47.546058" lon="7.678654">
        <ele>262.536641</ele>
        <time>2021-11-22T11:14:24.962Z</time>
      </trkpt>
      <trkpt lat="47.545646" lon="7.679864">
        <ele>263.447417</ele>
        <time>2021-11-22T11:14:42.454Z</time>
      </trkpt>
      <trkpt lat="47.545558" lon="7.680117">
        <ele>263.646946</ele>
        <time>2021-11-22T11:14:46.315Z</time>
      </trkpt>
      <trkpt lat="47.545449" lon="7.680428">
        <ele>263.892612</ele>
        <time>2021-11-22T11:14:50.884Z</time>
      </trkpt>
      <trkpt lat="47.545278" lon="7.681023">
        <ele>264.345975</ele>
        <time>2021-11-22T11:14:58.995Z</time>
      </trkpt>
      <trkpt lat="47.545117" lon="7.681626">
        <ele>264.758111</ele>
        <time>2021-11-22T11:15:07.120Z</time>
      </trkpt>
      <trkpt lat="47.545006" lon="7.682078">
        <ele>265.003436</ele>
        <time>2021-11-22T11:15:13.138Z</time>
      </trkpt>
      <trkpt lat="47.544988" lon="7.682143">
        <ele>265.039270</ele>
        <time>2021-11-22T11:15:13.978Z</time>
      </trkpt>
      <trkpt lat="47.544842" lon="7.682691">
        <ele>265.339761</ele>
        <time>2021-11-22T11:15:20.679Z</time>
      </trkpt>
      <trkpt lat="47.544706" lon="7.683296">
        <ele>265.665003</ele>
        <time>2021-11-22T11:15:28.096Z</time>
      </trkpt>
      <trkpt lat="47.544626" lon="7.683667">
        <ele>265.863653</ele>
        <time>2021-11-22T11:15:32.624Z</time>
      </trkpt>
      <trkpt lat="47.544559" lon="7.684001">
        <ele>266.036556</ele>
        <time>2021-11-22T11:15:36.888Z</time>
      </trkpt>
      <trkpt lat="47.544493" lon="7.684340">
        <ele>266.193444</ele>
        <time>2021-11-22T11:15:41.286Z</time>
      </trkpt>
      <trkpt lat="47.544439" lon="7.684615">
        <ele>266.320798</ele>
        <time>2021-11-22T11:15:44.973Z</time>
      </trkpt>
      <trkpt lat="47.544438" lon="7.684734">
        <ele>266.373718</ele>
        <time>2021-11-22T11:15:46.473Z</time>
      </trkpt>
      <trkpt lat="47.544434" lon="7.684888">
        <ele>266.442248</ele>
        <time>2021-11-22T11:15:48.658Z</time>
      </trkpt>
      <trkpt lat="47.544310" lon="7.686004">
        <ele>266.945181</ele>
        <time>2021-11-22T11:16:02.203Z</time>
      </trkpt>
      <trkpt lat="47.544128" lon="7.687068">
        <ele>267.166185</ele>
        <time>2021-11-22T11:16:13.685Z</time>
      </trkpt>
      <trkpt lat="47.544057" lon="7.687517">
        <ele>267.147349</ele>
        <time>2021-11-22T11:16:18.321Z</time>
      </trkpt>
      <trkpt lat="47.543979" lon="7.687928">
        <ele>267.129912</ele>
        <time>2021-11-22T11:16:22.505Z</time>
      </trkpt>
      <trkpt lat="47.543887" lon="7.688428">
        <ele>267.108745</ele>
        <time>2021-11-22T11:16:27.529Z</time>
      </trkpt>
      <trkpt lat="47.543849" lon="7.688664">
        <ele>267.098835</ele>
        <time>2021-11-22T11:16:29.964Z</time>
      </trkpt>
      <trkpt lat="47.543756" lon="7.689554">
        <ele>267.144253</ele>
        <time>2021-11-22T11:16:37.924Z</time>
      </trkpt>
      <trkpt lat="47.543747" lon="7.689674">
        <ele>267.162133</ele>
        <time>2021-11-22T11:16:39.240Z</time>
      </trkpt>
      <trkpt lat="47.543719" lon="7.690293">
        <ele>267.254004</ele>
        <time>2021-11-22T11:16:45.616Z</time>
      </trkpt>
      <trkpt lat="47.543718" lon="7.690373">
        <ele>267.265852</ele>
        <time>2021-11-22T11:16:46.462Z</time>
      </trkpt>
      <trkpt lat="47.543695" lon="7.691028">
        <ele>267.362980</ele>
        <time>2021-11-22T11:16:53.976Z</time>
      </trkpt>
      <trkpt lat="47.543669" lon="7.691801">
        <ele>267.475669</ele>
        <time>2021-11-22T11:17:03.178Z</time>
      </trkpt>
      <trkpt lat="47.543652" lon="7.692147">
        <ele>267.496049</ele>
        <time>2021-11-22T11:17:06.754Z</time>
      </trkpt>
      <trkpt lat="47.543627" lon="7.692460">
        <ele>267.514565</ele>
        <time>2021-11-22T11:17:10.343Z</time>
      </trkpt>
      <trkpt lat="47.543515" lon="7.693372">
        <ele>267.569021</ele>
        <time>2021-11-22T11:17:20.000Z</time>
      </trkpt>
      <trkpt lat="47.543315" lon="7.694525">
        <ele>267.611831</ele>
        <time>2021-11-22T11:17:31.572Z</time>
      </trkpt>
      <trkpt lat="47.543147" lon="7.695557">
        <ele>267.463263</ele>
        <time>2021-11-22T11:17:40.850Z</time>
      </trkpt>
      <trkpt lat="47.542960" lon="7.696989">
        <ele>267.259140</ele>
        <time>2021-11-22T11:17:54.989Z</time>
      </trkpt>
      <trkpt lat="47.542902" lon="7.697537">
        <ele>267.392559</ele>
        <time>2021-11-22T11:18:00.985Z</time>
      </trkpt>
      <trkpt lat="47.542740" lon="7.698914">
        <ele>267.736409</ele>
        <time>2021-11-22T11:18:16.734Z</time>
      </trkpt>
      <trkpt lat="47.542682" lon="7.699476">
        <ele>267.876268</ele>
        <time>2021-11-22T11:18:23.221Z</time>
      </trkpt>
      <trkpt lat="47.542651" lon="7.699916">
        <ele>267.956548</ele>
        <time>2021-11-22T11:18:28.223Z</time>
      </trkpt>
      <trkpt lat="47.542660" lon="7.700609">
        <ele>268.059061</ele>
        <time>2021-11-22T11:18:35.946Z</time>
      </trkpt>
      <trkpt lat="47.542766" lon="7.702209">
        <ele>268.296836</ele>
        <time>2021-11-22T11:18:52.344Z</time>
      </trkpt>
      <trkpt lat="47.542785" lon="7.702499">
        <ele>268.299338</ele>
        <time>2021-11-22T11:18:55.238Z</time>
      </trkpt>
      <trkpt lat="47.542833" lon="7.702609">
        <ele>268.294398</ele>
        <time>2021-11-22T11:18:56.482Z</time>
      </trkpt>
      <trkpt lat="47.542922" lon="7.702619">
        <ele>268.289411</ele>
        <time>2021-11-22T11:18:57.896Z</time>
      </trkpt>
      <trkpt lat="47.542951" lon="7.702926">
        <ele>268.277720</ele>
        <time>2021-11-22T11:19:01.172Z</time>
      </trkpt>
      <trkpt lat="47.542979" lon="7.703226">
        <ele>268.266297</ele>
        <time>2021-11-22T11:19:04.256Z</time>
      </trkpt>
      <trkpt lat="47.543011" lon="7.703509">
        <ele>268.255475</ele>
        <time>2021-11-22T11:19:07.133Z</time>
      </trkpt>
      <trkpt lat="47.543146" lon="7.704707">
        <ele>268.209668</ele>
        <time>2021-11-22T11:19:18.908Z</time>
      </trkpt>
      <trkpt lat="47.543153" lon="7.704762">
        <ele>268.207557</ele>
        <time>2021-11-22T11:19:19.438Z</time>
      </trkpt>
      <trkpt lat="47.543166" lon="7.704863">
        <ele>268.174257</ele>
        <time>2021-11-22T11:19:20.367Z</time>
      </trkpt>
      <trkpt lat="47.543179" lon="7.704985">
        <ele>268.129459</ele>
        <time>2021-11-22T11:19:21.978Z</time>
      </trkpt>
      <trkpt lat="47.543192" lon="7.705107">
        <ele>268.084661</ele>
        <time>2021-11-22T11:19:23.575Z</time>
      </trkpt>
      <trkpt lat="47.543280" lon="7.705893">
        <ele>267.795680</ele>
        <time>2021-11-22T11:19:30.758Z</time>
      </trkpt>
      <trkpt lat="47.543360" lon="7.706664">
        <ele>267.512750</ele>
        <time>2021-11-22T11:19:37.819Z</time>
      </trkpt>
      <trkpt lat="47.543343" lon="7.707367">
        <ele>267.257605</ele>
        <time>2021-11-22T11:19:44.036Z</time>
      </trkpt>
      <trkpt lat="47.543080" lon="7.709103">
        <ele>265.723982</ele>
        <time>2021-11-22T11:19:58.405Z</time>
      </trkpt>
      <trkpt lat="47.542885" lon="7.709631">
        <ele>265.197084</ele>
        <time>2021-11-22T11:20:02.993Z</time>
      </trkpt>
      <trkpt lat="47.542797" lon="7.709757">
        <ele>265.038363</ele>
        <time>2021-11-22T11:20:04.330Z</time>
      </trkpt>
      <trkpt lat="47.542709" lon="7.709872">
        <ele>264.876885</ele>
        <time>2021-11-22T11:20:05.668Z</time>
      </trkpt>
      <trkpt lat="47.542638" lon="7.709956">
        <ele>264.708891</ele>
        <time>2021-11-22T11:20:06.756Z</time>
      </trkpt>
      <trkpt lat="47.542559" lon="7.710042">
        <ele>264.527635</ele>
        <time>2021-11-22T11:20:07.804Z</time>
      </trkpt>
      <trkpt lat="47.542526" lon="7.710079">
        <ele>264.451117</ele>
        <time>2021-11-22T11:20:08.237Z</time>
      </trkpt>
      <trkpt lat="47.542440" lon="7.710127">
        <ele>264.281205</ele>
        <time>2021-11-22T11:20:09.309Z</time>
      </trkpt>
      <trkpt lat="47.542315" lon="7.710174">
        <ele>264.042770</ele>
        <time>2021-11-22T11:20:10.789Z</time>
      </trkpt>
      <trkpt lat="47.542272" lon="7.710191">
        <ele>263.960486</ele>
        <time>2021-11-22T11:20:11.256Z</time>
      </trkpt>
      <trkpt lat="47.542178" lon="7.710226">
        <ele>263.781288</ele>
        <time>2021-11-22T11:20:12.299Z</time>
      </trkpt>
      <trkpt lat="47.541354" lon="7.710467">
        <ele>262.228422</ele>
        <time>2021-11-22T11:20:21.469Z</time>
      </trkpt>
      <trkpt lat="47.540817" lon="7.710444">
        <ele>261.411795</ele>
        <time>2021-11-22T11:20:27.448Z</time>
      </trkpt>
      <trkpt lat="47.540498" lon="7.710323">
        <ele>261.112511</ele>
        <time>2021-11-22T11:20:31.498Z</time>
      </trkpt>
      <trkpt lat="47.540428" lon="7.710280">
        <ele>261.043637</ele>
        <time>2021-11-22T11:20:32.354Z</time>
      </trkpt>
      <trkpt lat="47.540229" lon="7.710170">
        <ele>260.850589</ele>
        <time>2021-11-22T11:20:35.111Z</time>
      </trkpt>
      <trkpt lat="47.540040" lon="7.709983">
        <ele>260.644019</ele>
        <time>2021-11-22T11:20:37.940Z</time>
      </trkpt>
      <trkpt lat="47.539885" lon="7.709829">
        <ele>260.474391</ele>
        <time>2021-11-22T11:20:40.428Z</time>
      </trkpt>
      <trkpt lat="47.539646" lon="7.709593">
        <ele>260.213332</ele>
        <time>2021-11-22T11:20:44.126Z</time>
      </trkpt>
      <trkpt lat="47.539021" lon="7.708561">
        <ele>259.800449</ele>
        <time>2021-11-22T11:20:56.945Z</time>
      </trkpt>
      <trkpt lat="47.538687" lon="7.707698">
        <ele>259.646714</ele>
        <time>2021-11-22T11:21:06.629Z</time>
      </trkpt>
      <trkpt lat="47.538663" lon="7.707476">
        <ele>259.611968</ele>
        <time>2021-11-22T11:21:08.807Z</time>
      </trkpt>
      <trkpt lat="47.538403" lon="7.706790">
        <ele>259.517358</ele>
        <time>2021-11-22T11:21:16.077Z</time>
      </trkpt>
      <trkpt lat="47.538239" lon="7.706913">
        <ele>259.500114</ele>
        <time>2021-11-22T11:21:18.593Z</time>
      </trkpt>
      <trkpt lat="47.536551" lon="7.708325">
        <ele>260.146509</ele>
        <time>2021-11-22T11:21:57.412Z</time>
      </trkpt>
      <trkpt lat="47.536506" lon="7.708376">
        <ele>260.230861</ele>
        <time>2021-11-22T11:21:58.971Z</time>
      </trkpt>
      <trkpt lat="47.536244" lon="7.708596">
        <ele>260.679216</ele>
        <time>2021-11-22T11:22:06.040Z</time>
      </trkpt>
      <trkpt lat="47.536866" lon="7.710249">
        <ele>262.819734</ele>
        <time>2021-11-22T11:22:45.303Z</time>
      </trkpt>
      <trkpt lat="47.536654" lon="7.710426">
        <ele>263.343197</ele>
        <time>2021-11-22T11:22:52.892Z</time>
      </trkpt>
      <trkpt lat="47.536503" lon="7.710555">
        <ele>263.718149</ele>
        <time>2021-11-22T11:23:13.873Z</time>
      </trkpt>
      <trkpt lat="47.536434" lon="7.710627">
        <ele>263.899699</ele>
        <time>2021-11-22T11:23:16.431Z</time>
      </trkpt>
      <trkpt lat="47.536351" lon="7.710783">
        <ele>264.188134</ele>
        <time>2021-11-22T11:23:20.434Z</time>
      </trkpt>
      <trkpt lat="47.536587" lon="7.711300">
        <ele>265.094425</ele>
        <time>2021-11-22T11:23:32.520Z</time>
      </trkpt>
      <trkpt lat="47.536914" lon="7.712167">
        <ele>265.815017</ele>
        <time>2021-11-22T11:23:50.595Z</time>
      </trkpt>
      <trkpt lat="47.536944" lon="7.712258">
        <ele>265.791668</ele>
        <time>2021-11-22T11:23:52.160Z</time>
      </trkpt>
      <trkpt lat="47.537049" lon="7.712536">
        <ele>265.718224</ele>
        <time>2021-11-22T11:23:56.591Z</time>
      </trkpt>
      <trkpt lat="47.537078" lon="7.712647">
        <ele>265.690782</ele>
        <time>2021-11-22T11:23:58.034Z</time>
      </trkpt>
      <trkpt lat="47.537200" lon="7.713102">
        <ele>265.577907</ele>
        <time>2021-11-22T11:24:03.567Z</time>
      </trkpt>
      <trkpt lat="47.537252" lon="7.713332">
        <ele>265.521984</ele>
        <time>2021-11-22T11:24:06.340Z</time>
      </trkpt>
      <trkpt lat="47.537287" lon="7.713488">
        <ele>265.484083</ele>
        <time>2021-11-22T11:24:08.194Z</time>
      </trkpt>
      <trkpt lat="47.537373" lon="7.713866">
        <ele>265.392116</ele>
        <time>2021-11-22T11:24:12.707Z</time>
      </trkpt>
      <trkpt lat="47.537410" lon="7.714028">
        <ele>265.352687</ele>
        <time>2021-11-22T11:24:14.622Z</time>
      </trkpt>
      <trkpt lat="47.537437" lon="7.714141">
        <ele>265.325050</ele>
        <time>2021-11-22T11:24:15.953Z</time>
      </trkpt>
      <trkpt lat="47.537445" lon="7.714177">
        <ele>265.316312</ele>
        <time>2021-11-22T11:24:16.392Z</time>
      </trkpt>
      <trkpt lat="47.537574" lon="7.714861">
        <ele>265.390800</ele>
        <time>2021-11-22T11:24:24.946Z</time>
      </trkpt>
      <trkpt lat="47.537628" lon="7.715098">
        <ele>265.426553</ele>
        <time>2021-11-22T11:24:28.019Z</time>
      </trkpt>
      <trkpt lat="47.537691" lon="7.715385">
        <ele>265.469690</ele>
        <time>2021-11-22T11:24:32.654Z</time>
      </trkpt>
      <trkpt lat="47.537682" lon="7.715689">
        <ele>265.513185</ele>
        <time>2021-11-22T11:24:36.628Z</time>
      </trkpt>
      <trkpt lat="47.537665" lon="7.715878">
        <ele>265.540438</ele>
        <time>2021-11-22T11:24:39.708Z</time>
      </trkpt>
      <trkpt lat="47.537603" lon="7.716125">
        <ele>265.578105</ele>
        <time>2021-11-22T11:24:43.093Z</time>
      </trkpt>
      <trkpt lat="47.537590" lon="7.716163">
        <ele>265.584195</ele>
        <time>2021-11-22T11:24:43.723Z</time>
      </trkpt>
      <trkpt lat="47.537539" lon="7.716317">
        <ele>265.608713</ele>
        <time>2021-11-22T11:24:46.727Z</time>
      </trkpt>
      <trkpt lat="47.537640" lon="7.716279">
        <ele>265.630776</ele>
        <time>2021-11-22T11:24:49.003Z</time>
      </trkpt>
      <trkpt lat="47.537703" lon="7.716281">
        <ele>265.644118</ele>
        <time>2021-11-22T11:24:50.363Z</time>
      </trkpt>
      <trkpt lat="47.537786" lon="7.716325">
        <ele>265.662782</ele>
        <time>2021-11-22T11:24:52.676Z</time>
      </trkpt>
      <trkpt lat="47.537834" lon="7.716383">
        <ele>265.675898</ele>
        <time>2021-11-22T11:24:54.713Z</time>
      </trkpt>
      <trkpt lat="47.537984" lon="7.716489">
        <ele>265.938480</ele>
        <time>2021-11-22T11:24:59.066Z</time>
      </trkpt>
      <trkpt lat="47.538102" lon="7.716534">
        <ele>266.155755</ele>
        <time>2021-11-22T11:25:02.335Z</time>
      </trkpt>
      <trkpt lat="47.538239" lon="7.716580">
        <ele>266.406247</ele>
        <time>2021-11-22T11:25:06.939Z</time>
      </trkpt>
      <trkpt lat="47.538459" lon="7.717007">
        <ele>267.052869</ele>
        <time>2021-11-22T11:25:17.442Z</time>
      </trkpt>
      <trkpt lat="47.538708" lon="7.717692">
        <ele>267.989416</ele>
        <time>2021-11-22T11:25:32.062Z</time>
      </trkpt>
      <trkpt lat="47.538787" lon="7.718061">
        <ele>268.455420</ele>
        <time>2021-11-22T11:25:39.756Z</time>
      </trkpt>
      <trkpt lat="47.538796" lon="7.718297">
        <ele>268.739970</ele>
        <time>2021-11-22T11:25:43.825Z</time>
      </trkpt>
      <trkpt lat="47.538843" lon="7.718730">
        <ele>269.082271</ele>
        <time>2021-11-22T11:25:51.558Z</time>
      </trkpt>
      <trkpt lat="47.538928" lon="7.719478">
        <ele>269.549516</ele>
        <time>2021-11-22T11:26:03.525Z</time>
      </trkpt>
      <trkpt lat="47.538952" lon="7.719661">
        <ele>269.664351</ele>
        <time>2021-11-22T11:26:06.381Z</time>
      </trkpt>
      <trkpt lat="47.538974" lon="7.719868">
        <ele>269.793431</ele>
        <time>2021-11-22T11:26:09.384Z</time>
      </trkpt>
      <trkpt lat="47.539020" lon="7.720107">
        <ele>269.946520</ele>
        <time>2021-11-22T11:26:13.430Z</time>
      </trkpt>
      <trkpt lat="47.539077" lon="7.720239">
        <ele>270.043042</ele>
        <time>2021-11-22T11:26:15.755Z</time>
      </trkpt>
      <trkpt lat="47.539274" lon="7.720867">
        <ele>270.469608</ele>
        <time>2021-11-22T11:26:26.460Z</time>
      </trkpt>
      <trkpt lat="47.539484" lon="7.721575">
        <ele>270.974470</ele>
        <time>2021-11-22T11:26:39.182Z</time>
      </trkpt>
      <trkpt lat="47.539552" lon="7.721771">
        <ele>271.119491</ele>
        <time>2021-11-22T11:26:42.665Z</time>
      </trkpt>
      <trkpt lat="47.539552" lon="7.721771">
        <ele>271.119491</ele>
        <time>2021-11-22T11:26:42.667Z</time>
      </trkpt>
      <trkpt lat="47.539552" lon="7.721771">
        <ele>271.119491</ele>
        <time>2021-11-22T11:26:42.698Z</time>
      </trkpt>
      <trkpt lat="47.539330" lon="7.721781">
        <ele>271.336002</ele>
        <time>2021-11-22T11:26:47.008Z</time>
      </trkpt>
      <trkpt lat="47.539026" lon="7.721794">
        <ele>271.632473</ele>
        <time>2021-11-22T11:26:52.609Z</time>
      </trkpt>
      <trkpt lat="47.538548" lon="7.721812">
        <ele>272.098590</ele>
        <time>2021-11-22T11:27:01.812Z</time>
      </trkpt>
      <trkpt lat="47.538162" lon="7.721802">
        <ele>272.384583</ele>
        <time>2021-11-22T11:27:09.520Z</time>
      </trkpt>
      <trkpt lat="47.537750" lon="7.721731">
        <ele>272.599292</ele>
        <time>2021-11-22T11:27:19.123Z</time>
      </trkpt>
      <trkpt lat="47.537550" lon="7.721693">
        <ele>272.703669</ele>
        <time>2021-11-22T11:27:22.809Z</time>
      </trkpt>
      <trkpt lat="47.537550" lon="7.721693">
        <ele>272.703669</ele>
        <time>2021-11-22T11:27:22.815Z</time>
      </trkpt>
      <trkpt lat="47.537539" lon="7.721893">
        <ele>272.773794</ele>
        <time>2021-11-22T11:27:27.037Z</time>
      </trkpt>
      <trkpt lat="47.537870" lon="7.722718">
        <ele>273.109174</ele>
        <time>2021-11-22T11:27:36.738Z</time>
      </trkpt>
      <trkpt lat="47.537956" lon="7.722967">
        <ele>273.206917</ele>
        <time>2021-11-22T11:27:38.833Z</time>
      </trkpt>
      <trkpt lat="47.538163" lon="7.723558">
        <ele>273.502091</ele>
        <time>2021-11-22T11:27:45.070Z</time>
      </trkpt>
      <trkpt lat="47.538218" lon="7.723728">
        <ele>273.586168</ele>
        <time>2021-11-22T11:27:51.169Z</time>
      </trkpt>
      <trkpt lat="47.538235" lon="7.723781">
        <ele>273.612339</ele>
        <time>2021-11-22T11:27:51.677Z</time>
      </trkpt>
      <trkpt lat="47.538245" lon="7.723814">
        <ele>273.628472</ele>
        <time>2021-11-22T11:27:51.877Z</time>
      </trkpt>
      <trkpt lat="47.538309" lon="7.724021">
        <ele>273.730015</ele>
        <time>2021-11-22T11:27:53.563Z</time>
      </trkpt>
      <trkpt lat="47.538367" lon="7.724211">
        <ele>273.823015</ele>
        <time>2021-11-22T11:28:00.499Z</time>
      </trkpt>
      <trkpt lat="47.538545" lon="7.724720">
        <ele>274.078678</ele>
        <time>2021-11-22T11:28:08.397Z</time>
      </trkpt>
      <trkpt lat="47.538991" lon="7.726086">
        <ele>275.856417</ele>
        <time>2021-11-22T11:28:31.492Z</time>
      </trkpt>
      <trkpt lat="47.539334" lon="7.727155">
        <ele>278.026969</ele>
        <time>2021-11-22T11:28:57.482Z</time>
      </trkpt>
      <trkpt lat="47.539469" lon="7.727605">
        <ele>278.930015</ele>
        <time>2021-11-22T11:29:09.970Z</time>
      </trkpt>
      <trkpt lat="47.539460" lon="7.727657">
        <ele>279.028459</ele>
        <time>2021-11-22T11:29:11.280Z</time>
      </trkpt>
      <trkpt lat="47.539460" lon="7.727657">
        <ele>279.028459</ele>
        <time>2021-11-22T11:29:11.330Z</time>
      </trkpt>
      <trkpt lat="47.539446" lon="7.727722">
        <ele>279.153579</ele>
        <time>2021-11-22T11:29:13.190Z</time>
      </trkpt>
      <trkpt lat="47.539426" lon="7.727765">
        <ele>279.249339</ele>
        <time>2021-11-22T11:29:14.627Z</time>
      </trkpt>
      <trkpt lat="47.539384" lon="7.727813">
        <ele>279.459905</ele>
        <time>2021-11-22T11:29:16.613Z</time>
      </trkpt>
      <trkpt lat="47.539067" lon="7.728082">
        <ele>281.075434</ele>
        <time>2021-11-22T11:29:29.197Z</time>
      </trkpt>
      <trkpt lat="47.538783" lon="7.728228">
        <ele>282.404791</ele>
        <time>2021-11-22T11:29:39.964Z</time>
      </trkpt>
      <trkpt lat="47.538627" lon="7.728269">
        <ele>283.105413</ele>
        <time>2021-11-22T11:29:44.737Z</time>
      </trkpt>
      <trkpt lat="47.538549" lon="7.728263">
        <ele>283.450801</ele>
        <time>2021-11-22T11:29:47.888Z</time>
      </trkpt>
      <trkpt lat="47.538538" lon="7.728334">
        <ele>283.668269</ele>
        <time>2021-11-22T11:29:49.648Z</time>
      </trkpt>
      <trkpt lat="47.538527" lon="7.728380">
        <ele>283.813955</ele>
        <time>2021-11-22T11:29:50.829Z</time>
      </trkpt>
      <trkpt lat="47.538474" lon="7.728435">
        <ele>284.100118</ele>
        <time>2021-11-22T11:29:53.281Z</time>
      </trkpt>
      <trkpt lat="47.538188" lon="7.728631">
        <ele>285.493634</ele>
        <time>2021-11-22T11:30:03.786Z</time>
      </trkpt>
      <trkpt lat="47.538156" lon="7.728744">
        <ele>285.859456</ele>
        <time>2021-11-22T11:30:06.456Z</time>
      </trkpt>
      <trkpt lat="47.538211" lon="7.729041">
        <ele>286.778858</ele>
        <time>2021-11-22T11:30:13.173Z</time>
      </trkpt>
      <trkpt lat="47.538275" lon="7.729744">
        <ele>287.594002</ele>
        <time>2021-11-22T11:30:28.706Z</time>
      </trkpt>
      <trkpt lat="47.538339" lon="7.730082">
        <ele>287.817279</ele>
        <time>2021-11-22T11:30:35.034Z</time>
      </trkpt>
      <trkpt lat="47.538512" lon="7.730958">
        <ele>288.397800</ele>
        <time>2021-11-22T11:30:48.561Z</time>
      </trkpt>
      <trkpt lat="47.538887" lon="7.732454">
        <ele>288.545995</ele>
        <time>2021-11-22T11:31:07.820Z</time>
      </trkpt>
      <trkpt lat="47.539178" lon="7.733656">
        <ele>287.881826</ele>
        <time>2021-11-22T11:31:22.889Z</time>
      </trkpt>
      <trkpt lat="47.539263" lon="7.733885">
        <ele>287.745903</ele>
        <time>2021-11-22T11:31:26.007Z</time>
      </trkpt>
      <trkpt lat="47.539305" lon="7.734151">
        <ele>287.603818</ele>
        <time>2021-11-22T11:31:29.232Z</time>
      </trkpt>
      <trkpt lat="47.540032" lon="7.737141">
        <ele>287.136161</ele>
        <time>2021-11-22T11:32:09.660Z</time>
      </trkpt>
      <trkpt lat="47.540388" lon="7.739213">
        <ele>288.427705</ele>
        <time>2021-11-22T11:32:45.698Z</time>
      </trkpt>
      <trkpt lat="47.540394" lon="7.739259">
        <ele>288.456007</ele>
        <time>2021-11-22T11:32:47.368Z</time>
      </trkpt>
      <trkpt lat="47.540387" lon="7.739372">
        <ele>288.525445</ele>
        <time>2021-11-22T11:32:49.224Z</time>
      </trkpt>
      <trkpt lat="47.540372" lon="7.739490">
        <ele>288.600379</ele>
        <time>2021-11-22T11:32:51.047Z</time>
      </trkpt>
      <trkpt lat="47.540374" lon="7.739620">
        <ele>288.681529</ele>
        <time>2021-11-22T11:32:53.116Z</time>
      </trkpt>
      <trkpt lat="47.540438" lon="7.740453">
        <ele>289.204732</ele>
        <time>2021-11-22T11:33:07.614Z</time>
      </trkpt>
      <trkpt lat="47.540552" lon="7.742240">
        <ele>290.172527</ele>
        <time>2021-11-22T11:33:35.505Z</time>
      </trkpt>
      <trkpt lat="47.540589" lon="7.742558">
        <ele>290.187394</ele>
        <time>2021-11-22T11:33:40.039Z</time>
      </trkpt>
      <trkpt lat="47.540617" lon="7.742875">
        <ele>290.202122</ele>
        <time>2021-11-22T11:33:44.419Z</time>
      </trkpt>
      <trkpt lat="47.540738" lon="7.743641">
        <ele>290.238365</ele>
        <time>2021-11-22T11:33:54.940Z</time>
      </trkpt>
      <trkpt lat="47.540913" lon="7.744421">
        <ele>290.276232</ele>
        <time>2021-11-22T11:34:05.621Z</time>
      </trkpt>
      <trkpt lat="47.541019" lon="7.744859">
        <ele>290.274439</ele>
        <time>2021-11-22T11:34:11.785Z</time>
      </trkpt>
      <trkpt lat="47.541038" lon="7.744940">
        <ele>290.272077</ele>
        <time>2021-11-22T11:34:12.899Z</time>
      </trkpt>
      <trkpt lat="47.541130" lon="7.745083">
        <ele>290.266637</ele>
        <time>2021-11-22T11:34:15.977Z</time>
      </trkpt>
      <trkpt lat="47.541148" lon="7.745144">
        <ele>290.264804</ele>
        <time>2021-11-22T11:34:16.879Z</time>
      </trkpt>
      <trkpt lat="47.541160" lon="7.745250">
        <ele>290.261844</ele>
        <time>2021-11-22T11:34:18.283Z</time>
      </trkpt>
      <trkpt lat="47.541167" lon="7.745463">
        <ele>290.255971</ele>
        <time>2021-11-22T11:34:21.272Z</time>
      </trkpt>
      <trkpt lat="47.541432" lon="7.746552">
        <ele>290.224091</ele>
        <time>2021-11-22T11:34:37.046Z</time>
      </trkpt>
      <trkpt lat="47.541511" lon="7.746885">
        <ele>290.214371</ele>
        <time>2021-11-22T11:34:41.611Z</time>
      </trkpt>
      <trkpt lat="47.541583" lon="7.747186">
        <ele>290.207940</ele>
        <time>2021-11-22T11:34:45.866Z</time>
      </trkpt>
      <trkpt lat="47.541758" lon="7.747784">
        <ele>290.200150</ele>
        <time>2021-11-22T11:34:54.487Z</time>
      </trkpt>
      <trkpt lat="47.542132" lon="7.748742">
        <ele>290.186922</ele>
        <time>2021-11-22T11:35:10.009Z</time>
      </trkpt>
      <trkpt lat="47.542347" lon="7.749227">
        <ele>290.179987</ele>
        <time>2021-11-22T11:35:18.318Z</time>
      </trkpt>
      <trkpt lat="47.542390" lon="7.749307">
        <ele>290.178765</ele>
        <time>2021-11-22T11:35:19.579Z</time>
      </trkpt>
      <trkpt lat="47.542614" lon="7.749755">
        <ele>290.052006</ele>
        <time>2021-11-22T11:35:24.955Z</time>
      </trkpt>
      <trkpt lat="47.542780" lon="7.750095">
        <ele>289.943221</ele>
        <time>2021-11-22T11:35:28.986Z</time>
      </trkpt>
      <trkpt lat="47.543033" lon="7.750614">
        <ele>289.777252</ele>
        <time>2021-11-22T11:35:34.783Z</time>
      </trkpt>
      <trkpt lat="47.543115" lon="7.750826">
        <ele>289.713907</ele>
        <time>2021-11-22T11:35:37.097Z</time>
      </trkpt>
      <trkpt lat="47.543222" lon="7.751091">
        <ele>289.633853</ele>
        <time>2021-11-22T11:35:40.902Z</time>
      </trkpt>
      <trkpt lat="47.543319" lon="7.751355">
        <ele>289.555929</ele>
        <time>2021-11-22T11:35:43.696Z</time>
      </trkpt>
      <trkpt lat="47.543798" lon="7.753068">
        <ele>288.130479</ele>
        <time>2021-11-22T11:35:59.169Z</time>
      </trkpt>
      <trkpt lat="47.544022" lon="7.753705">
        <ele>287.517165</ele>
        <time>2021-11-22T11:36:04.862Z</time>
      </trkpt>
      <trkpt lat="47.545021" lon="7.756243">
        <ele>282.764901</ele>
        <time>2021-11-22T11:36:25.967Z</time>
      </trkpt>
      <trkpt lat="47.545260" lon="7.756637">
        <ele>281.630437</ele>
        <time>2021-11-22T11:36:29.460Z</time>
      </trkpt>
      <trkpt lat="47.545304" lon="7.756852">
        <ele>281.131540</ele>
        <time>2021-11-22T11:36:30.908Z</time>
      </trkpt>
      <trkpt lat="47.545326" lon="7.756949">
        <ele>280.904305</ele>
        <time>2021-11-22T11:36:31.918Z</time>
      </trkpt>
      <trkpt lat="47.545360" lon="7.757065">
        <ele>280.623475</ele>
        <time>2021-11-22T11:36:33.179Z</time>
      </trkpt>
      <trkpt lat="47.545429" lon="7.757231">
        <ele>280.190564</ele>
        <time>2021-11-22T11:36:34.419Z</time>
      </trkpt>
      <trkpt lat="47.545677" lon="7.757815">
        <ele>278.658426</ele>
        <time>2021-11-22T11:36:39.083Z</time>
      </trkpt>
      <trkpt lat="47.545911" lon="7.758393">
        <ele>277.161756</ele>
        <time>2021-11-22T11:36:43.706Z</time>
      </trkpt>
      <trkpt lat="47.546264" lon="7.759224">
        <ele>276.299901</ele>
        <time>2021-11-22T11:36:50.732Z</time>
      </trkpt>
      <trkpt lat="47.546312" lon="7.759326">
        <ele>276.235286</ele>
        <time>2021-11-22T11:36:51.726Z</time>
      </trkpt>
      <trkpt lat="47.546552" lon="7.759727">
        <ele>275.956782</ele>
        <time>2021-11-22T11:36:56.362Z</time>
      </trkpt>
      <trkpt lat="47.546804" lon="7.760164">
        <ele>275.658102</ele>
        <time>2021-11-22T11:37:01.900Z</time>
      </trkpt>
      <trkpt lat="47.546870" lon="7.760301">
        <ele>275.570636</ele>
        <time>2021-11-22T11:37:03.901Z</time>
      </trkpt>
      <trkpt lat="47.546948" lon="7.760482">
        <ele>275.459043</ele>
        <time>2021-11-22T11:37:06.363Z</time>
      </trkpt>
      <trkpt lat="47.546989" lon="7.760612">
        <ele>275.384477</ele>
        <time>2021-11-22T11:37:08.057Z</time>
      </trkpt>
      <trkpt lat="47.547194" lon="7.761352">
        <ele>275.975861</ele>
        <time>2021-11-22T11:37:18.571Z</time>
      </trkpt>
      <trkpt lat="47.547577" lon="7.762307">
        <ele>277.063466</ele>
        <time>2021-11-22T11:37:34.621Z</time>
      </trkpt>
      <trkpt lat="47.547778" lon="7.762713">
        <ele>277.556427</ele>
        <time>2021-11-22T11:37:42.176Z</time>
      </trkpt>
      <trkpt lat="47.547848" lon="7.762928">
        <ele>277.790135</ele>
        <time>2021-11-22T11:37:45.711Z</time>
      </trkpt>
      <trkpt lat="47.547885" lon="7.763099">
        <ele>277.961696</ele>
        <time>2021-11-22T11:37:48.495Z</time>
      </trkpt>
      <trkpt lat="47.547909" lon="7.763208">
        <ele>278.061713</ele>
        <time>2021-11-22T11:37:50.390Z</time>
      </trkpt>
      <trkpt lat="47.548565" lon="7.765680">
        <ele>280.204279</ele>
        <time>2021-11-22T11:38:26.975Z</time>
      </trkpt>
      <trkpt lat="47.548990" lon="7.767248">
        <ele>279.656899</ele>
        <time>2021-11-22T11:38:42.332Z</time>
      </trkpt>
      <trkpt lat="47.549184" lon="7.768021">
        <ele>279.389736</ele>
        <time>2021-11-22T11:38:48.716Z</time>
      </trkpt>
      <trkpt lat="47.549363" lon="7.768846">
        <ele>278.769453</ele>
        <time>2021-11-22T11:38:55.379Z</time>
      </trkpt>
      <trkpt lat="47.549678" lon="7.770148">
        <ele>277.776618</ele>
        <time>2021-11-22T11:39:06.962Z</time>
      </trkpt>
      <trkpt lat="47.549714" lon="7.770276">
        <ele>277.677080</ele>
        <time>2021-11-22T11:39:08.090Z</time>
      </trkpt>
      <trkpt lat="47.549845" lon="7.770734">
        <ele>277.417338</ele>
        <time>2021-11-22T11:39:12.468Z</time>
      </trkpt>
      <trkpt lat="47.550069" lon="7.771373">
        <ele>277.224218</ele>
        <time>2021-11-22T11:39:18.917Z</time>
      </trkpt>
      <trkpt lat="47.550199" lon="7.772076">
        <ele>277.028722</ele>
        <time>2021-11-22T11:39:25.755Z</time>
      </trkpt>
      <trkpt lat="47.550203" lon="7.772543">
        <ele>276.903461</ele>
        <time>2021-11-22T11:39:30.144Z</time>
      </trkpt>
      <trkpt lat="47.550061" lon="7.773283">
        <ele>276.678745</ele>
        <time>2021-11-22T11:39:37.392Z</time>
      </trkpt>
      <trkpt lat="47.550090" lon="7.773646">
        <ele>276.552347</ele>
        <time>2021-11-22T11:39:40.671Z</time>
      </trkpt>
      <trkpt lat="47.550320" lon="7.774602">
        <ele>276.201400</ele>
        <time>2021-11-22T11:39:49.547Z</time>
      </trkpt>
      <trkpt lat="47.550505" lon="7.775364">
        <ele>275.921382</ele>
        <time>2021-11-22T11:39:56.609Z</time>
      </trkpt>
      <trkpt lat="47.550598" lon="7.775828">
        <ele>275.846771</ele>
        <time>2021-11-22T11:40:00.927Z</time>
      </trkpt>
      <trkpt lat="47.550607" lon="7.775871">
        <ele>275.848159</ele>
        <time>2021-11-22T11:40:01.350Z</time>
      </trkpt>
      <trkpt lat="47.550782" lon="7.776690">
        <ele>275.874644</ele>
        <time>2021-11-22T11:40:09.326Z</time>
      </trkpt>
      <trkpt lat="47.550963" lon="7.777797">
        <ele>275.909759</ele>
        <time>2021-11-22T11:40:21.412Z</time>
      </trkpt>
      <trkpt lat="47.550982" lon="7.777915">
        <ele>275.913499</ele>
        <time>2021-11-22T11:40:22.946Z</time>
      </trkpt>
      <trkpt lat="47.551085" lon="7.779125">
        <ele>276.193606</ele>
        <time>2021-11-22T11:40:37.385Z</time>
      </trkpt>
      <trkpt lat="47.551208" lon="7.780694">
        <ele>276.639088</ele>
        <time>2021-11-22T11:40:54.781Z</time>
      </trkpt>
      <trkpt lat="47.551270" lon="7.781390">
        <ele>276.770863</ele>
        <time>2021-11-22T11:41:02.132Z</time>
      </trkpt>
      <trkpt lat="47.551198" lon="7.781475">
        <ele>276.793814</ele>
        <time>2021-11-22T11:41:04.086Z</time>
      </trkpt>
      <trkpt lat="47.551230" lon="7.781831">
        <ele>276.854243</ele>
        <time>2021-11-22T11:41:07.771Z</time>
      </trkpt>
      <trkpt lat="47.551302" lon="7.782671">
        <ele>276.996717</ele>
        <time>2021-11-22T11:41:16.398Z</time>
      </trkpt>
      <trkpt lat="47.551384" lon="7.783659">
        <ele>277.271519</ele>
        <time>2021-11-22T11:41:27.260Z</time>
      </trkpt>
      <trkpt lat="47.551439" lon="7.784323">
        <ele>277.665770</ele>
        <time>2021-11-22T11:41:35.144Z</time>
      </trkpt>
      <trkpt lat="47.551437" lon="7.784657">
        <ele>277.862614</ele>
        <time>2021-11-22T11:41:39.500Z</time>
      </trkpt>
      <trkpt lat="47.551410" lon="7.784675">
        <ele>277.888466</ele>
        <time>2021-11-22T11:41:40.043Z</time>
      </trkpt>
      <trkpt lat="47.551373" lon="7.784740">
        <ele>277.938578</ele>
        <time>2021-11-22T11:41:41.044Z</time>
      </trkpt>
      <trkpt lat="47.551366" lon="7.784786">
        <ele>277.966367</ele>
        <time>2021-11-22T11:41:41.534Z</time>
      </trkpt>
      <trkpt lat="47.551371" lon="7.784835">
        <ele>277.995573</ele>
        <time>2021-11-22T11:41:42.146Z</time>
      </trkpt>
      <trkpt lat="47.551420" lon="7.784918">
        <ele>278.060559</ele>
        <time>2021-11-22T11:41:43.490Z</time>
      </trkpt>
      <trkpt lat="47.551452" lon="7.784931">
        <ele>278.089532</ele>
        <time>2021-11-22T11:41:44.113Z</time>
      </trkpt>
      <trkpt lat="47.551479" lon="7.784929">
        <ele>278.113137</ele>
        <time>2021-11-22T11:41:44.625Z</time>
      </trkpt>
      <trkpt lat="47.551498" lon="7.785081">
        <ele>278.204238</ele>
        <time>2021-11-22T11:41:46.808Z</time>
      </trkpt>
      <trkpt lat="47.551672" lon="7.787603">
        <ele>279.947784</ele>
        <time>2021-11-22T11:42:20.503Z</time>
      </trkpt>
      <trkpt lat="47.551690" lon="7.787827">
        <ele>280.113685</ele>
        <time>2021-11-22T11:42:23.350Z</time>
      </trkpt>
      <trkpt lat="47.551694" lon="7.787879">
        <ele>280.152175</ele>
        <time>2021-11-22T11:42:24.028Z</time>
      </trkpt>
      <trkpt lat="47.551712" lon="7.788013">
        <ele>280.252656</ele>
        <time>2021-11-22T11:42:25.832Z</time>
      </trkpt>
      <trkpt lat="47.551858" lon="7.788906">
        <ele>280.834578</ele>
        <time>2021-11-22T11:42:37.103Z</time>
      </trkpt>
      <trkpt lat="47.552036" lon="7.789826">
        <ele>281.299730</ele>
        <time>2021-11-22T11:42:48.359Z</time>
      </trkpt>
      <trkpt lat="47.552135" lon="7.790302">
        <ele>281.541813</ele>
        <time>2021-11-22T11:42:54.124Z</time>
      </trkpt>
      <trkpt lat="47.552201" lon="7.791031">
        <ele>281.899296</ele>
        <time>2021-11-22T11:43:02.729Z</time>
      </trkpt>
      <trkpt lat="47.552182" lon="7.792040">
        <ele>282.276124</ele>
        <time>2021-11-22T11:43:15.181Z</time>
      </trkpt>
      <trkpt lat="47.552180" lon="7.792294">
        <ele>282.367870</ele>
        <time>2021-11-22T11:43:18.255Z</time>
      </trkpt>
      <trkpt lat="47.552184" lon="7.792540">
        <ele>282.456747</ele>
        <time>2021-11-22T11:43:20.676Z</time>
      </trkpt>
      <trkpt lat="47.552198" lon="7.792976">
        <ele>282.614400</ele>
        <time>2021-11-22T11:43:24.985Z</time>
      </trkpt>
      <trkpt lat="47.552216" lon="7.793160">
        <ele>282.681552</ele>
        <time>2021-11-22T11:43:27.035Z</time>
      </trkpt>
      <trkpt lat="47.552233" lon="7.793294">
        <ele>282.730798</ele>
        <time>2021-11-22T11:43:28.755Z</time>
      </trkpt>
      <trkpt lat="47.552292" lon="7.793607">
        <ele>282.848175</ele>
        <time>2021-11-22T11:43:31.785Z</time>
      </trkpt>
      <trkpt lat="47.552369" lon="7.793872">
        <ele>283.042087</ele>
        <time>2021-11-22T11:43:35.525Z</time>
      </trkpt>
      <trkpt lat="47.552384" lon="7.793915">
        <ele>283.096177</ele>
        <time>2021-11-22T11:43:35.887Z</time>
      </trkpt>
      <trkpt lat="47.552494" lon="7.794200">
        <ele>283.463055</ele>
        <time>2021-11-22T11:43:40.064Z</time>
      </trkpt>
      <trkpt lat="47.552532" lon="7.794285">
        <ele>283.576988</ele>
        <time>2021-11-22T11:43:41.465Z</time>
      </trkpt>
      <trkpt lat="47.552644" lon="7.794507">
        <ele>283.886715</ele>
        <time>2021-11-22T11:43:45.164Z</time>
      </trkpt>
      <trkpt lat="47.552763" lon="7.794750">
        <ele>284.222210</ele>
        <time>2021-11-22T11:43:49.734Z</time>
      </trkpt>
      <trkpt lat="47.552786" lon="7.794796">
        <ele>284.286183</ele>
        <time>2021-11-22T11:43:50.254Z</time>
      </trkpt>
      <trkpt lat="47.552826" lon="7.794894">
        <ele>284.414163</ele>
        <time>2021-11-22T11:43:52.039Z</time>
      </trkpt>
      <trkpt lat="47.552837" lon="7.794925">
        <ele>284.453301</ele>
        <time>2021-11-22T11:43:52.567Z</time>
      </trkpt>
      <trkpt lat="47.552861" lon="7.794992">
        <ele>284.538062</ele>
        <time>2021-11-22T11:43:53.700Z</time>
      </trkpt>
      <trkpt lat="47.552892" lon="7.795106">
        <ele>284.675405</ele>
        <time>2021-11-22T11:43:55.778Z</time>
      </trkpt>
      <trkpt lat="47.552909" lon="7.795229">
        <ele>284.815705</ele>
        <time>2021-11-22T11:43:57.760Z</time>
      </trkpt>
      <trkpt lat="47.552917" lon="7.795354">
        <ele>284.956014</ele>
        <time>2021-11-22T11:43:59.376Z</time>
      </trkpt>
      <trkpt lat="47.552930" lon="7.795600">
        <ele>285.231750</ele>
        <time>2021-11-22T11:44:02.983Z</time>
      </trkpt>
      <trkpt lat="47.552930" lon="7.795600">
        <ele>285.231750</ele>
        <time>2021-11-22T11:44:02.987Z</time>
      </trkpt>
      <trkpt lat="47.552930" lon="7.795600">
        <ele>285.231750</ele>
        <time>2021-11-22T11:44:03.032Z</time>
      </trkpt>
      <trkpt lat="47.552886" lon="7.795976">
        <ele>285.658184</ele>
        <time>2021-11-22T11:44:08.572Z</time>
      </trkpt>
      <trkpt lat="47.552817" lon="7.796239">
        <ele>286.085861</ele>
        <time>2021-11-22T11:44:13.492Z</time>
      </trkpt>
      <trkpt lat="47.552762" lon="7.796425">
        <ele>286.609563</ele>
        <time>2021-11-22T11:44:17.015Z</time>
      </trkpt>
      <trkpt lat="47.552493" lon="7.797048">
        <ele>288.516913</ele>
        <time>2021-11-22T11:44:31.651Z</time>
      </trkpt>
      <trkpt lat="47.552152" lon="7.797876">
        <ele>291.018448</ele>
        <time>2021-11-22T11:44:53.714Z</time>
      </trkpt>
      <trkpt lat="47.552084" lon="7.798083">
        <ele>291.612172</ele>
        <time>2021-11-22T11:44:59.253Z</time>
      </trkpt>
      <trkpt lat="47.551948" lon="7.798607">
        <ele>292.975956</ele>
        <time>2021-11-22T11:45:10.970Z</time>
      </trkpt>
      <trkpt lat="47.551805" lon="7.799326">
        <ele>294.366509</ele>
        <time>2021-11-22T11:45:24.902Z</time>
      </trkpt>
      <trkpt lat="47.551793" lon="7.799434">
        <ele>294.569562</ele>
        <time>2021-11-22T11:45:27.074Z</time>
      </trkpt>
      <trkpt lat="47.551754" lon="7.799766">
        <ele>295.194728</ele>
        <time>2021-11-22T11:45:33.519Z</time>
      </trkpt>
      <trkpt lat="47.551712" lon="7.800249">
        <ele>296.098169</ele>
        <time>2021-11-22T11:45:42.429Z</time>
      </trkpt>
      <trkpt lat="47.551704" lon="7.800451">
        <ele>296.473553</ele>
        <time>2021-11-22T11:45:45.656Z</time>
      </trkpt>
      <trkpt lat="47.551703" lon="7.800471">
        <ele>296.510758</ele>
        <time>2021-11-22T11:45:45.895Z</time>
      </trkpt>
      <trkpt lat="47.551672" lon="7.801147">
        <ele>297.725594</ele>
        <time>2021-11-22T11:45:54.604Z</time>
      </trkpt>
      <trkpt lat="47.551669" lon="7.801438">
        <ele>297.906548</ele>
        <time>2021-11-22T11:45:59.242Z</time>
      </trkpt>
      <trkpt lat="47.551666" lon="7.801632">
        <ele>298.027202</ele>
        <time>2021-11-22T11:46:01.176Z</time>
      </trkpt>
      <trkpt lat="47.551669" lon="7.801853">
        <ele>298.164639</ele>
        <time>2021-11-22T11:46:04.489Z</time>
      </trkpt>
      <trkpt lat="47.551671" lon="7.802077">
        <ele>298.303926</ele>
        <time>2021-11-22T11:46:06.715Z</time>
      </trkpt>
      <trkpt lat="47.551679" lon="7.802228">
        <ele>298.398101</ele>
        <time>2021-11-22T11:46:07.849Z</time>
      </trkpt>
      <trkpt lat="47.551688" lon="7.802394">
        <ele>298.501645</ele>
        <time>2021-11-22T11:46:10.839Z</time>
      </trkpt>
      <trkpt lat="47.551700" lon="7.802648">
        <ele>298.659959</ele>
        <time>2021-11-22T11:46:13.073Z</time>
      </trkpt>
      <trkpt lat="47.551732" lon="7.803125">
        <ele>298.958001</ele>
        <time>2021-11-22T11:46:19.342Z</time>
      </trkpt>
      <trkpt lat="47.551744" lon="7.803277">
        <ele>299.053153</ele>
        <time>2021-11-22T11:46:20.560Z</time>
      </trkpt>
      <trkpt lat="47.551751" lon="7.803369">
        <ele>299.110718</ele>
        <time>2021-11-22T11:46:22.235Z</time>
      </trkpt>
      <trkpt lat="47.551692" lon="7.803510">
        <ele>299.213868</ele>
        <time>2021-11-22T11:46:25.822Z</time>
      </trkpt>
      <trkpt lat="47.551741" lon="7.804294">
        <ele>299.686249</ele>
        <time>2021-11-22T11:46:38.420Z</time>
      </trkpt>
      <trkpt lat="47.551744" lon="7.804473">
        <ele>299.791992</ele>
        <time>2021-11-22T11:46:41.455Z</time>
      </trkpt>
      <trkpt lat="47.551731" lon="7.804667">
        <ele>299.907124</ele>
        <time>2021-11-22T11:46:45.555Z</time>
      </trkpt>
      <trkpt lat="47.551709" lon="7.805000">
        <ele>300.104722</ele>
        <time>2021-11-22T11:46:50.096Z</time>
      </trkpt>
      <trkpt lat="47.551681" lon="7.805477">
        <ele>300.387483</ele>
        <time>2021-11-22T11:46:57.842Z</time>
      </trkpt>
      <trkpt lat="47.551671" lon="7.806117">
        <ele>300.765545</ele>
        <time>2021-11-22T11:47:07.931Z</time>
      </trkpt>
      <trkpt lat="47.551651" lon="7.806246">
        <ele>300.843712</ele>
        <time>2021-11-22T11:47:10.834Z</time>
      </trkpt>
      <trkpt lat="47.551895" lon="7.806278">
        <ele>300.907594</ele>
        <time>2021-11-22T11:47:14.359Z</time>
      </trkpt>
      <trkpt lat="47.552015" lon="7.806307">
        <ele>300.883747</ele>
        <time>2021-11-22T11:47:17.230Z</time>
      </trkpt>
      <trkpt lat="47.552068" lon="7.806445">
        <ele>300.862729</ele>
        <time>2021-11-22T11:47:18.687Z</time>
      </trkpt>
      <trkpt lat="47.552398" lon="7.808880">
        <ele>300.416832</ele>
        <time>2021-11-22T11:47:40.829Z</time>
      </trkpt>
      <trkpt lat="47.552566" lon="7.810386">
        <ele>299.725824</ele>
        <time>2021-11-22T11:47:53.841Z</time>
      </trkpt>
      <trkpt lat="47.552711" lon="7.812955">
        <ele>298.599395</ele>
        <time>2021-11-22T11:48:16.449Z</time>
      </trkpt>
      <trkpt lat="47.552844" lon="7.816432">
        <ele>297.309881</ele>
        <time>2021-11-22T11:48:46.942Z</time>
      </trkpt>
      <trkpt lat="47.552948" lon="7.819358">
        <ele>297.745732</ele>
        <time>2021-11-22T11:49:18.172Z</time>
      </trkpt>
      <trkpt lat="47.552896" lon="7.820699">
        <ele>298.365394</ele>
        <time>2021-11-22T11:49:34.256Z</time>
      </trkpt>
      <trkpt lat="47.552567" lon="7.824508">
        <ele>300.261611</ele>
        <time>2021-11-22T11:50:20.741Z</time>
      </trkpt>
      <trkpt lat="47.552491" lon="7.827227">
        <ele>301.616528</ele>
        <time>2021-11-22T11:50:52.480Z</time>
      </trkpt>
      <trkpt lat="47.552515" lon="7.828094">
        <ele>302.520196</ele>
        <time>2021-11-22T11:51:04.190Z</time>
      </trkpt>
      <trkpt lat="47.552477" lon="7.828294">
        <ele>302.736576</ele>
        <time>2021-11-22T11:51:06.807Z</time>
      </trkpt>
      <trkpt lat="47.552421" lon="7.828481">
        <ele>302.949631</ele>
        <time>2021-11-22T11:51:09.739Z</time>
      </trkpt>
      <trkpt lat="47.552404" lon="7.828582">
        <ele>303.058036</ele>
        <time>2021-11-22T11:51:11.423Z</time>
      </trkpt>
      <trkpt lat="47.552416" lon="7.828822">
        <ele>303.308661</ele>
        <time>2021-11-22T11:51:14.657Z</time>
      </trkpt>
      <trkpt lat="47.552554" lon="7.829266">
        <ele>303.817726</ele>
        <time>2021-11-22T11:51:22.009Z</time>
      </trkpt>
      <trkpt lat="47.552645" lon="7.830686">
        <ele>306.162509</ele>
        <time>2021-11-22T11:51:45.315Z</time>
      </trkpt>
      <trkpt lat="47.552690" lon="7.832598">
        <ele>309.784741</ele>
        <time>2021-11-22T11:52:20.792Z</time>
      </trkpt>
      <trkpt lat="47.552616" lon="7.832891">
        <ele>310.374687</ele>
        <time>2021-11-22T11:52:26.156Z</time>
      </trkpt>
      <trkpt lat="47.552556" lon="7.832977">
        <ele>310.607938</ele>
        <time>2021-11-22T11:52:28.887Z</time>
      </trkpt>
      <trkpt lat="47.552511" lon="7.833072">
        <ele>310.826805</ele>
        <time>2021-11-22T11:52:30.913Z</time>
      </trkpt>
      <trkpt lat="47.552467" lon="7.833198">
        <ele>311.094332</ele>
        <time>2021-11-22T11:52:33.314Z</time>
      </trkpt>
      <trkpt lat="47.552452" lon="7.833284">
        <ele>311.261836</ele>
        <time>2021-11-22T11:52:34.925Z</time>
      </trkpt>
      <trkpt lat="47.552696" lon="7.833789">
        <ele>312.433026</ele>
        <time>2021-11-22T11:52:45.957Z</time>
      </trkpt>
      <trkpt lat="47.552700" lon="7.833938">
        <ele>312.714226</ele>
        <time>2021-11-22T11:52:48.901Z</time>
      </trkpt>
      <trkpt lat="47.552714" lon="7.835010">
        <ele>314.579423</ele>
        <time>2021-11-22T11:53:07.378Z</time>
      </trkpt>
      <trkpt lat="47.552719" lon="7.836790">
        <ele>316.645596</ele>
        <time>2021-11-22T11:53:32.662Z</time>
      </trkpt>
      <trkpt lat="47.552697" lon="7.838068">
        <ele>318.049904</ele>
        <time>2021-11-22T11:53:50.303Z</time>
      </trkpt>
      <trkpt lat="47.552736" lon="7.838578">
        <ele>318.578634</ele>
        <time>2021-11-22T11:53:57.430Z</time>
      </trkpt>
      <trkpt lat="47.552802" lon="7.839009">
        <ele>319.033906</ele>
        <time>2021-11-22T11:54:03.649Z</time>
      </trkpt>
      <trkpt lat="47.552939" lon="7.839526">
        <ele>319.606064</ele>
        <time>2021-11-22T11:54:11.439Z</time>
      </trkpt>
      <trkpt lat="47.553231" lon="7.841529">
        <ele>321.709419</ele>
        <time>2021-11-22T11:54:41.564Z</time>
      </trkpt>
      <trkpt lat="47.553216" lon="7.841849">
        <ele>322.038238</ele>
        <time>2021-11-22T11:54:46.093Z</time>
      </trkpt>
      <trkpt lat="47.553167" lon="7.842046">
        <ele>322.253459</ele>
        <time>2021-11-22T11:54:48.954Z</time>
      </trkpt>
      <trkpt lat="47.553123" lon="7.842222">
        <ele>322.445855</ele>
        <time>2021-11-22T11:54:51.323Z</time>
      </trkpt>
      <trkpt lat="47.553133" lon="7.842431">
        <ele>322.660637</ele>
        <time>2021-11-22T11:54:54.450Z</time>
      </trkpt>
      <trkpt lat="47.552833" lon="7.842495">
        <ele>323.016628</ele>
        <time>2021-11-22T11:55:01.760Z</time>
      </trkpt>
      <trkpt lat="47.552380" lon="7.842592">
        <ele>323.384754</ele>
        <time>2021-11-22T11:55:12.791Z</time>
      </trkpt>
      <trkpt lat="47.551922" lon="7.842704">
        <ele>323.758100</ele>
        <time>2021-11-22T11:55:23.341Z</time>
      </trkpt>
      <trkpt lat="47.551668" lon="7.842770">
        <ele>323.965506</ele>
        <time>2021-11-22T11:55:29.302Z</time>
      </trkpt>
      <trkpt lat="47.551454" lon="7.842815">
        <ele>324.139347</ele>
        <time>2021-11-22T11:55:33.988Z</time>
      </trkpt>
      <trkpt lat="47.551384" lon="7.843979">
        <ele>324.917315</ele>
        <time>2021-11-22T11:55:48.005Z</time>
      </trkpt>
      <trkpt lat="47.551344" lon="7.844621">
        <ele>325.384745</ele>
        <time>2021-11-22T11:55:56.504Z</time>
      </trkpt>
      <trkpt lat="47.551205" lon="7.846694">
        <ele>327.157520</ele>
        <time>2021-11-22T11:56:24.522Z</time>
      </trkpt>
      <trkpt lat="47.551184" lon="7.847206">
        <ele>327.687538</ele>
        <time>2021-11-22T11:56:31.909Z</time>
      </trkpt>
      <trkpt lat="47.551196" lon="7.847517">
        <ele>328.009414</ele>
        <time>2021-11-22T11:56:36.473Z</time>
      </trkpt>
      <trkpt lat="47.551669" lon="7.848083">
        <ele>328.940226</ele>
        <time>2021-11-22T11:56:49.558Z</time>
      </trkpt>
      <trkpt lat="47.551242" lon="7.848702">
        <ele>329.802108</ele>
        <time>2021-11-22T11:57:02.145Z</time>
      </trkpt>
      <trkpt lat="47.550975" lon="7.849066">
        <ele>330.322037</ele>
        <time>2021-11-22T11:57:09.461Z</time>
      </trkpt>
      <trkpt lat="47.550810" lon="7.849346">
        <ele>330.681538</ele>
        <time>2021-11-22T11:57:15.861Z</time>
      </trkpt>
      <trkpt lat="47.550488" lon="7.850081">
        <ele>331.529034</ele>
        <time>2021-11-22T11:57:31.316Z</time>
      </trkpt>
      <trkpt lat="47.550441" lon="7.850188">
        <ele>331.626810</ele>
        <time>2021-11-22T11:57:33.508Z</time>
      </trkpt>
      <trkpt lat="47.550333" lon="7.850434">
        <ele>331.743330</ele>
        <time>2021-11-22T11:57:38.647Z</time>
      </trkpt>
      <trkpt lat="47.550009" lon="7.851173">
        <ele>332.093223</ele>
        <time>2021-11-22T11:57:53.251Z</time>
      </trkpt>
      <trkpt lat="47.549652" lon="7.851969">
        <ele>332.472693</ele>
        <time>2021-11-22T11:58:07.133Z</time>
      </trkpt>
      <trkpt lat="47.549535" lon="7.852225">
        <ele>332.595450</ele>
        <time>2021-11-22T11:58:11.178Z</time>
      </trkpt>
      <trkpt lat="47.549285" lon="7.852784">
        <ele>332.537356</ele>
        <time>2021-11-22T11:58:19.812Z</time>
      </trkpt>
      <trkpt lat="47.549708" lon="7.853279">
        <ele>332.326191</ele>
        <time>2021-11-22T11:58:30.212Z</time>
      </trkpt>
      <trkpt lat="47.550221" lon="7.853833">
        <ele>332.077505</ele>
        <time>2021-11-22T11:58:42.133Z</time>
      </trkpt>
      <trkpt lat="47.549883" lon="7.854434">
        <ele>331.847128</ele>
        <time>2021-11-22T11:58:48.811Z</time>
      </trkpt>
      <trkpt lat="47.549566" lon="7.855225">
        <ele>331.541494</ele>
        <time>2021-11-22T11:58:59.955Z</time>
      </trkpt>
      <trkpt lat="47.549362" lon="7.855774">
        <ele>331.333281</ele>
        <time>2021-11-22T11:59:07.877Z</time>
      </trkpt>
      <trkpt lat="47.548887" lon="7.857308">
        <ele>331.195387</ele>
        <time>2021-11-22T11:59:29.985Z</time>
      </trkpt>
      <trkpt lat="47.548743" lon="7.857692">
        <ele>331.252119</ele>
        <time>2021-11-22T11:59:35.957Z</time>
      </trkpt>
      <trkpt lat="47.548701" lon="7.857893">
        <ele>331.279293</ele>
        <time>2021-11-22T11:59:38.928Z</time>
      </trkpt>
      <trkpt lat="47.548686" lon="7.857973">
        <ele>331.290016</ele>
        <time>2021-11-22T11:59:40.052Z</time>
      </trkpt>
      <trkpt lat="47.548611" lon="7.858381">
        <ele>331.344627</ele>
        <time>2021-11-22T11:59:46.266Z</time>
      </trkpt>
      <trkpt lat="47.548334" lon="7.859801">
        <ele>332.166884</ele>
        <time>2021-11-22T12:00:09.303Z</time>
      </trkpt>
      <trkpt lat="47.548049" lon="7.860929">
        <ele>333.181357</ele>
        <time>2021-11-22T12:00:30.321Z</time>
      </trkpt>
      <trkpt lat="47.547930" lon="7.861711">
        <ele>333.903555</ele>
        <time>2021-11-22T12:00:45.085Z</time>
      </trkpt>
      <trkpt lat="47.547568" lon="7.863151">
        <ele>335.516517</ele>
        <time>2021-11-22T12:01:14.213Z</time>
      </trkpt>
      <trkpt lat="47.547320" lon="7.863864">
        <ele>336.358466</ele>
        <time>2021-11-22T12:01:28.153Z</time>
      </trkpt>
      <trkpt lat="47.546974" lon="7.864423">
        <ele>336.390376</ele>
        <time>2021-11-22T12:01:38.976Z</time>
      </trkpt>
      <trkpt lat="47.546885" lon="7.864500">
        <ele>336.373600</ele>
        <time>2021-11-22T12:01:42.061Z</time>
      </trkpt>
      <trkpt lat="47.546894" lon="7.864837">
        <ele>336.336544</ele>
        <time>2021-11-22T12:01:45.945Z</time>
      </trkpt>
      <trkpt lat="47.546889" lon="7.865225">
        <ele>336.293906</ele>
        <time>2021-11-22T12:01:51.370Z</time>
      </trkpt>
      <trkpt lat="47.546819" lon="7.865489">
        <ele>336.262742</ele>
        <time>2021-11-22T12:01:55.315Z</time>
      </trkpt>
      <trkpt lat="47.546510" lon="7.865766">
        <ele>336.203954</ele>
        <time>2021-11-22T12:02:01.949Z</time>
      </trkpt>
      <trkpt lat="47.546327" lon="7.865959">
        <ele>336.160025</ele>
        <time>2021-11-22T12:02:05.464Z</time>
      </trkpt>
      <trkpt lat="47.546096" lon="7.866147">
        <ele>335.996732</ele>
        <time>2021-11-22T12:02:10.020Z</time>
      </trkpt>
      <trkpt lat="47.545240" lon="7.866887">
        <ele>335.382693</ele>
        <time>2021-11-22T12:02:26.693Z</time>
      </trkpt>
      <trkpt lat="47.545160" lon="7.866985">
        <ele>335.318377</ele>
        <time>2021-11-22T12:02:28.649Z</time>
      </trkpt>
      <trkpt lat="47.545003" lon="7.867278">
        <ele>335.161926</ele>
        <time>2021-11-22T12:02:34.317Z</time>
      </trkpt>
      <trkpt lat="47.544568" lon="7.867693">
        <ele>335.055634</ele>
        <time>2021-11-22T12:02:46.907Z</time>
      </trkpt>
      <trkpt lat="47.544469" lon="7.867776">
        <ele>335.055634</ele>
        <time>2021-11-22T12:02:49.527Z</time>
      </trkpt>
      <trkpt lat="47.544410" lon="7.867825">
        <ele>335.055634</ele>
        <time>2021-11-22T12:02:51.318Z</time>
      </trkpt>
      <trkpt lat="47.544246" lon="7.867967">
        <ele>335.055634</ele>
        <time>2021-11-22T12:02:55.930Z</time>
      </trkpt>
      <trkpt lat="47.544214" lon="7.867988">
        <ele>335.055634</ele>
        <time>2021-11-22T12:02:56.743Z</time>
      </trkpt>
      <trkpt lat="47.543801" lon="7.868269">
        <ele>335.055634</ele>
        <time>2021-11-22T12:03:07.810Z</time>
      </trkpt>
      <trkpt lat="47.543657" lon="7.868359">
        <ele>335.055634</ele>
        <time>2021-11-22T12:03:12.012Z</time>
      </trkpt>
      <trkpt lat="47.543449" lon="7.868495">
        <ele>335.055634</ele>
        <time>2021-11-22T12:03:16.664Z</time>
      </trkpt>
      <trkpt lat="47.543340" lon="7.868566">
        <ele>335.055634</ele>
        <time>2021-11-22T12:03:19.300Z</time>
      </trkpt>
    </trkseg>
  </trk>
</gpx>